Darstellungsparameter: Aktuell verwendete Einstellungen:
Skalierung der Graphiken ... ?
xyx+y,   Skalierungsfaktor:      Skalierung: Modus: x, Faktor: 1
Darstellungszeitraum ... ?
Vom - - bis: - -   Zeitraum: 17.05.2020 - 23.05.2020
Min/Max/Avg-Anzeige ... ?
Zeige MMA aktuell
Zeige MMA Monat
Zeige MMA alles
Zeige --A aktuell
Zeige --A Monat
Zeige --A alles
Keine MMA-Anzeige
MMA:
Average (ber die Originaldaten)
MMA-Basis: 17.05.2020 - 23.05.2020
Quicknavigation für Darstellung... ?
Tage:      1T, 2T, 3T, 5T -1T -2T -3T -5T +1T +2T +3T +5T
Wochen: 1W, 2W, 3W -1W -2W -3W +1W +2W +3W
Monate: 1M, 3M, 6M -1M -3M -6M +1M +3M +6M
Jahre:    1J, 3J, 5J, 10J -1J -3J -5J -10J +1J +3J +5J +10J
Nutze für die Darstellung ... ?
Originaldaten oder Mittelwerte auf ...
Stundenbasis Tagesbasis Wochenbasis
Monatsbasis Jahresbasis      Datenbasis: Original-Daten
Darstellen als:
Statistik (Auto) Statistik J:M      Darstellung:
Zur Graphik,    zurück zur Übersicht aller Sensoren.
 
Tabellarische Datenbersicht: ?
 
Sensor: Nr:Datum:Temp:Abs-Feuchte:Windchill:Wind:
Aussen-T/F 1 17-05-2020 00:00:00 11.7 C 7.01 g/m*3 11.7 C 4.8 km/h
2 17-05-2020 00:05:00 11.7 C 7.11 g/m*3 11.7 C 6.4 km/h
3 17-05-2020 00:10:00 11.8 C 7.05 g/m*3 11.8 C 6.4 km/h
4 17-05-2020 00:15:00 11.8 C 7.16 g/m*3 11.8 C 1.6 km/h
5 17-05-2020 00:20:00 11.7 C 7.11 g/m*3 11.7 C 3.2 km/h
6 17-05-2020 00:25:00 11.5 C 7.13 g/m*3 11.5 C 1.6 km/h
7 17-05-2020 00:30:00 11.3 C 7.04 g/m*3 11.3 C 4.8 km/h
8 17-05-2020 00:35:00 11.2 C 7.1 g/m*3 11.2 C 3.2 km/h
9 17-05-2020 00:40:00 11.1 C 7.15 g/m*3 11.1 C 3.2 km/h
10 17-05-2020 00:45:00 10.8 C 7.02 g/m*3 10.8 C 0 km/h
11 17-05-2020 00:50:00 10.7 C 7.07 g/m*3 10.7 C 1.6 km/h
12 17-05-2020 00:55:00 10.5 C 7.08 g/m*3 10.5 C 4.8 km/h
13 17-05-2020 01:00:00 10.4 C 7.04 g/m*3 10.4 C 1.6 km/h
14 17-05-2020 01:05:00 10.3 C 7.09 g/m*3 10.3 C 1.6 km/h
15 17-05-2020 01:10:00 10.2 C 7.04 g/m*3 10.2 C 4.8 km/h
16 17-05-2020 01:15:00 10.2 C 7.04 g/m*3 10.2 C 4.8 km/h
17 17-05-2020 01:20:00 10 C 6.95 g/m*3 10 C 4.8 km/h
18 17-05-2020 01:25:00 9.9 C 7 g/m*3 9.9 C 3.2 km/h
19 17-05-2020 01:30:00 9.8 C 7.05 g/m*3 9.8 C 1.6 km/h
20 17-05-2020 01:35:00 9.7 C 7.01 g/m*3 9.02 C 6.4 km/h
21 17-05-2020 01:40:00 9.6 C 6.96 g/m*3 9.6 C 4.8 km/h
22 17-05-2020 01:45:00 9.5 C 6.92 g/m*3 9.5 C 0 km/h
23 17-05-2020 01:50:00 9.4 C 6.87 g/m*3 8.68 C 6.4 km/h
24 17-05-2020 01:55:00 9.3 C 6.92 g/m*3 9.3 C 4.8 km/h
25 17-05-2020 02:00:00 9.2 C 6.88 g/m*3 9.2 C 4.8 km/h
Sensor: Nr:Datum:Temp:Abs-Feuchte:Windchill:Wind:
Aussen-T/F 26 17-05-2020 02:05:00 9.2 C 6.88 g/m*3 8.45 C 6.4 km/h
27 17-05-2020 02:10:00 9.1 C 6.83 g/m*3 7.93 C 8.1 km/h
28 17-05-2020 02:15:00 9.1 C 6.92 g/m*3 8.33 C 6.4 km/h
29 17-05-2020 02:20:00 9.1 C 6.92 g/m*3 9.1 C 0 km/h
30 17-05-2020 02:25:00 9.2 C 6.88 g/m*3 8.05 C 8.1 km/h
31 17-05-2020 02:30:00 9.3 C 6.92 g/m*3 9.3 C 4.8 km/h
32 17-05-2020 02:35:00 9.3 C 6.92 g/m*3 9.3 C 4.8 km/h
33 17-05-2020 02:40:00 9.2 C 6.88 g/m*3 8.45 C 6.4 km/h
34 17-05-2020 02:45:00 9.1 C 6.83 g/m*3 7.93 C 8.1 km/h
35 17-05-2020 02:50:00 9 C 6.88 g/m*3 9 C 3.2 km/h
36 17-05-2020 02:55:00 8.9 C 6.92 g/m*3 8.9 C 3.2 km/h
37 17-05-2020 03:00:00 8.8 C 6.88 g/m*3 8.8 C 3.2 km/h
38 17-05-2020 03:05:00 8.7 C 6.92 g/m*3 7.87 C 6.4 km/h
39 17-05-2020 03:10:00 8.6 C 6.96 g/m*3 8.6 C 3.2 km/h
40 17-05-2020 03:15:00 8.6 C 6.96 g/m*3 8.6 C 1.6 km/h
41 17-05-2020 03:20:00 8.6 C 6.96 g/m*3 8.6 C 4.8 km/h
42 17-05-2020 03:25:00 8.6 C 6.96 g/m*3 8.6 C 1.6 km/h
43 17-05-2020 03:30:00 8.6 C 6.96 g/m*3 8.6 C 4.8 km/h
44 17-05-2020 03:35:00 8.6 C 7.05 g/m*3 8.6 C 1.6 km/h
45 17-05-2020 03:40:00 8.5 C 7 g/m*3 8.5 C 4.8 km/h
46 17-05-2020 03:45:00 8.6 C 7.05 g/m*3 7.34 C 8.1 km/h
47 17-05-2020 03:50:00 8.7 C 7.09 g/m*3 8.7 C 1.6 km/h
48 17-05-2020 03:55:00 8.6 C 6.96 g/m*3 8.6 C 3.2 km/h
49 17-05-2020 04:00:00 8.6 C 7.05 g/m*3 8.6 C 4.8 km/h
50 17-05-2020 04:05:00 8.6 C 7.05 g/m*3 8.6 C 4.8 km/h
Sensor: Nr:Datum:Temp:Abs-Feuchte:Windchill:Wind:
Aussen-T/F 51 17-05-2020 04:10:00 8.6 C 7.05 g/m*3 8.6 C 3.2 km/h
52 17-05-2020 04:15:00 8.5 C 7 g/m*3 8.5 C 3.2 km/h
53 17-05-2020 04:20:00 8.4 C 6.96 g/m*3 8.4 C 1.6 km/h
54 17-05-2020 04:25:00 8.4 C 7.04 g/m*3 8.4 C 1.6 km/h
55 17-05-2020 04:30:00 8.3 C 7 g/m*3 8.3 C 4.8 km/h
56 17-05-2020 04:35:00 8.2 C 6.95 g/m*3 8.2 C 4.8 km/h
57 17-05-2020 04:40:00 8.1 C 6.91 g/m*3 8.1 C 4.8 km/h
58 17-05-2020 04:45:00 7.9 C 6.9 g/m*3 7.9 C 3.2 km/h
59 17-05-2020 04:50:00 7.8 C 6.86 g/m*3 7.8 C 3.2 km/h
60 17-05-2020 04:55:00 7.7 C 6.89 g/m*3 7.7 C 3.2 km/h
61 17-05-2020 05:00:00 7.6 C 6.85 g/m*3 7.6 C 1.6 km/h
62 17-05-2020 05:05:00 7.5 C 6.8 g/m*3 7.5 C 4.8 km/h
63 17-05-2020 05:10:00 7.4 C 6.84 g/m*3 7.4 C 1.6 km/h
64 17-05-2020 05:15:00 7.3 C 6.79 g/m*3 7.3 C 3.2 km/h
65 17-05-2020 05:20:00 7.3 C 6.79 g/m*3 7.3 C 4.8 km/h
66 17-05-2020 05:25:00 7.2 C 6.83 g/m*3 7.2 C 4.8 km/h
67 17-05-2020 05:30:00 7.2 C 6.83 g/m*3 7.2 C 3.2 km/h
68 17-05-2020 05:35:00 7.1 C 6.79 g/m*3 7.1 C 0 km/h
69 17-05-2020 05:40:00 7.1 C 6.79 g/m*3 7.1 C 3.2 km/h
70 17-05-2020 05:45:00 6.9 C 6.7 g/m*3 5.79 C 6.4 km/h
71 17-05-2020 05:50:00 6.8 C 6.65 g/m*3 6.8 C 4.8 km/h
72 17-05-2020 05:55:00 6.8 C 6.65 g/m*3 6.8 C 4.8 km/h
73 17-05-2020 06:00:00 6.8 C 6.65 g/m*3 6.8 C 3.2 km/h
74 17-05-2020 06:05:00 6.7 C 6.61 g/m*3 6.7 C 1.6 km/h
75 17-05-2020 06:10:00 6.7 C 6.69 g/m*3 6.7 C 3.2 km/h
Sensor: Nr:Datum:Temp:Abs-Feuchte:Windchill:Wind:
Aussen-T/F 76 17-05-2020 06:15:00 6.7 C 6.69 g/m*3 6.7 C 3.2 km/h
77 17-05-2020 06:20:00 6.7 C 6.69 g/m*3 5.56 C 6.4 km/h
78 17-05-2020 06:25:00 6.7 C 6.69 g/m*3 6.7 C 1.6 km/h
79 17-05-2020 06:30:00 6.7 C 6.69 g/m*3 6.7 C 4.8 km/h
80 17-05-2020 06:35:00 6.7 C 6.69 g/m*3 6.7 C 3.2 km/h
81 17-05-2020 06:40:00 6.7 C 6.69 g/m*3 6.7 C 3.2 km/h
82 17-05-2020 06:45:00 6.7 C 6.69 g/m*3 6.7 C 3.2 km/h
83 17-05-2020 06:50:00 6.7 C 6.69 g/m*3 6.7 C 3.2 km/h
84 17-05-2020 06:55:00 6.7 C 6.69 g/m*3 5.56 C 6.4 km/h
85 17-05-2020 07:00:00 6.8 C 6.81 g/m*3 6.8 C 0 km/h
86 17-05-2020 07:05:00 6.8 C 6.81 g/m*3 6.8 C 4.8 km/h
87 17-05-2020 07:10:00 6.9 C 6.85 g/m*3 6.9 C 3.2 km/h
88 17-05-2020 07:15:00 7 C 6.82 g/m*3 7 C 0 km/h
89 17-05-2020 07:20:00 7 C 6.82 g/m*3 7 C 0 km/h
90 17-05-2020 07:25:00 6.9 C 6.77 g/m*3 6.9 C 1.6 km/h
91 17-05-2020 07:30:00 6.9 C 6.77 g/m*3 6.9 C 0 km/h
92 17-05-2020 07:35:00 6.9 C 6.85 g/m*3 6.9 C 0 km/h
93 17-05-2020 07:40:00 6.9 C 6.85 g/m*3 6.9 C 3.2 km/h
94 17-05-2020 07:45:00 7 C 6.9 g/m*3 7 C 1.6 km/h
95 17-05-2020 07:50:00 7 C 6.9 g/m*3 7 C 4.8 km/h
96 17-05-2020 07:55:00 7.1 C 6.94 g/m*3 7.1 C 1.6 km/h
97 17-05-2020 08:00:00 7.1 C 6.94 g/m*3 7.1 C 1.6 km/h
98 17-05-2020 08:05:00 7.2 C 6.99 g/m*3 7.2 C 1.6 km/h
99 17-05-2020 08:10:00 7.2 C 6.99 g/m*3 7.2 C 0 km/h
100 17-05-2020 08:15:00 7.3 C 7.03 g/m*3 7.3 C 0 km/h
Sensor: Nr:Datum:Temp:Abs-Feuchte:Windchill:Wind:
Aussen-T/F 101 17-05-2020 08:20:00 7.3 C 7.03 g/m*3 7.3 C 0 km/h
102 17-05-2020 08:25:00 7.4 C 7.08 g/m*3 7.4 C 0 km/h
103 17-05-2020 08:30:00 7.4 C 7.08 g/m*3 7.4 C 0 km/h
104 17-05-2020 08:35:00 7.5 C 7.12 g/m*3 7.5 C 0 km/h
105 17-05-2020 08:40:00 7.6 C 7.17 g/m*3 7.6 C 3.2 km/h
106 17-05-2020 08:45:00 7.8 C 7.26 g/m*3 7.8 C 0 km/h
107 17-05-2020 08:50:00 7.9 C 7.23 g/m*3 7.9 C 0 km/h
108 17-05-2020 08:55:00 8.2 C 7.37 g/m*3 8.2 C 3.2 km/h
109 17-05-2020 09:00:00 8.4 C 7.38 g/m*3 8.4 C 3.2 km/h
110 17-05-2020 09:05:00 8.7 C 7.35 g/m*3 8.7 C 0 km/h
111 17-05-2020 09:10:00 9.1 C 7.36 g/m*3 7.93 C 8.1 km/h
112 17-05-2020 09:15:00 9.3 C 7.37 g/m*3 9.3 C 4.8 km/h
113 17-05-2020 09:20:00 9.6 C 7.33 g/m*3 8.91 C 6.4 km/h
114 17-05-2020 09:25:00 9.9 C 7.38 g/m*3 9.9 C 3.2 km/h
115 17-05-2020 09:30:00 10.2 C 7.42 g/m*3 9.6 C 6.4 km/h
116 17-05-2020 09:35:00 10.4 C 7.42 g/m*3 10.4 C 1.6 km/h
117 17-05-2020 09:40:00 10.7 C 7.37 g/m*3 10.7 C 3.2 km/h
118 17-05-2020 09:45:00 10.9 C 7.26 g/m*3 10.41 C 6.4 km/h
119 17-05-2020 09:50:00 11.2 C 7.1 g/m*3 11.2 C 4.8 km/h
120 17-05-2020 09:55:00 11.2 C 6.99 g/m*3 11.2 C 4.8 km/h
121 17-05-2020 10:00:00 11.3 C 6.94 g/m*3 11.3 C 9.7 km/h
122 17-05-2020 10:05:00 11.4 C 6.98 g/m*3 11.4 C 6.4 km/h
123 17-05-2020 10:10:00 11.6 C 7.07 g/m*3 11.6 C 1.6 km/h
124 17-05-2020 10:15:00 11.7 C 7.22 g/m*3 11.7 C 4.8 km/h
125 17-05-2020 10:20:00 11.9 C 6.99 g/m*3 11.9 C 6.4 km/h
Sensor: Nr:Datum:Temp:Abs-Feuchte:Windchill:Wind:
Aussen-T/F 126 17-05-2020 10:25:00 12.2 C 7.01 g/m*3 12.2 C 11.3 km/h
127 17-05-2020 10:30:00 12.4 C 7.21 g/m*3 12.4 C 12.9 km/h
128 17-05-2020 10:35:00 12.6 C 7.19 g/m*3 12.6 C 6.4 km/h
129 17-05-2020 10:40:00 12.8 C 7.06 g/m*3 12.8 C 8.1 km/h
130 17-05-2020 10:45:00 12.9 C 6.99 g/m*3 12.9 C 6.4 km/h
131 17-05-2020 10:50:00 12.9 C 7.1 g/m*3 12.9 C 6.4 km/h
132 17-05-2020 10:55:00 12.9 C 6.88 g/m*3 12.9 C 9.7 km/h
133 17-05-2020 11:00:00 12.9 C 6.99 g/m*3 12.9 C 9.7 km/h
134 17-05-2020 11:05:00 12.9 C 6.99 g/m*3 12.9 C 8.1 km/h
135 17-05-2020 11:10:00 13.1 C 6.96 g/m*3 13.1 C 9.7 km/h
136 17-05-2020 11:15:00 13.1 C 6.96 g/m*3 13.1 C 6.4 km/h
137 17-05-2020 11:20:00 13.1 C 6.85 g/m*3 13.1 C 4.8 km/h
138 17-05-2020 11:25:00 13.1 C 6.96 g/m*3 13.1 C 6.4 km/h
139 17-05-2020 11:30:00 13.2 C 7 g/m*3 13.2 C 3.2 km/h
140 17-05-2020 11:35:00 13.3 C 7.05 g/m*3 13.3 C 4.8 km/h
141 17-05-2020 11:40:00 13.4 C 7.21 g/m*3 13.4 C 6.4 km/h
142 17-05-2020 11:45:00 13.4 C 7.09 g/m*3 13.4 C 6.4 km/h
143 17-05-2020 11:50:00 13.6 C 7.18 g/m*3 13.6 C 3.2 km/h
144 17-05-2020 11:55:00 13.7 C 6.99 g/m*3 13.7 C 4.8 km/h
145 17-05-2020 12:00:00 13.7 C 6.87 g/m*3 13.7 C 8.1 km/h
146 17-05-2020 12:05:00 13.8 C 6.91 g/m*3 13.8 C 9.7 km/h
147 17-05-2020 12:10:00 14 C 6.88 g/m*3 14 C 9.7 km/h
148 17-05-2020 12:15:00 14.2 C 6.96 g/m*3 14.2 C 6.4 km/h
149 17-05-2020 12:20:00 14.3 C 6.88 g/m*3 14.3 C 9.7 km/h
150 17-05-2020 12:25:00 14.3 C 6.88 g/m*3 14.3 C 3.2 km/h
Sensor: Nr:Datum:Temp:Abs-Feuchte:Windchill:Wind:
Aussen-T/F 151 17-05-2020 12:30:00 14.2 C 6.84 g/m*3 14.2 C 4.8 km/h
152 17-05-2020 12:35:00 14.3 C 7 g/m*3 14.3 C 6.4 km/h
153 17-05-2020 12:40:00 14.4 C 7.05 g/m*3 14.4 C 8.1 km/h
154 17-05-2020 12:45:00 14.7 C 6.92 g/m*3 14.7 C 9.7 km/h
155 17-05-2020 12:50:00 14.6 C 6.88 g/m*3 14.6 C 6.4 km/h
156 17-05-2020 12:55:00 14.6 C 7.01 g/m*3 14.6 C 11.3 km/h
157 17-05-2020 13:00:00 14.6 C 6.88 g/m*3 14.6 C 9.7 km/h
158 17-05-2020 13:05:00 14.8 C 7.09 g/m*3 14.8 C 6.4 km/h
159 17-05-2020 13:10:00 14.9 C 6.75 g/m*3 14.9 C 9.7 km/h
160 17-05-2020 13:15:00 15.1 C 6.71 g/m*3 15.1 C 8.1 km/h
161 17-05-2020 13:20:00 15.3 C 6.79 g/m*3 15.3 C 12.9 km/h
162 17-05-2020 13:25:00 15.4 C 6.83 g/m*3 15.4 C 6.4 km/h
163 17-05-2020 13:30:00 15.4 C 6.7 g/m*3 15.4 C 11.3 km/h
164 17-05-2020 13:35:00 15.6 C 6.92 g/m*3 15.6 C 8.1 km/h
165 17-05-2020 13:40:00 15.7 C 6.82 g/m*3 15.7 C 9.7 km/h
166 17-05-2020 13:45:00 15.8 C 6.87 g/m*3 15.8 C 6.4 km/h
167 17-05-2020 13:50:00 15.8 C 7 g/m*3 15.8 C 4.8 km/h
168 17-05-2020 13:55:00 15.9 C 6.91 g/m*3 15.9 C 11.3 km/h
169 17-05-2020 14:00:00 16.2 C 6.76 g/m*3 16.2 C 9.7 km/h
170 17-05-2020 14:05:00 16.3 C 6.8 g/m*3 16.3 C 6.4 km/h
171 17-05-2020 14:10:00 16.4 C 6.98 g/m*3 16.4 C 12.9 km/h
172 17-05-2020 14:15:00 16.6 C 6.78 g/m*3 16.6 C 11.3 km/h
173 17-05-2020 14:20:00 16.6 C 6.64 g/m*3 16.6 C 8.1 km/h
174 17-05-2020 14:25:00 16.8 C 6.72 g/m*3 16.8 C 6.4 km/h
175 17-05-2020 14:30:00 16.9 C 6.76 g/m*3 16.9 C 6.4 km/h
Sensor: Nr:Datum:Temp:Abs-Feuchte:Windchill:Wind:
Aussen-T/F 176 17-05-2020 14:35:00 16.9 C 6.76 g/m*3 16.9 C 4.8 km/h
177 17-05-2020 14:40:00 17.1 C 6.84 g/m*3 17.1 C 12.9 km/h
178 17-05-2020 14:45:00 17.4 C 6.82 g/m*3 17.4 C 11.3 km/h
179 17-05-2020 14:50:00 17.5 C 6.41 g/m*3 17.5 C 6.4 km/h
180 17-05-2020 14:55:00 17.5 C 6.86 g/m*3 17.5 C 8.1 km/h
181 17-05-2020 15:00:00 17.8 C 6.68 g/m*3 17.8 C 9.7 km/h
182 17-05-2020 15:05:00 17.9 C 6.57 g/m*3 17.9 C 8.1 km/h
183 17-05-2020 15:10:00 18 C 6.3 g/m*3 18 C 12.9 km/h
184 17-05-2020 15:15:00 18.1 C 6.33 g/m*3 18.1 C 9.7 km/h
185 17-05-2020 15:20:00 18.1 C 6.64 g/m*3 18.1 C 8.1 km/h
186 17-05-2020 15:25:00 18.3 C 6.25 g/m*3 18.3 C 8.1 km/h
187 17-05-2020 15:30:00 18.6 C 6.53 g/m*3 18.6 C 6.4 km/h
188 17-05-2020 15:35:00 19.2 C 6.93 g/m*3 19.2 C 6.4 km/h
189 17-05-2020 15:40:00 19.5 C 6.71 g/m*3 19.5 C 8.1 km/h
190 17-05-2020 15:45:00 19.4 C 6.67 g/m*3 19.4 C 3.2 km/h
191 17-05-2020 15:50:00 19.4 C 6.67 g/m*3 19.4 C 11.3 km/h
192 17-05-2020 15:55:00 19.2 C 6.76 g/m*3 19.2 C 12.9 km/h
193 17-05-2020 16:00:00 19.2 C 6.76 g/m*3 19.2 C 9.7 km/h
194 17-05-2020 16:05:00 19.3 C 6.63 g/m*3 19.3 C 8.1 km/h
195 17-05-2020 16:10:00 19.4 C 6.84 g/m*3 19.4 C 9.7 km/h
196 17-05-2020 16:15:00 19.8 C 6.66 g/m*3 19.8 C 16.1 km/h
197 17-05-2020 16:20:00 20 C 6.57 g/m*3 20 C 16.1 km/h
198 17-05-2020 16:25:00 20.2 C 6.64 g/m*3 20.2 C 8.1 km/h
199 17-05-2020 16:30:00 20.4 C 6.37 g/m*3 20.4 C 11.3 km/h
200 17-05-2020 16:35:00 20.7 C 6.48 g/m*3 20.7 C 6.4 km/h
Sensor: Nr:Datum:Temp:Abs-Feuchte:Windchill:Wind:
Aussen-T/F 201 17-05-2020 16:40:00 20.7 C 6.3 g/m*3 20.7 C 9.7 km/h
202 17-05-2020 16:45:00 20.7 C 6.3 g/m*3 20.7 C 9.7 km/h
203 17-05-2020 16:50:00 20.6 C 6.26 g/m*3 20.6 C 9.7 km/h
204 17-05-2020 16:55:00 20.6 C 6.26 g/m*3 20.6 C 9.7 km/h
205 17-05-2020 17:00:00 20.7 C 6.12 g/m*3 20.7 C 6.4 km/h
206 17-05-2020 17:05:00 20.3 C 5.98 g/m*3 20.3 C 6.4 km/h
207 17-05-2020 17:10:00 20.4 C 6.19 g/m*3 20.4 C 11.3 km/h
208 17-05-2020 17:15:00 20.8 C 6.34 g/m*3 20.8 C 9.7 km/h
209 17-05-2020 17:20:00 20.8 C 6.16 g/m*3 20.8 C 12.9 km/h
210 17-05-2020 17:25:00 20.8 C 5.98 g/m*3 20.8 C 6.4 km/h
211 17-05-2020 17:30:00 20.8 C 6.16 g/m*3 20.8 C 8.1 km/h
212 17-05-2020 17:35:00 20.9 C 6.19 g/m*3 20.9 C 11.3 km/h
213 17-05-2020 17:40:00 20.7 C 6.3 g/m*3 20.7 C 12.9 km/h
214 17-05-2020 17:45:00 20.5 C 6.41 g/m*3 20.5 C 11.3 km/h
215 17-05-2020 17:50:00 20.7 C 6.48 g/m*3 20.7 C 11.3 km/h
216 17-05-2020 17:55:00 20.9 C 6.56 g/m*3 20.9 C 9.7 km/h
217 17-05-2020 18:00:00 21.1 C 6.45 g/m*3 21.1 C 9.7 km/h
218 17-05-2020 18:05:00 21.1 C 6.45 g/m*3 21.1 C 8.1 km/h
219 17-05-2020 18:10:00 21 C 6.41 g/m*3 21 C 8.1 km/h
220 17-05-2020 18:15:00 21.1 C 6.63 g/m*3 21.1 C 4.8 km/h
221 17-05-2020 18:20:00 21.2 C 6.49 g/m*3 21.2 C 9.7 km/h
222 17-05-2020 18:25:00 20.7 C 6.48 g/m*3 20.7 C 8.1 km/h
223 17-05-2020 18:30:00 20.7 C 6.48 g/m*3 20.7 C 9.7 km/h
224 17-05-2020 18:35:00 20.9 C 6.74 g/m*3 20.9 C 8.1 km/h
225 17-05-2020 18:40:00 21.2 C 6.86 g/m*3 21.2 C 6.4 km/h
Sensor: Nr:Datum:Temp:Abs-Feuchte:Windchill:Wind:
Aussen-T/F 226 17-05-2020 18:45:00 21.1 C 6.45 g/m*3 21.1 C 9.7 km/h
227 17-05-2020 18:50:00 20.8 C 6.34 g/m*3 20.8 C 8.1 km/h
228 17-05-2020 18:55:00 20.6 C 6.26 g/m*3 20.6 C 4.8 km/h
229 17-05-2020 19:00:00 20.4 C 6.37 g/m*3 20.4 C 8.1 km/h
230 17-05-2020 19:05:00 20.6 C 6.62 g/m*3 20.6 C 4.8 km/h
231 17-05-2020 19:10:00 20.7 C 6.66 g/m*3 20.7 C 4.8 km/h
232 17-05-2020 19:15:00 20.6 C 6.44 g/m*3 20.6 C 3.2 km/h
233 17-05-2020 19:20:00 20.4 C 6.37 g/m*3 20.4 C 9.7 km/h
234 17-05-2020 19:25:00 20 C 6.39 g/m*3 20 C 9.7 km/h
235 17-05-2020 19:30:00 19.8 C 6.49 g/m*3 19.8 C 3.2 km/h
236 17-05-2020 19:35:00 19.8 C 6.49 g/m*3 19.8 C 4.8 km/h
237 17-05-2020 19:40:00 19.6 C 6.42 g/m*3 19.6 C 6.4 km/h
238 17-05-2020 19:45:00 19.4 C 6.51 g/m*3 19.4 C 6.4 km/h
239 17-05-2020 19:50:00 19.4 C 6.51 g/m*3 19.4 C 4.8 km/h
240 17-05-2020 19:55:00 19.4 C 6.67 g/m*3 19.4 C 4.8 km/h
241 17-05-2020 20:00:00 19.3 C 6.63 g/m*3 19.3 C 4.8 km/h
242 17-05-2020 20:05:00 19.2 C 6.76 g/m*3 19.2 C 3.2 km/h
243 17-05-2020 20:10:00 19.1 C 6.56 g/m*3 19.1 C 3.2 km/h
244 17-05-2020 20:15:00 18.9 C 6.64 g/m*3 18.9 C 4.8 km/h
245 17-05-2020 20:20:00 18.7 C 6.72 g/m*3 18.7 C 8.1 km/h
246 17-05-2020 20:25:00 18.6 C 6.68 g/m*3 18.6 C 4.8 km/h
247 17-05-2020 20:30:00 18.4 C 6.61 g/m*3 18.4 C 3.2 km/h
248 17-05-2020 20:35:00 18.3 C 6.72 g/m*3 18.3 C 3.2 km/h
249 17-05-2020 20:40:00 18.2 C 6.84 g/m*3 18.2 C 3.2 km/h
250 17-05-2020 20:45:00 18 C 7.53 g/m*3 18 C 1.6 km/h
Sensor: Nr:Datum:Temp:Abs-Feuchte:Windchill:Wind:
Aussen-T/F 251 17-05-2020 20:50:00 17.7 C 7.54 g/m*3 17.7 C 0 km/h
252 17-05-2020 20:55:00 17.2 C 7.61 g/m*3 17.2 C 0 km/h
253 17-05-2020 21:00:00 16.7 C 7.53 g/m*3 16.7 C 4.8 km/h
254 17-05-2020 21:05:00 16.1 C 7.4 g/m*3 16.1 C 4.8 km/h
255 17-05-2020 21:10:00 15.7 C 7.36 g/m*3 15.7 C 6.4 km/h
256 17-05-2020 21:15:00 15.3 C 7.31 g/m*3 15.3 C 8.1 km/h
257 17-05-2020 21:20:00 14.9 C 7.14 g/m*3 14.9 C 6.4 km/h
258 17-05-2020 21:25:00 14.7 C 7.18 g/m*3 14.7 C 8.1 km/h
259 17-05-2020 21:30:00 14.4 C 7.17 g/m*3 14.4 C 8.1 km/h
260 17-05-2020 21:35:00 14.2 C 7.08 g/m*3 14.2 C 8.1 km/h
261 17-05-2020 21:40:00 14 C 7.12 g/m*3 14 C 4.8 km/h
262 17-05-2020 21:45:00 13.8 C 7.15 g/m*3 13.8 C 8.1 km/h
263 17-05-2020 21:50:00 13.7 C 7.1 g/m*3 13.7 C 8.1 km/h
264 17-05-2020 21:55:00 13.6 C 7.06 g/m*3 13.6 C 8.1 km/h
265 17-05-2020 22:00:00 13.5 C 7.02 g/m*3 13.5 C 8.1 km/h
266 17-05-2020 22:05:00 13.4 C 6.97 g/m*3 13.4 C 8.1 km/h
267 17-05-2020 22:10:00 13.4 C 6.97 g/m*3 13.4 C 6.4 km/h
268 17-05-2020 22:15:00 13.3 C 7.05 g/m*3 13.3 C 6.4 km/h
269 17-05-2020 22:20:00 13.3 C 7.05 g/m*3 13.3 C 6.4 km/h
270 17-05-2020 22:25:00 13.2 C 7.12 g/m*3 13.2 C 6.4 km/h
271 17-05-2020 22:30:00 13.1 C 7.19 g/m*3 13.1 C 4.8 km/h
272 17-05-2020 22:35:00 12.9 C 7.1 g/m*3 12.9 C 3.2 km/h
273 17-05-2020 22:40:00 12.7 C 7.12 g/m*3 12.7 C 4.8 km/h
274 17-05-2020 22:45:00 12.6 C 7.08 g/m*3 12.6 C 3.2 km/h
275 17-05-2020 22:50:00 12.4 C 7.32 g/m*3 12.4 C 0 km/h
Sensor: Nr:Datum:Temp:Abs-Feuchte:Windchill:Wind:
Aussen-T/F 276 17-05-2020 22:55:00 12.1 C 7.18 g/m*3 12.1 C 0 km/h
277 17-05-2020 23:00:00 11.8 C 7.26 g/m*3 11.8 C 0 km/h
278 17-05-2020 23:05:00 11.5 C 7.23 g/m*3 11.5 C 0 km/h
279 17-05-2020 23:10:00 11.3 C 7.24 g/m*3 11.3 C 0 km/h
280 17-05-2020 23:15:00 11.1 C 7.15 g/m*3 11.1 C 0 km/h
281 17-05-2020 23:20:00 10.9 C 7.16 g/m*3 10.9 C 0 km/h
282 17-05-2020 23:25:00 10.7 C 7.07 g/m*3 10.7 C 0 km/h
283 17-05-2020 23:30:00 10.6 C 7.12 g/m*3 10.6 C 0 km/h
284 17-05-2020 23:35:00 10.4 C 7.13 g/m*3 10.4 C 0 km/h
285 17-05-2020 23:40:00 10.3 C 7.09 g/m*3 10.3 C 0 km/h
286 17-05-2020 23:45:00 10.2 C 7.14 g/m*3 10.2 C 0 km/h
287 17-05-2020 23:50:00 10.1 C 7.09 g/m*3 10.1 C 0 km/h
288 17-05-2020 23:55:00 9.9 C 7 g/m*3 9.9 C 0 km/h
289 18-05-2020 00:00:00 9.8 C 7.05 g/m*3 9.8 C 0 km/h
290 18-05-2020 00:05:00 9.7 C 7.01 g/m*3 9.7 C 1.6 km/h
291 18-05-2020 00:10:00 9.6 C 7.05 g/m*3 9.6 C 0 km/h
292 18-05-2020 00:15:00 9.6 C 7.05 g/m*3 9.6 C 0 km/h
293 18-05-2020 00:20:00 9.5 C 7.1 g/m*3 9.5 C 0 km/h
294 18-05-2020 00:25:00 9.4 C 7.05 g/m*3 9.4 C 0 km/h
295 18-05-2020 00:30:00 9.3 C 7.01 g/m*3 9.3 C 0 km/h
296 18-05-2020 00:35:00 9.2 C 6.97 g/m*3 9.2 C 0 km/h
297 18-05-2020 00:40:00 9.1 C 6.92 g/m*3 9.1 C 0 km/h
298 18-05-2020 00:45:00 9.1 C 7.01 g/m*3 9.1 C 1.6 km/h
299 18-05-2020 00:50:00 9 C 6.96 g/m*3 9 C 1.6 km/h
300 18-05-2020 00:55:00 8.9 C 6.92 g/m*3 8.9 C 0 km/h
Sensor: Nr:Datum:Temp:Abs-Feuchte:Windchill:Wind:
Aussen-T/F 301 18-05-2020 01:00:00 8.8 C 6.96 g/m*3 8.8 C 0 km/h
302 18-05-2020 01:05:00 8.8 C 6.96 g/m*3 8.8 C 0 km/h
303 18-05-2020 01:10:00 8.7 C 6.92 g/m*3 8.7 C 0 km/h
304 18-05-2020 01:15:00 8.7 C 7.01 g/m*3 8.7 C 0 km/h
305 18-05-2020 01:20:00 8.6 C 6.96 g/m*3 8.6 C 0 km/h
306 18-05-2020 01:25:00 8.6 C 6.96 g/m*3 8.6 C 0 km/h
307 18-05-2020 01:30:00 8.6 C 6.96 g/m*3 8.6 C 0 km/h
308 18-05-2020 01:35:00 8.5 C 6.92 g/m*3 8.5 C 0 km/h
309 18-05-2020 01:40:00 8.4 C 6.87 g/m*3 8.4 C 0 km/h
310 18-05-2020 01:45:00 8.3 C 6.91 g/m*3 8.3 C 1.6 km/h
311 18-05-2020 01:50:00 8.3 C 6.91 g/m*3 8.3 C 1.6 km/h
312 18-05-2020 01:55:00 8.2 C 6.87 g/m*3 8.2 C 0 km/h
313 18-05-2020 02:00:00 8.2 C 6.87 g/m*3 8.2 C 3.2 km/h
314 18-05-2020 02:05:00 8.2 C 6.95 g/m*3 8.2 C 0 km/h
315 18-05-2020 02:10:00 8.1 C 6.82 g/m*3 8.1 C 0 km/h
316 18-05-2020 02:15:00 8 C 6.86 g/m*3 8 C 0 km/h
317 18-05-2020 02:20:00 7.9 C 6.82 g/m*3 7.9 C 3.2 km/h
318 18-05-2020 02:25:00 8 C 6.94 g/m*3 8 C 1.6 km/h
319 18-05-2020 02:30:00 8 C 6.94 g/m*3 8 C 0 km/h
320 18-05-2020 02:35:00 8 C 6.94 g/m*3 8 C 0 km/h
321 18-05-2020 02:40:00 7.9 C 6.82 g/m*3 7.9 C 0 km/h
322 18-05-2020 02:45:00 7.8 C 6.77 g/m*3 7.8 C 0 km/h
323 18-05-2020 02:50:00 7.7 C 6.81 g/m*3 7.7 C 0 km/h
324 18-05-2020 02:55:00 7.6 C 6.77 g/m*3 7.6 C 0 km/h
325 18-05-2020 03:00:00 7.5 C 6.72 g/m*3 7.5 C 0 km/h
Sensor: Nr:Datum:Temp:Abs-Feuchte:Windchill:Wind:
Aussen-T/F 326 18-05-2020 03:05:00 7.4 C 6.76 g/m*3 7.4 C 0 km/h
327 18-05-2020 03:10:00 7.3 C 6.72 g/m*3 7.3 C 0 km/h
328 18-05-2020 03:15:00 7.2 C 6.67 g/m*3 7.2 C 0 km/h
329 18-05-2020 03:20:00 7.2 C 6.67 g/m*3 7.2 C 0 km/h
330 18-05-2020 03:25:00 7.1 C 6.71 g/m*3 7.1 C 1.6 km/h
331 18-05-2020 03:30:00 7.1 C 6.79 g/m*3 7.1 C 0 km/h
332 18-05-2020 03:35:00 7.1 C 6.79 g/m*3 7.1 C 0 km/h
333 18-05-2020 03:40:00 7.1 C 6.79 g/m*3 7.1 C 0 km/h
334 18-05-2020 03:45:00 7 C 6.74 g/m*3 7 C 0 km/h
335 18-05-2020 03:50:00 7 C 6.74 g/m*3 7 C 0 km/h
336 18-05-2020 03:55:00 7 C 6.74 g/m*3 7 C 0 km/h
337 18-05-2020 04:00:00 6.9 C 6.7 g/m*3 6.9 C 0 km/h
338 18-05-2020 04:05:00 6.9 C 6.77 g/m*3 6.9 C 0 km/h
339 18-05-2020 04:10:00 6.9 C 6.77 g/m*3 6.9 C 0 km/h
340 18-05-2020 04:15:00 6.8 C 6.65 g/m*3 6.8 C 0 km/h
341 18-05-2020 04:20:00 6.7 C 6.61 g/m*3 6.7 C 0 km/h
342 18-05-2020 04:25:00 6.7 C 6.61 g/m*3 6.7 C 0 km/h
343 18-05-2020 04:30:00 6.6 C 6.64 g/m*3 6.6 C 0 km/h
344 18-05-2020 04:35:00 6.5 C 6.6 g/m*3 6.5 C 0 km/h
345 18-05-2020 04:40:00 6.4 C 6.56 g/m*3 6.4 C 0 km/h
346 18-05-2020 04:45:00 6.4 C 6.56 g/m*3 6.4 C 0 km/h
347 18-05-2020 04:50:00 6.3 C 6.51 g/m*3 6.3 C 0 km/h
348 18-05-2020 04:55:00 6.2 C 6.47 g/m*3 6.2 C 3.2 km/h
349 18-05-2020 05:00:00 6.2 C 6.55 g/m*3 6.2 C 1.6 km/h
350 18-05-2020 05:05:00 6.2 C 6.55 g/m*3 6.2 C 0 km/h
Sensor: Nr:Datum:Temp:Abs-Feuchte:Windchill:Wind:
Aussen-T/F 351 18-05-2020 05:10:00 6.2 C 6.55 g/m*3 6.2 C 0 km/h
352 18-05-2020 05:15:00 6.2 C 6.55 g/m*3 6.2 C 0 km/h
353 18-05-2020 05:20:00 6.1 C 6.5 g/m*3 6.1 C 0 km/h
354 18-05-2020 05:25:00 6.1 C 6.5 g/m*3 6.1 C 0 km/h
355 18-05-2020 05:30:00 6 C 6.46 g/m*3 6 C 0 km/h
356 18-05-2020 05:35:00 5.9 C 6.42 g/m*3 5.9 C 0 km/h
357 18-05-2020 05:40:00 5.9 C 6.42 g/m*3 5.9 C 3.2 km/h
358 18-05-2020 05:45:00 5.9 C 6.49 g/m*3 5.9 C 3.2 km/h
359 18-05-2020 05:50:00 5.9 C 6.49 g/m*3 5.9 C 0 km/h
360 18-05-2020 05:55:00 5.9 C 6.49 g/m*3 5.9 C 0 km/h
361 18-05-2020 06:00:00 5.9 C 6.49 g/m*3 5.9 C 0 km/h
362 18-05-2020 06:05:00 5.9 C 6.49 g/m*3 5.9 C 0 km/h
363 18-05-2020 06:10:00 5.9 C 6.49 g/m*3 5.9 C 0 km/h
364 18-05-2020 06:15:00 5.8 C 6.45 g/m*3 5.8 C 0 km/h
365 18-05-2020 06:20:00 5.8 C 6.52 g/m*3 5.8 C 0 km/h
366 18-05-2020 06:25:00 5.8 C 6.52 g/m*3 5.8 C 0 km/h
367 18-05-2020 06:30:00 5.9 C 6.56 g/m*3 5.9 C 0 km/h
368 18-05-2020 06:35:00 5.9 C 6.56 g/m*3 5.9 C 0 km/h
369 18-05-2020 06:40:00 5.9 C 6.56 g/m*3 5.9 C 0 km/h
370 18-05-2020 06:45:00 6 C 6.6 g/m*3 6 C 0 km/h
371 18-05-2020 06:50:00 6.1 C 6.72 g/m*3 6.1 C 0 km/h
372 18-05-2020 06:55:00 6.2 C 6.77 g/m*3 6.2 C 0 km/h
373 18-05-2020 07:00:00 6.2 C 6.77 g/m*3 6.2 C 0 km/h
374 18-05-2020 07:05:00 6.3 C 6.81 g/m*3 6.3 C 1.6 km/h
375 18-05-2020 07:10:00 6.4 C 6.85 g/m*3 6.4 C 0 km/h
Sensor: Nr:Datum:Temp:Abs-Feuchte:Windchill:Wind:
Aussen-T/F 376 18-05-2020 07:15:00 6.5 C 6.9 g/m*3 6.5 C 0 km/h
377 18-05-2020 07:20:00 6.6 C 6.95 g/m*3 6.6 C 0 km/h
378 18-05-2020 07:25:00 6.7 C 6.99 g/m*3 6.7 C 0 km/h
379 18-05-2020 07:30:00 6.7 C 6.99 g/m*3 6.7 C 0 km/h
380 18-05-2020 07:35:00 6.8 C 7.04 g/m*3 6.8 C 0 km/h
381 18-05-2020 07:40:00 6.9 C 7.08 g/m*3 6.9 C 0 km/h
382 18-05-2020 07:45:00 7 C 7.13 g/m*3 7 C 0 km/h
383 18-05-2020 07:50:00 7.1 C 7.18 g/m*3 7.1 C 0 km/h
384 18-05-2020 07:55:00 7.2 C 7.22 g/m*3 7.2 C 0 km/h
385 18-05-2020 08:00:00 7.3 C 7.27 g/m*3 7.3 C 0 km/h
386 18-05-2020 08:05:00 7.4 C 7.32 g/m*3 7.4 C 0 km/h
387 18-05-2020 08:10:00 7.6 C 7.41 g/m*3 7.6 C 0 km/h
388 18-05-2020 08:15:00 7.7 C 7.46 g/m*3 7.7 C 0 km/h
389 18-05-2020 08:20:00 7.8 C 7.51 g/m*3 7.8 C 0 km/h
390 18-05-2020 08:25:00 8 C 7.61 g/m*3 8 C 0 km/h
391 18-05-2020 08:30:00 8.2 C 7.7 g/m*3 8.2 C 0 km/h
392 18-05-2020 08:35:00 8.3 C 7.75 g/m*3 8.3 C 0 km/h
393 18-05-2020 08:40:00 8.5 C 7.85 g/m*3 8.5 C 0 km/h
394 18-05-2020 08:45:00 8.7 C 7.96 g/m*3 8.7 C 0 km/h
395 18-05-2020 08:50:00 8.9 C 8.06 g/m*3 8.9 C 0 km/h
396 18-05-2020 08:55:00 9.1 C 8.16 g/m*3 9.1 C 0 km/h
397 18-05-2020 09:00:00 9.3 C 8.18 g/m*3 9.3 C 0 km/h
398 18-05-2020 09:05:00 9.6 C 8.34 g/m*3 9.6 C 0 km/h
399 18-05-2020 09:10:00 9.7 C 8.3 g/m*3 9.7 C 0 km/h
400 18-05-2020 09:15:00 10 C 8.36 g/m*3 10 C 0 km/h
Sensor: Nr:Datum:Temp:Abs-Feuchte:Windchill:Wind:
Aussen-T/F 401 18-05-2020 09:20:00 10.3 C 8.43 g/m*3 10.3 C 0 km/h
402 18-05-2020 09:25:00 10.5 C 8.53 g/m*3 10.5 C 0 km/h
403 18-05-2020 09:30:00 10.7 C 8.55 g/m*3 10.7 C 0 km/h
404 18-05-2020 09:35:00 10.9 C 8.65 g/m*3 10.9 C 0 km/h
405 18-05-2020 09:40:00 11 C 8.61 g/m*3 11 C 0 km/h
406 18-05-2020 09:45:00 11.2 C 8.62 g/m*3 11.2 C 0 km/h
407 18-05-2020 09:50:00 11.4 C 8.72 g/m*3 11.4 C 0 km/h
408 18-05-2020 09:55:00 11.7 C 8.79 g/m*3 11.7 C 0 km/h
409 18-05-2020 10:00:00 11.9 C 9 g/m*3 11.9 C 0 km/h
410 18-05-2020 10:05:00 12.2 C 9.06 g/m*3 12.2 C 0 km/h
411 18-05-2020 10:10:00 12.3 C 9.12 g/m*3 12.3 C 0 km/h
412 18-05-2020 10:15:00 12.6 C 9.29 g/m*3 12.6 C 0 km/h
413 18-05-2020 10:20:00 12.9 C 9.35 g/m*3 12.9 C 0 km/h
414 18-05-2020 10:25:00 13.2 C 9.07 g/m*3 13.2 C 0 km/h
415 18-05-2020 10:30:00 13.8 C 9.06 g/m*3 13.8 C 4.8 km/h
416 18-05-2020 10:35:00 14.4 C 9.27 g/m*3 14.4 C 1.6 km/h
417 18-05-2020 10:40:00 15 C 8.98 g/m*3 15 C 1.6 km/h
418 18-05-2020 10:45:00 15.7 C 8.43 g/m*3 15.7 C 4.8 km/h
419 18-05-2020 10:50:00 16.4 C 8.1 g/m*3 16.4 C 4.8 km/h
420 18-05-2020 10:55:00 17.3 C 8.1 g/m*3 17.3 C 11.3 km/h
421 18-05-2020 11:00:00 17.9 C 8.09 g/m*3 17.9 C 6.4 km/h
422 18-05-2020 11:05:00 18.3 C 8.13 g/m*3 18.3 C 9.7 km/h
423 18-05-2020 11:10:00 18.5 C 7.91 g/m*3 18.5 C 8.1 km/h
424 18-05-2020 11:15:00 18.7 C 8.49 g/m*3 18.7 C 4.8 km/h
425 18-05-2020 11:20:00 18.7 C 8.33 g/m*3 18.7 C 3.2 km/h
Sensor: Nr:Datum:Temp:Abs-Feuchte:Windchill:Wind:
Aussen-T/F 426 18-05-2020 11:25:00 18.8 C 8.37 g/m*3 18.8 C 6.4 km/h
427 18-05-2020 11:30:00 19 C 8.15 g/m*3 19 C 11.3 km/h
428 18-05-2020 11:35:00 19.2 C 8.24 g/m*3 19.2 C 4.8 km/h
429 18-05-2020 11:40:00 19.3 C 8.46 g/m*3 19.3 C 4.8 km/h
430 18-05-2020 11:45:00 19.4 C 8.18 g/m*3 19.4 C 6.4 km/h
431 18-05-2020 11:50:00 19.6 C 8.27 g/m*3 19.6 C 9.7 km/h
432 18-05-2020 11:55:00 19.7 C 7.98 g/m*3 19.7 C 11.3 km/h
433 18-05-2020 12:00:00 19.7 C 8.32 g/m*3 19.7 C 12.9 km/h
434 18-05-2020 12:05:00 19.8 C 8.2 g/m*3 19.8 C 6.4 km/h
435 18-05-2020 12:10:00 19.9 C 8.25 g/m*3 19.9 C 9.7 km/h
436 18-05-2020 12:15:00 20.1 C 8.17 g/m*3 20.1 C 4.8 km/h
437 18-05-2020 12:20:00 20.2 C 8.22 g/m*3 20.2 C 8.1 km/h
438 18-05-2020 12:25:00 20.3 C 8.27 g/m*3 20.3 C 9.7 km/h
439 18-05-2020 12:30:00 20.3 C 8.27 g/m*3 20.3 C 12.9 km/h
440 18-05-2020 12:35:00 20.2 C 8.22 g/m*3 20.2 C 4.8 km/h
441 18-05-2020 12:40:00 20.3 C 8.44 g/m*3 20.3 C 4.8 km/h
442 18-05-2020 12:45:00 20.4 C 8.14 g/m*3 20.4 C 11.3 km/h
443 18-05-2020 12:50:00 20.7 C 8.1 g/m*3 20.7 C 11.3 km/h
444 18-05-2020 12:55:00 20.8 C 8.15 g/m*3 20.8 C 14.5 km/h
445 18-05-2020 13:00:00 20.9 C 8.01 g/m*3 20.9 C 14.5 km/h
446 18-05-2020 13:05:00 20.9 C 8.2 g/m*3 20.9 C 4.8 km/h
447 18-05-2020 13:10:00 20.9 C 8.01 g/m*3 20.9 C 12.9 km/h
448 18-05-2020 13:15:00 21.1 C 7.92 g/m*3 21.1 C 8.1 km/h
449 18-05-2020 13:20:00 21.2 C 8.15 g/m*3 21.2 C 6.4 km/h
450 18-05-2020 13:25:00 21.3 C 8.02 g/m*3 21.3 C 9.7 km/h
Sensor: Nr:Datum:Temp:Abs-Feuchte:Windchill:Wind:
Aussen-T/F 451 18-05-2020 13:30:00 21.4 C 8.06 g/m*3 21.4 C 4.8 km/h
452 18-05-2020 13:35:00 21.6 C 8.16 g/m*3 21.6 C 16.1 km/h
453 18-05-2020 13:40:00 21.7 C 8.2 g/m*3 21.7 C 11.3 km/h
454 18-05-2020 13:45:00 22.1 C 8.39 g/m*3 22.1 C 14.5 km/h
455 18-05-2020 13:50:00 22.2 C 8.25 g/m*3 22.2 C 14.5 km/h
456 18-05-2020 13:55:00 22.1 C 7.81 g/m*3 22.1 C 11.3 km/h
457 18-05-2020 14:00:00 22 C 8.35 g/m*3 22 C 6.4 km/h
458 18-05-2020 14:05:00 22.2 C 7.85 g/m*3 22.2 C 16.1 km/h
459 18-05-2020 14:10:00 22.4 C 8.14 g/m*3 22.4 C 11.3 km/h
460 18-05-2020 14:15:00 22.6 C 8.44 g/m*3 22.6 C 9.7 km/h
461 18-05-2020 14:20:00 22.8 C 7.92 g/m*3 22.8 C 11.3 km/h
462 18-05-2020 14:25:00 22.9 C 8.17 g/m*3 22.9 C 11.3 km/h
463 18-05-2020 14:30:00 22.8 C 8.13 g/m*3 22.8 C 9.7 km/h
464 18-05-2020 14:35:00 22.8 C 7.72 g/m*3 22.8 C 3.2 km/h
465 18-05-2020 14:40:00 23 C 8.22 g/m*3 23 C 11.3 km/h
466 18-05-2020 14:45:00 23.2 C 7.9 g/m*3 23.2 C 11.3 km/h
467 18-05-2020 14:50:00 23.4 C 8.41 g/m*3 23.4 C 6.4 km/h
468 18-05-2020 14:55:00 23.6 C 8.08 g/m*3 23.6 C 11.3 km/h
469 18-05-2020 15:00:00 23.8 C 7.96 g/m*3 23.8 C 12.9 km/h
470 18-05-2020 15:05:00 23.8 C 7.96 g/m*3 23.8 C 8.1 km/h
471 18-05-2020 15:10:00 23.7 C 8.13 g/m*3 23.7 C 4.8 km/h
472 18-05-2020 15:15:00 23.9 C 8 g/m*3 23.9 C 9.7 km/h
473 18-05-2020 15:20:00 24.2 C 8.36 g/m*3 24.2 C 17.7 km/h
474 18-05-2020 15:25:00 24.3 C 8.63 g/m*3 24.3 C 9.7 km/h
475 18-05-2020 15:30:00 24.4 C 8.23 g/m*3 24.4 C 8.1 km/h
Sensor: Nr:Datum:Temp:Abs-Feuchte:Windchill:Wind:
Aussen-T/F 476 18-05-2020 15:35:00 24.6 C 8.33 g/m*3 24.6 C 8.1 km/h
477 18-05-2020 15:40:00 24.9 C 8.47 g/m*3 24.9 C 9.7 km/h
478 18-05-2020 15:45:00 25.1 C 8.57 g/m*3 25.1 C 8.1 km/h
479 18-05-2020 15:50:00 25.2 C 8.38 g/m*3 25.2 C 9.7 km/h
480 18-05-2020 15:55:00 25.3 C 8.43 g/m*3 25.3 C 4.8 km/h
481 18-05-2020 16:00:00 25.1 C 8.33 g/m*3 25.1 C 9.7 km/h
482 18-05-2020 16:05:00 25.1 C 8.1 g/m*3 25.1 C 9.7 km/h
483 18-05-2020 16:10:00 24.9 C 8.24 g/m*3 24.9 C 9.7 km/h
484 18-05-2020 16:15:00 25.1 C 8.33 g/m*3 25.1 C 9.7 km/h
485 18-05-2020 16:20:00 25.5 C 8.29 g/m*3 25.5 C 12.9 km/h
486 18-05-2020 16:25:00 25.7 C 8.38 g/m*3 25.7 C 9.7 km/h
487 18-05-2020 16:30:00 25.8 C 8.43 g/m*3 25.8 C 9.7 km/h
488 18-05-2020 16:35:00 25.8 C 8.67 g/m*3 25.8 C 8.1 km/h
489 18-05-2020 16:40:00 26.2 C 8.62 g/m*3 26.2 C 12.9 km/h
490 18-05-2020 16:45:00 26.1 C 8.57 g/m*3 26.1 C 12.9 km/h
491 18-05-2020 16:50:00 25.9 C 8.23 g/m*3 25.9 C 6.4 km/h
492 18-05-2020 16:55:00 25.9 C 8.47 g/m*3 25.9 C 11.3 km/h
493 18-05-2020 17:00:00 25.9 C 8.23 g/m*3 25.9 C 9.7 km/h
494 18-05-2020 17:05:00 25.7 C 8.14 g/m*3 25.7 C 8.1 km/h
495 18-05-2020 17:10:00 25.8 C 8.67 g/m*3 25.8 C 6.4 km/h
496 18-05-2020 17:15:00 26 C 8.52 g/m*3 26 C 11.3 km/h
497 18-05-2020 17:20:00 26 C 8.52 g/m*3 26 C 11.3 km/h
498 18-05-2020 17:25:00 25.8 C 8.67 g/m*3 25.8 C 6.4 km/h
499 18-05-2020 17:30:00 25.9 C 8.72 g/m*3 25.9 C 12.9 km/h
500 18-05-2020 17:35:00 25.8 C 8.67 g/m*3 25.8 C 12.9 km/h
Sensor: Nr:Datum:Temp:Abs-Feuchte:Windchill:Wind:
Aussen-T/F 501 18-05-2020 17:40:00 25.9 C 8.96 g/m*3 25.9 C 6.4 km/h
502 18-05-2020 17:45:00 25.9 C 8.72 g/m*3 25.9 C 12.9 km/h
503 18-05-2020 17:50:00 25.8 C 8.91 g/m*3 25.8 C 8.1 km/h
504 18-05-2020 17:55:00 25.9 C 8.96 g/m*3 25.9 C 11.3 km/h
505 18-05-2020 18:00:00 26 C 9.01 g/m*3 26 C 9.7 km/h
506 18-05-2020 18:05:00 26.2 C 9.11 g/m*3 26.2 C 4.8 km/h
507 18-05-2020 18:10:00 26.1 C 9.06 g/m*3 26.1 C 9.7 km/h
508 18-05-2020 18:15:00 26 C 9.01 g/m*3 26 C 11.3 km/h
509 18-05-2020 18:20:00 26 C 9.01 g/m*3 26 C 11.3 km/h
510 18-05-2020 18:25:00 25.9 C 9.2 g/m*3 25.9 C 9.7 km/h
511 18-05-2020 18:30:00 25.9 C 9.2 g/m*3 25.9 C 9.7 km/h
512 18-05-2020 18:35:00 26.1 C 9.3 g/m*3 26.1 C 6.4 km/h
513 18-05-2020 18:40:00 26.2 C 9.35 g/m*3 26.2 C 9.7 km/h
514 18-05-2020 18:45:00 26.1 C 9.55 g/m*3 26.1 C 9.7 km/h
515 18-05-2020 18:50:00 26.1 C 9.55 g/m*3 26.1 C 6.4 km/h
516 18-05-2020 18:55:00 26 C 9.49 g/m*3 26 C 8.1 km/h
517 18-05-2020 19:00:00 25.9 C 9.44 g/m*3 25.9 C 9.7 km/h
518 18-05-2020 19:05:00 25.8 C 9.39 g/m*3 25.8 C 9.7 km/h
519 18-05-2020 19:10:00 25.6 C 9.28 g/m*3 25.6 C 9.7 km/h
520 18-05-2020 19:15:00 25.5 C 9.71 g/m*3 25.5 C 6.4 km/h
521 18-05-2020 19:20:00 25.1 C 9.49 g/m*3 25.1 C 11.3 km/h
522 18-05-2020 19:25:00 24.8 C 9.56 g/m*3 24.8 C 9.7 km/h
523 18-05-2020 19:30:00 24.6 C 9.68 g/m*3 24.6 C 8.1 km/h
524 18-05-2020 19:35:00 24.5 C 9.62 g/m*3 24.5 C 8.1 km/h
525 18-05-2020 19:40:00 24.3 C 9.74 g/m*3 24.3 C 8.1 km/h
Sensor: Nr:Datum:Temp:Abs-Feuchte:Windchill:Wind:
Aussen-T/F 526 18-05-2020 19:45:00 24.2 C 9.68 g/m*3 24.2 C 8.1 km/h
527 18-05-2020 19:50:00 24.1 C 9.85 g/m*3 24.1 C 4.8 km/h
528 18-05-2020 19:55:00 23.8 C 9.68 g/m*3 23.8 C 3.2 km/h
529 18-05-2020 20:00:00 23.7 C 9.84 g/m*3 23.7 C 6.4 km/h
530 18-05-2020 20:05:00 23.6 C 9.78 g/m*3 23.6 C 9.7 km/h
531 18-05-2020 20:10:00 23.4 C 9.88 g/m*3 23.4 C 4.8 km/h
532 18-05-2020 20:15:00 23.3 C 9.83 g/m*3 23.3 C 8.1 km/h
533 18-05-2020 20:20:00 23.2 C 9.98 g/m*3 23.2 C 4.8 km/h
534 18-05-2020 20:25:00 23 C 9.87 g/m*3 23 C 4.8 km/h
535 18-05-2020 20:30:00 22.8 C 9.75 g/m*3 22.8 C 6.4 km/h
536 18-05-2020 20:35:00 22.7 C 9.9 g/m*3 22.7 C 4.8 km/h
537 18-05-2020 20:40:00 22.6 C 9.84 g/m*3 22.6 C 6.4 km/h
538 18-05-2020 20:45:00 22.4 C 9.93 g/m*3 22.4 C 3.2 km/h
539 18-05-2020 20:50:00 22.2 C 10.21 g/m*3 22.2 C 1.6 km/h
540 18-05-2020 20:55:00 21.8 C 9.98 g/m*3 21.8 C 1.6 km/h
541 18-05-2020 21:00:00 21.3 C 10.25 g/m*3 21.3 C 4.8 km/h
542 18-05-2020 21:05:00 20.9 C 10.02 g/m*3 20.9 C 1.6 km/h
543 18-05-2020 21:10:00 20.6 C 10.02 g/m*3 20.6 C 0 km/h
544 18-05-2020 21:15:00 20.2 C 9.97 g/m*3 20.2 C 0 km/h
545 18-05-2020 21:20:00 19.8 C 9.91 g/m*3 19.8 C 4.8 km/h
546 18-05-2020 21:25:00 19.5 C 9.73 g/m*3 19.5 C 6.4 km/h
547 18-05-2020 21:30:00 19.2 C 9.89 g/m*3 19.2 C 3.2 km/h
548 18-05-2020 21:35:00 18.8 C 9.82 g/m*3 18.8 C 8.1 km/h
549 18-05-2020 21:40:00 18.6 C 9.71 g/m*3 18.6 C 6.4 km/h
550 18-05-2020 21:45:00 18.3 C 9.69 g/m*3 18.3 C 9.7 km/h
Sensor: Nr:Datum:Temp:Abs-Feuchte:Windchill:Wind:
Aussen-T/F 551 18-05-2020 21:50:00 18.1 C 9.73 g/m*3 18.1 C 6.4 km/h
552 18-05-2020 21:55:00 17.9 C 9.77 g/m*3 17.9 C 8.1 km/h
553 18-05-2020 22:00:00 17.7 C 9.66 g/m*3 17.7 C 6.4 km/h
554 18-05-2020 22:05:00 17.6 C 9.75 g/m*3 17.6 C 8.1 km/h
555 18-05-2020 22:10:00 17.4 C 9.63 g/m*3 17.4 C 8.1 km/h
556 18-05-2020 22:15:00 17.3 C 9.72 g/m*3 17.3 C 4.8 km/h
557 18-05-2020 22:20:00 17.2 C 9.67 g/m*3 17.2 C 6.4 km/h
558 18-05-2020 22:25:00 17.1 C 9.75 g/m*3 17.1 C 3.2 km/h
559 18-05-2020 22:30:00 17 C 9.69 g/m*3 17 C 6.4 km/h
560 18-05-2020 22:35:00 16.9 C 9.78 g/m*3 16.9 C 1.6 km/h
561 18-05-2020 22:40:00 16.8 C 9.87 g/m*3 16.8 C 3.2 km/h
562 18-05-2020 22:45:00 16.6 C 9.75 g/m*3 16.6 C 4.8 km/h
563 18-05-2020 22:50:00 16.4 C 9.77 g/m*3 16.4 C 8.1 km/h
564 18-05-2020 22:55:00 16.3 C 9.71 g/m*3 16.3 C 6.4 km/h
565 18-05-2020 23:00:00 16.2 C 9.79 g/m*3 16.2 C 6.4 km/h
566 18-05-2020 23:05:00 16.2 C 9.79 g/m*3 16.2 C 8.1 km/h
567 18-05-2020 23:10:00 16.1 C 9.73 g/m*3 16.1 C 6.4 km/h
568 18-05-2020 23:15:00 16 C 9.67 g/m*3 16 C 6.4 km/h
569 18-05-2020 23:20:00 15.9 C 9.75 g/m*3 15.9 C 4.8 km/h
570 18-05-2020 23:25:00 15.8 C 9.69 g/m*3 15.8 C 3.2 km/h
571 18-05-2020 23:30:00 15.7 C 9.77 g/m*3 15.7 C 3.2 km/h
572 18-05-2020 23:35:00 15.4 C 9.59 g/m*3 15.4 C 6.4 km/h
573 18-05-2020 23:40:00 15.3 C 9.53 g/m*3 15.3 C 6.4 km/h
574 18-05-2020 23:45:00 15.3 C 9.66 g/m*3 15.3 C 4.8 km/h
575 18-05-2020 23:50:00 15.2 C 9.61 g/m*3 15.2 C 1.6 km/h
Sensor: Nr:Datum:Temp:Abs-Feuchte:Windchill:Wind:
Aussen-T/F 576 18-05-2020 23:55:00 15.2 C 9.61 g/m*3 15.2 C 0 km/h
577 19-05-2020 00:00:00 15 C 9.62 g/m*3 15 C 1.6 km/h
578 19-05-2020 00:05:00 14.8 C 9.5 g/m*3 14.8 C 1.6 km/h
579 19-05-2020 00:10:00 14.6 C 9.51 g/m*3 14.6 C 0 km/h
580 19-05-2020 00:15:00 14.4 C 9.39 g/m*3 14.4 C 0 km/h
581 19-05-2020 00:20:00 14.1 C 9.22 g/m*3 14.1 C 0 km/h
582 19-05-2020 00:25:00 13.9 C 9.23 g/m*3 13.9 C 0 km/h
583 19-05-2020 00:30:00 13.7 C 9.24 g/m*3 13.7 C 0 km/h
584 19-05-2020 00:35:00 13.4 C 9.18 g/m*3 13.4 C 0 km/h
585 19-05-2020 00:40:00 13.3 C 9.13 g/m*3 13.3 C 0 km/h
586 19-05-2020 00:45:00 13.2 C 9.19 g/m*3 13.2 C 0 km/h
587 19-05-2020 00:50:00 13 C 9.07 g/m*3 13 C 0 km/h
588 19-05-2020 00:55:00 12.9 C 9.02 g/m*3 12.9 C 0 km/h
589 19-05-2020 01:00:00 12.7 C 9.02 g/m*3 12.7 C 1.6 km/h
590 19-05-2020 01:05:00 12.6 C 9.07 g/m*3 12.6 C 3.2 km/h
591 19-05-2020 01:10:00 12.4 C 8.96 g/m*3 12.4 C 1.6 km/h
592 19-05-2020 01:15:00 12.3 C 9.01 g/m*3 12.3 C 4.8 km/h
593 19-05-2020 01:20:00 12.2 C 8.96 g/m*3 12.2 C 0 km/h
594 19-05-2020 01:25:00 12.1 C 9.01 g/m*3 12.1 C 1.6 km/h
595 19-05-2020 01:30:00 12 C 8.95 g/m*3 12 C 0 km/h
596 19-05-2020 01:35:00 11.9 C 9 g/m*3 11.9 C 4.8 km/h
597 19-05-2020 01:40:00 11.9 C 9 g/m*3 11.9 C 3.2 km/h
598 19-05-2020 01:45:00 11.8 C 8.95 g/m*3 11.8 C 0 km/h
599 19-05-2020 01:50:00 11.6 C 8.83 g/m*3 11.6 C 3.2 km/h
600 19-05-2020 01:55:00 11.5 C 8.78 g/m*3 11.5 C 0 km/h
Sensor: Nr:Datum:Temp:Abs-Feuchte:Windchill:Wind:
Aussen-T/F 601 19-05-2020 02:00:00 11.5 C 8.78 g/m*3 11.5 C 4.8 km/h
602 19-05-2020 02:05:00 11.4 C 8.72 g/m*3 11.4 C 3.2 km/h
603 19-05-2020 02:10:00 11.3 C 8.57 g/m*3 11.3 C 0 km/h
604 19-05-2020 02:15:00 11.3 C 8.67 g/m*3 11.3 C 3.2 km/h
605 19-05-2020 02:20:00 11.2 C 8.62 g/m*3 11.2 C 0 km/h
606 19-05-2020 02:25:00 11.2 C 8.62 g/m*3 11.2 C 0 km/h
607 19-05-2020 02:30:00 11.1 C 8.56 g/m*3 11.1 C 0 km/h
608 19-05-2020 02:35:00 10.9 C 8.45 g/m*3 10.9 C 1.6 km/h
609 19-05-2020 02:40:00 10.8 C 8.4 g/m*3 10.8 C 0 km/h
610 19-05-2020 02:45:00 10.7 C 8.35 g/m*3 10.7 C 0 km/h
611 19-05-2020 02:50:00 10.6 C 8.3 g/m*3 10.6 C 0 km/h
612 19-05-2020 02:55:00 10.4 C 8.29 g/m*3 10.4 C 0 km/h
613 19-05-2020 03:00:00 10.4 C 8.29 g/m*3 10.4 C 0 km/h
614 19-05-2020 03:05:00 10.3 C 8.33 g/m*3 10.3 C 0 km/h
615 19-05-2020 03:10:00 10.2 C 8.28 g/m*3 10.2 C 0 km/h
616 19-05-2020 03:15:00 10.1 C 8.23 g/m*3 10.1 C 0 km/h
617 19-05-2020 03:20:00 9.9 C 8.12 g/m*3 9.9 C 0 km/h
618 19-05-2020 03:25:00 9.8 C 8.16 g/m*3 9.8 C 0 km/h
619 19-05-2020 03:30:00 9.7 C 8.11 g/m*3 9.7 C 0 km/h
620 19-05-2020 03:35:00 9.7 C 8.11 g/m*3 9.7 C 0 km/h
621 19-05-2020 03:40:00 9.6 C 8.15 g/m*3 9.6 C 0 km/h
622 19-05-2020 03:45:00 9.5 C 8.1 g/m*3 9.5 C 0 km/h
623 19-05-2020 03:50:00 9.4 C 8.05 g/m*3 9.4 C 0 km/h
624 19-05-2020 03:55:00 9.3 C 8 g/m*3 9.3 C 0 km/h
625 19-05-2020 04:00:00 9.2 C 7.95 g/m*3 9.2 C 0 km/h
Sensor: Nr:Datum:Temp:Abs-Feuchte:Windchill:Wind:
Aussen-T/F 626 19-05-2020 04:05:00 9.1 C 7.99 g/m*3 9.1 C 0 km/h
627 19-05-2020 04:10:00 9 C 7.93 g/m*3 9 C 1.6 km/h
628 19-05-2020 04:15:00 8.9 C 7.88 g/m*3 8.9 C 0 km/h
629 19-05-2020 04:20:00 8.9 C 7.88 g/m*3 8.9 C 0 km/h
630 19-05-2020 04:25:00 8.9 C 7.97 g/m*3 8.9 C 1.6 km/h
631 19-05-2020 04:30:00 8.8 C 7.92 g/m*3 8.8 C 3.2 km/h
632 19-05-2020 04:35:00 8.9 C 7.97 g/m*3 8.9 C 1.6 km/h
633 19-05-2020 04:40:00 8.8 C 7.92 g/m*3 8.8 C 4.8 km/h
634 19-05-2020 04:45:00 8.8 C 7.92 g/m*3 8.8 C 1.6 km/h
635 19-05-2020 04:50:00 8.7 C 7.87 g/m*3 8.7 C 0 km/h
636 19-05-2020 04:55:00 8.7 C 7.78 g/m*3 8.7 C 3.2 km/h
637 19-05-2020 05:00:00 8.7 C 7.78 g/m*3 8.7 C 1.6 km/h
638 19-05-2020 05:05:00 8.7 C 7.87 g/m*3 8.7 C 0 km/h
639 19-05-2020 05:10:00 8.6 C 7.73 g/m*3 8.6 C 0 km/h
640 19-05-2020 05:15:00 8.4 C 7.63 g/m*3 8.4 C 0 km/h
641 19-05-2020 05:20:00 8.3 C 7.59 g/m*3 8.3 C 0 km/h
642 19-05-2020 05:25:00 8.3 C 7.59 g/m*3 8.3 C 1.6 km/h
643 19-05-2020 05:30:00 8.2 C 7.62 g/m*3 8.2 C 3.2 km/h
644 19-05-2020 05:35:00 8.2 C 7.62 g/m*3 8.2 C 0 km/h
645 19-05-2020 05:40:00 8.1 C 7.57 g/m*3 8.1 C 0 km/h
646 19-05-2020 05:45:00 8.1 C 7.57 g/m*3 8.1 C 0 km/h
647 19-05-2020 05:50:00 8.1 C 7.57 g/m*3 8.1 C 0 km/h
648 19-05-2020 05:55:00 8.1 C 7.57 g/m*3 8.1 C 1.6 km/h
649 19-05-2020 06:00:00 8.1 C 7.57 g/m*3 8.1 C 0 km/h
650 19-05-2020 06:05:00 8 C 7.52 g/m*3 8 C 3.2 km/h
Sensor: Nr:Datum:Temp:Abs-Feuchte:Windchill:Wind:
Aussen-T/F 651 19-05-2020 06:10:00 8.1 C 7.66 g/m*3 8.1 C 0 km/h
652 19-05-2020 06:15:00 8.1 C 7.66 g/m*3 8.1 C 0 km/h
653 19-05-2020 06:20:00 8.2 C 7.7 g/m*3 8.2 C 1.6 km/h
654 19-05-2020 06:25:00 8.2 C 7.7 g/m*3 8.2 C 0 km/h
655 19-05-2020 06:30:00 8.2 C 7.62 g/m*3 8.2 C 0 km/h
656 19-05-2020 06:35:00 8.2 C 7.62 g/m*3 8.2 C 0 km/h
657 19-05-2020 06:40:00 8.1 C 7.57 g/m*3 8.1 C 0 km/h
658 19-05-2020 06:45:00 8.1 C 7.57 g/m*3 8.1 C 1.6 km/h
659 19-05-2020 06:50:00 8.1 C 7.57 g/m*3 8.1 C 0 km/h
660 19-05-2020 06:55:00 8.1 C 7.66 g/m*3 8.1 C 0 km/h
661 19-05-2020 07:00:00 8.1 C 7.66 g/m*3 8.1 C 1.6 km/h
662 19-05-2020 07:05:00 8.2 C 7.7 g/m*3 8.2 C 0 km/h
663 19-05-2020 07:10:00 8.2 C 7.7 g/m*3 8.2 C 0 km/h
664 19-05-2020 07:15:00 8.3 C 7.75 g/m*3 8.3 C 0 km/h
665 19-05-2020 07:20:00 8.3 C 7.75 g/m*3 8.3 C 0 km/h
666 19-05-2020 07:25:00 8.3 C 7.75 g/m*3 8.3 C 0 km/h
667 19-05-2020 07:30:00 8.3 C 7.75 g/m*3 8.3 C 0 km/h
668 19-05-2020 07:35:00 8.4 C 7.8 g/m*3 8.4 C 0 km/h
669 19-05-2020 07:40:00 8.4 C 7.8 g/m*3 8.4 C 0 km/h
670 19-05-2020 07:45:00 8.5 C 7.85 g/m*3 8.5 C 0 km/h
671 19-05-2020 07:50:00 8.6 C 7.91 g/m*3 8.6 C 0 km/h
672 19-05-2020 07:55:00 8.6 C 7.91 g/m*3 8.6 C 0 km/h
673 19-05-2020 08:00:00 8.7 C 7.96 g/m*3 8.7 C 3.2 km/h
674 19-05-2020 08:05:00 8.8 C 8.01 g/m*3 8.8 C 3.2 km/h
675 19-05-2020 08:10:00 8.8 C 8.01 g/m*3 8.8 C 0 km/h
Sensor: Nr:Datum:Temp:Abs-Feuchte:Windchill:Wind:
Aussen-T/F 676 19-05-2020 08:15:00 8.9 C 8.15 g/m*3 8.9 C 0 km/h
677 19-05-2020 08:20:00 9.1 C 8.25 g/m*3 9.1 C 0 km/h
678 19-05-2020 08:25:00 9.2 C 8.3 g/m*3 9.2 C 0 km/h
679 19-05-2020 08:30:00 9.3 C 8.36 g/m*3 9.3 C 0 km/h
680 19-05-2020 08:35:00 9.4 C 8.32 g/m*3 9.4 C 0 km/h
681 19-05-2020 08:40:00 9.6 C 8.43 g/m*3 9.6 C 0 km/h
682 19-05-2020 08:45:00 9.7 C 8.48 g/m*3 9.7 C 0 km/h
683 19-05-2020 08:50:00 9.9 C 8.59 g/m*3 9.9 C 0 km/h
684 19-05-2020 08:55:00 10.1 C 8.7 g/m*3 10.1 C 0 km/h
685 19-05-2020 09:00:00 10.2 C 8.76 g/m*3 10.2 C 0 km/h
686 19-05-2020 09:05:00 10.4 C 8.87 g/m*3 10.4 C 0 km/h
687 19-05-2020 09:10:00 10.7 C 9.04 g/m*3 10.7 C 0 km/h
688 19-05-2020 09:15:00 10.8 C 8.99 g/m*3 10.8 C 0 km/h
689 19-05-2020 09:20:00 11 C 9.11 g/m*3 11 C 0 km/h
690 19-05-2020 09:25:00 11.3 C 9.18 g/m*3 11.3 C 0 km/h
691 19-05-2020 09:30:00 11.6 C 9.25 g/m*3 11.6 C 0 km/h
692 19-05-2020 09:35:00 11.9 C 9.21 g/m*3 11.9 C 3.2 km/h
693 19-05-2020 09:40:00 12.2 C 9.17 g/m*3 12.2 C 1.6 km/h
694 19-05-2020 09:45:00 12.6 C 9.18 g/m*3 12.6 C 0 km/h
695 19-05-2020 09:50:00 12.9 C 9.24 g/m*3 12.9 C 0 km/h
696 19-05-2020 09:55:00 13.1 C 9.36 g/m*3 13.1 C 0 km/h
697 19-05-2020 10:00:00 13.2 C 9.19 g/m*3 13.2 C 0 km/h
698 19-05-2020 10:05:00 13.4 C 9.18 g/m*3 13.4 C 0 km/h
699 19-05-2020 10:10:00 13.6 C 8.83 g/m*3 13.6 C 0 km/h
700 19-05-2020 10:15:00 13.9 C 8.99 g/m*3 13.9 C 0 km/h
Sensor: Nr:Datum:Temp:Abs-Feuchte:Windchill:Wind:
Aussen-T/F 701 19-05-2020 10:20:00 14.3 C 8.97 g/m*3 14.3 C 0 km/h
702 19-05-2020 10:25:00 14.7 C 8.94 g/m*3 14.7 C 0 km/h
703 19-05-2020 10:30:00 15.1 C 8.64 g/m*3 15.1 C 3.2 km/h
704 19-05-2020 10:35:00 15.5 C 8.86 g/m*3 15.5 C 1.6 km/h
705 19-05-2020 10:40:00 15.9 C 8.4 g/m*3 15.9 C 1.6 km/h
706 19-05-2020 10:45:00 16.4 C 8.23 g/m*3 16.4 C 0 km/h
707 19-05-2020 10:50:00 16.8 C 8.01 g/m*3 16.8 C 4.8 km/h
708 19-05-2020 10:55:00 17.5 C 7.45 g/m*3 17.5 C 6.4 km/h
709 19-05-2020 11:00:00 18.1 C 7.88 g/m*3 18.1 C 1.6 km/h
710 19-05-2020 11:05:00 18.7 C 7.36 g/m*3 18.7 C 4.8 km/h
711 19-05-2020 11:10:00 19.1 C 7.54 g/m*3 19.1 C 6.4 km/h
712 19-05-2020 11:15:00 19.4 C 7.84 g/m*3 19.4 C 4.8 km/h
713 19-05-2020 11:20:00 19.7 C 7.47 g/m*3 19.7 C 4.8 km/h
714 19-05-2020 11:25:00 19.8 C 8.03 g/m*3 19.8 C 0 km/h
715 19-05-2020 11:30:00 19.8 C 7.86 g/m*3 19.8 C 1.6 km/h
716 19-05-2020 11:35:00 19.8 C 7.52 g/m*3 19.8 C 3.2 km/h
717 19-05-2020 11:40:00 19.8 C 7.69 g/m*3 19.8 C 3.2 km/h
718 19-05-2020 11:45:00 19.9 C 7.56 g/m*3 19.9 C 6.4 km/h
719 19-05-2020 11:50:00 20 C 7.43 g/m*3 20 C 8.1 km/h
720 19-05-2020 11:55:00 20.1 C 7.47 g/m*3 20.1 C 3.2 km/h
721 19-05-2020 12:00:00 20.1 C 7.65 g/m*3 20.1 C 1.6 km/h
722 19-05-2020 12:05:00 20.1 C 6.95 g/m*3 20.1 C 4.8 km/h
723 19-05-2020 12:10:00 20.2 C 6.99 g/m*3 20.2 C 6.4 km/h
724 19-05-2020 12:15:00 20.2 C 7.17 g/m*3 20.2 C 1.6 km/h
725 19-05-2020 12:20:00 20.2 C 7.17 g/m*3 20.2 C 3.2 km/h
Sensor: Nr:Datum:Temp:Abs-Feuchte:Windchill:Wind:
Aussen-T/F 726 19-05-2020 12:25:00 20.3 C 7.03 g/m*3 20.3 C 1.6 km/h
727 19-05-2020 12:30:00 20.4 C 7.08 g/m*3 20.4 C 4.8 km/h
728 19-05-2020 12:35:00 20.4 C 7.43 g/m*3 20.4 C 1.6 km/h
729 19-05-2020 12:40:00 20.4 C 7.25 g/m*3 20.4 C 1.6 km/h
730 19-05-2020 12:45:00 20.4 C 6.72 g/m*3 20.4 C 6.4 km/h
731 19-05-2020 12:50:00 20.6 C 6.62 g/m*3 20.6 C 4.8 km/h
732 19-05-2020 12:55:00 20.8 C 7.42 g/m*3 20.8 C 1.6 km/h
733 19-05-2020 13:00:00 20.9 C 7.29 g/m*3 20.9 C 4.8 km/h
734 19-05-2020 13:05:00 21 C 6.78 g/m*3 21 C 3.2 km/h
735 19-05-2020 13:10:00 21.2 C 7.23 g/m*3 21.2 C 9.7 km/h
736 19-05-2020 13:15:00 21.4 C 6.94 g/m*3 21.4 C 9.7 km/h
737 19-05-2020 13:20:00 21.7 C 7.25 g/m*3 21.7 C 9.7 km/h
738 19-05-2020 13:25:00 21.8 C 7.1 g/m*3 21.8 C 12.9 km/h
739 19-05-2020 13:30:00 22 C 7.18 g/m*3 22 C 8.1 km/h
740 19-05-2020 13:35:00 22 C 7.38 g/m*3 22 C 6.4 km/h
741 19-05-2020 13:40:00 22.1 C 7.42 g/m*3 22.1 C 12.9 km/h
742 19-05-2020 13:45:00 22.2 C 7.07 g/m*3 22.2 C 12.9 km/h
743 19-05-2020 13:50:00 22.3 C 7.11 g/m*3 22.3 C 14.5 km/h
744 19-05-2020 13:55:00 22.4 C 7.15 g/m*3 22.4 C 9.7 km/h
745 19-05-2020 14:00:00 22.4 C 7.55 g/m*3 22.4 C 4.8 km/h
746 19-05-2020 14:05:00 22.6 C 7.43 g/m*3 22.6 C 11.3 km/h
747 19-05-2020 14:10:00 23 C 7.4 g/m*3 23 C 12.9 km/h
748 19-05-2020 14:15:00 23.1 C 7.44 g/m*3 23.1 C 12.9 km/h
749 19-05-2020 14:20:00 23.1 C 7.44 g/m*3 23.1 C 12.9 km/h
750 19-05-2020 14:25:00 23.3 C 7.53 g/m*3 23.3 C 14.5 km/h
Sensor: Nr:Datum:Temp:Abs-Feuchte:Windchill:Wind:
Aussen-T/F 751 19-05-2020 14:30:00 23.3 C 7.53 g/m*3 23.3 C 11.3 km/h
752 19-05-2020 14:35:00 23.4 C 7.78 g/m*3 23.4 C 12.9 km/h
753 19-05-2020 14:40:00 23.5 C 7.61 g/m*3 23.5 C 11.3 km/h
754 19-05-2020 14:45:00 23.6 C 8.08 g/m*3 23.6 C 9.7 km/h
755 19-05-2020 14:50:00 23.7 C 8.13 g/m*3 23.7 C 11.3 km/h
756 19-05-2020 14:55:00 23.7 C 8.34 g/m*3 23.7 C 11.3 km/h
757 19-05-2020 15:00:00 23.9 C 8.65 g/m*3 23.9 C 9.7 km/h
758 19-05-2020 15:05:00 24.2 C 8.58 g/m*3 24.2 C 14.5 km/h
759 19-05-2020 15:10:00 24.2 C 8.58 g/m*3 24.2 C 16.1 km/h
760 19-05-2020 15:15:00 24.3 C 8.63 g/m*3 24.3 C 9.7 km/h
761 19-05-2020 15:20:00 24.3 C 8.41 g/m*3 24.3 C 12.9 km/h
762 19-05-2020 15:25:00 24.3 C 8.63 g/m*3 24.3 C 14.5 km/h
763 19-05-2020 15:30:00 24.3 C 8.19 g/m*3 24.3 C 11.3 km/h
764 19-05-2020 15:35:00 24.1 C 8.53 g/m*3 24.1 C 9.7 km/h
765 19-05-2020 15:40:00 24.1 C 8.53 g/m*3 24.1 C 9.7 km/h
766 19-05-2020 15:45:00 24 C 8.7 g/m*3 24 C 11.3 km/h
767 19-05-2020 15:50:00 23.9 C 8.65 g/m*3 23.9 C 9.7 km/h
768 19-05-2020 15:55:00 23.8 C 8.82 g/m*3 23.8 C 11.3 km/h
769 19-05-2020 16:00:00 24.1 C 8.97 g/m*3 24.1 C 9.7 km/h
770 19-05-2020 16:05:00 24.4 C 9.12 g/m*3 24.4 C 16.1 km/h
771 19-05-2020 16:10:00 24.5 C 8.95 g/m*3 24.5 C 12.9 km/h
772 19-05-2020 16:15:00 24.5 C 8.95 g/m*3 24.5 C 11.3 km/h
773 19-05-2020 16:20:00 24.6 C 9.23 g/m*3 24.6 C 19.3 km/h
774 19-05-2020 16:25:00 25.1 C 9.26 g/m*3 25.1 C 12.9 km/h
775 19-05-2020 16:30:00 25 C 8.98 g/m*3 25 C 14.5 km/h
Sensor: Nr:Datum:Temp:Abs-Feuchte:Windchill:Wind:
Aussen-T/F 776 19-05-2020 16:35:00 24.7 C 9.05 g/m*3 24.7 C 17.7 km/h
777 19-05-2020 16:40:00 24.8 C 9.1 g/m*3 24.8 C 16.1 km/h
778 19-05-2020 16:45:00 24.7 C 9.05 g/m*3 24.7 C 14.5 km/h
779 19-05-2020 16:50:00 24.6 C 9 g/m*3 24.6 C 16.1 km/h
780 19-05-2020 16:55:00 24.4 C 9.12 g/m*3 24.4 C 16.1 km/h
781 19-05-2020 17:00:00 24.6 C 9.45 g/m*3 24.6 C 14.5 km/h
782 19-05-2020 17:05:00 24.8 C 9.56 g/m*3 24.8 C 16.1 km/h
783 19-05-2020 17:10:00 25.1 C 9.26 g/m*3 25.1 C 17.7 km/h
784 19-05-2020 17:15:00 25 C 9.44 g/m*3 25 C 11.3 km/h
785 19-05-2020 17:20:00 25.1 C 9.72 g/m*3 25.1 C 11.3 km/h
786 19-05-2020 17:25:00 25.5 C 9.71 g/m*3 25.5 C 12.9 km/h
787 19-05-2020 17:30:00 25.8 C 9.87 g/m*3 25.8 C 11.3 km/h
788 19-05-2020 17:35:00 25.7 C 9.58 g/m*3 25.7 C 12.9 km/h
789 19-05-2020 17:40:00 25.5 C 9.71 g/m*3 25.5 C 11.3 km/h
790 19-05-2020 17:45:00 25.5 C 9.71 g/m*3 25.5 C 14.5 km/h
791 19-05-2020 17:50:00 25.3 C 9.6 g/m*3 25.3 C 17.7 km/h
792 19-05-2020 17:55:00 25.3 C 9.83 g/m*3 25.3 C 12.9 km/h
793 19-05-2020 18:00:00 25.4 C 9.65 g/m*3 25.4 C 14.5 km/h
794 19-05-2020 18:05:00 25.5 C 9.71 g/m*3 25.5 C 11.3 km/h
795 19-05-2020 18:10:00 25.5 C 9.71 g/m*3 25.5 C 14.5 km/h
796 19-05-2020 18:15:00 25.5 C 9.71 g/m*3 25.5 C 14.5 km/h
797 19-05-2020 18:20:00 25.4 C 9.65 g/m*3 25.4 C 14.5 km/h
798 19-05-2020 18:25:00 25.5 C 9.94 g/m*3 25.5 C 12.9 km/h
799 19-05-2020 18:30:00 25.4 C 9.89 g/m*3 25.4 C 12.9 km/h
800 19-05-2020 18:35:00 25.4 C 9.89 g/m*3 25.4 C 12.9 km/h
Sensor: Nr:Datum:Temp:Abs-Feuchte:Windchill:Wind:
Aussen-T/F 801 19-05-2020 18:40:00 25.4 C 9.89 g/m*3 25.4 C 11.3 km/h
802 19-05-2020 18:45:00 25.4 C 9.89 g/m*3 25.4 C 9.7 km/h
803 19-05-2020 18:50:00 25.5 C 9.94 g/m*3 25.5 C 11.3 km/h
804 19-05-2020 18:55:00 25.3 C 9.83 g/m*3 25.3 C 16.1 km/h
805 19-05-2020 19:00:00 25.2 C 10.01 g/m*3 25.2 C 8.1 km/h
806 19-05-2020 19:05:00 25.2 C 10.01 g/m*3 25.2 C 8.1 km/h
807 19-05-2020 19:10:00 25 C 9.9 g/m*3 25 C 9.7 km/h
808 19-05-2020 19:15:00 24.8 C 10.24 g/m*3 24.8 C 9.7 km/h
809 19-05-2020 19:20:00 24.6 C 9.9 g/m*3 24.6 C 9.7 km/h
810 19-05-2020 19:25:00 24.4 C 10.24 g/m*3 24.4 C 8.1 km/h
811 19-05-2020 19:30:00 24.3 C 10.18 g/m*3 24.3 C 11.3 km/h
812 19-05-2020 19:35:00 24.1 C 10.28 g/m*3 24.1 C 11.3 km/h
813 19-05-2020 19:40:00 23.9 C 10.17 g/m*3 23.9 C 11.3 km/h
814 19-05-2020 19:45:00 23.7 C 10.05 g/m*3 23.7 C 11.3 km/h
815 19-05-2020 19:50:00 23.6 C 10.21 g/m*3 23.6 C 9.7 km/h
816 19-05-2020 19:55:00 23.4 C 10.09 g/m*3 23.4 C 9.7 km/h
817 19-05-2020 20:00:00 23.3 C 10.04 g/m*3 23.3 C 8.1 km/h
818 19-05-2020 20:05:00 23.1 C 10.13 g/m*3 23.1 C 8.1 km/h
819 19-05-2020 20:10:00 22.8 C 10.16 g/m*3 22.8 C 6.4 km/h
820 19-05-2020 20:15:00 22.5 C 9.99 g/m*3 22.5 C 11.3 km/h
821 19-05-2020 20:20:00 22.4 C 10.53 g/m*3 22.4 C 6.4 km/h
822 19-05-2020 20:25:00 21.9 C 11.19 g/m*3 21.9 C 4.8 km/h
823 19-05-2020 20:30:00 21.3 C 10.81 g/m*3 21.3 C 1.6 km/h
824 19-05-2020 20:35:00 20.9 C 10.38 g/m*3 20.9 C 4.8 km/h
825 19-05-2020 20:40:00 20.8 C 10.32 g/m*3 20.8 C 6.4 km/h
Sensor: Nr:Datum:Temp:Abs-Feuchte:Windchill:Wind:
Aussen-T/F 826 19-05-2020 20:45:00 20.8 C 10.5 g/m*3 20.8 C 3.2 km/h
827 19-05-2020 20:50:00 20.8 C 10.32 g/m*3 20.8 C 4.8 km/h
828 19-05-2020 20:55:00 20.9 C 10.75 g/m*3 20.9 C 3.2 km/h
829 19-05-2020 21:00:00 20.8 C 10.86 g/m*3 20.8 C 1.6 km/h
830 19-05-2020 21:05:00 20.7 C 10.98 g/m*3 20.7 C 0 km/h
831 19-05-2020 21:10:00 20.3 C 10.73 g/m*3 20.3 C 1.6 km/h
832 19-05-2020 21:15:00 20 C 10.54 g/m*3 20 C 1.6 km/h
833 19-05-2020 21:20:00 19.7 C 10.53 g/m*3 19.7 C 1.6 km/h
834 19-05-2020 21:25:00 19.3 C 10.45 g/m*3 19.3 C 0 km/h
835 19-05-2020 21:30:00 18.9 C 10.37 g/m*3 18.9 C 3.2 km/h
836 19-05-2020 21:35:00 18.7 C 10.41 g/m*3 18.7 C 0 km/h
837 19-05-2020 21:40:00 18.4 C 10.38 g/m*3 18.4 C 1.6 km/h
838 19-05-2020 21:45:00 18.2 C 10.41 g/m*3 18.2 C 4.8 km/h
839 19-05-2020 21:50:00 17.9 C 10.23 g/m*3 17.9 C 6.4 km/h
840 19-05-2020 21:55:00 17.8 C 10.32 g/m*3 17.8 C 6.4 km/h
841 19-05-2020 22:00:00 17.6 C 10.2 g/m*3 17.6 C 6.4 km/h
842 19-05-2020 22:05:00 17.4 C 10.23 g/m*3 17.4 C 4.8 km/h
843 19-05-2020 22:10:00 17.3 C 10.31 g/m*3 17.3 C 4.8 km/h
844 19-05-2020 22:15:00 17.2 C 10.25 g/m*3 17.2 C 4.8 km/h
845 19-05-2020 22:20:00 17.1 C 10.19 g/m*3 17.1 C 3.2 km/h
846 19-05-2020 22:25:00 17.1 C 10.34 g/m*3 17.1 C 4.8 km/h
847 19-05-2020 22:30:00 16.9 C 10.07 g/m*3 16.9 C 4.8 km/h
848 19-05-2020 22:35:00 16.9 C 10.21 g/m*3 16.9 C 1.6 km/h
849 19-05-2020 22:40:00 16.8 C 10.29 g/m*3 16.8 C 3.2 km/h
850 19-05-2020 22:45:00 16.7 C 10.23 g/m*3 16.7 C 4.8 km/h
Sensor: Nr:Datum:Temp:Abs-Feuchte:Windchill:Wind:
Aussen-T/F 851 19-05-2020 22:50:00 16.6 C 10.31 g/m*3 16.6 C 3.2 km/h
852 19-05-2020 22:55:00 16.4 C 10.19 g/m*3 16.4 C 3.2 km/h
853 19-05-2020 23:00:00 16.3 C 10.27 g/m*3 16.3 C 4.8 km/h
854 19-05-2020 23:05:00 16.1 C 10.28 g/m*3 16.1 C 1.6 km/h
855 19-05-2020 23:10:00 15.9 C 10.16 g/m*3 15.9 C 3.2 km/h
856 19-05-2020 23:15:00 15.8 C 10.23 g/m*3 15.8 C 0 km/h
857 19-05-2020 23:20:00 15.7 C 10.17 g/m*3 15.7 C 0 km/h
858 19-05-2020 23:25:00 15.6 C 10.24 g/m*3 15.6 C 0 km/h
859 19-05-2020 23:30:00 15.5 C 10.18 g/m*3 15.5 C 0 km/h
860 19-05-2020 23:35:00 15.4 C 10.12 g/m*3 15.4 C 0 km/h
861 19-05-2020 23:40:00 15.3 C 10.19 g/m*3 15.3 C 0 km/h
862 19-05-2020 23:45:00 15.2 C 10.12 g/m*3 15.2 C 0 km/h
863 19-05-2020 23:50:00 15.1 C 10.19 g/m*3 15.1 C 0 km/h
864 19-05-2020 23:55:00 15.1 C 10.32 g/m*3 15.1 C 0 km/h
865 20-05-2020 00:00:00 15.1 C 10.45 g/m*3 15.1 C 0 km/h
866 20-05-2020 00:05:00 15.1 C 10.45 g/m*3 15.1 C 0 km/h
867 20-05-2020 00:10:00 15.1 C 10.45 g/m*3 15.1 C 0 km/h
868 20-05-2020 00:15:00 15.1 C 10.45 g/m*3 15.1 C 0 km/h
869 20-05-2020 00:20:00 15.1 C 10.45 g/m*3 15.1 C 0 km/h
870 20-05-2020 00:25:00 15.1 C 10.45 g/m*3 15.1 C 0 km/h
871 20-05-2020 00:30:00 15.1 C 10.45 g/m*3 15.1 C 0 km/h
872 20-05-2020 00:35:00 14.9 C 10.32 g/m*3 14.9 C 0 km/h
873 20-05-2020 00:40:00 14.8 C 10.13 g/m*3 14.8 C 0 km/h
874 20-05-2020 00:45:00 14.7 C 10.2 g/m*3 14.7 C 0 km/h
875 20-05-2020 00:50:00 14.5 C 10.07 g/m*3 14.5 C 0 km/h
Sensor: Nr:Datum:Temp:Abs-Feuchte:Windchill:Wind:
Aussen-T/F 876 20-05-2020 00:55:00 14.3 C 9.95 g/m*3 14.3 C 0 km/h
877 20-05-2020 01:00:00 14.2 C 10.01 g/m*3 14.2 C 0 km/h
878 20-05-2020 01:05:00 14.1 C 10.07 g/m*3 14.1 C 0 km/h
879 20-05-2020 01:10:00 13.9 C 9.95 g/m*3 13.9 C 0 km/h
880 20-05-2020 01:15:00 13.9 C 9.95 g/m*3 13.9 C 0 km/h
881 20-05-2020 01:20:00 13.8 C 9.89 g/m*3 13.8 C 0 km/h
882 20-05-2020 01:25:00 13.7 C 9.95 g/m*3 13.7 C 0 km/h
883 20-05-2020 01:30:00 13.6 C 9.89 g/m*3 13.6 C 0 km/h
884 20-05-2020 01:35:00 13.5 C 9.83 g/m*3 13.5 C 0 km/h
885 20-05-2020 01:40:00 13.4 C 9.88 g/m*3 13.4 C 0 km/h
886 20-05-2020 01:45:00 13.3 C 9.82 g/m*3 13.3 C 0 km/h
887 20-05-2020 01:50:00 13.3 C 9.82 g/m*3 13.3 C 0 km/h
888 20-05-2020 01:55:00 13.2 C 9.76 g/m*3 13.2 C 0 km/h
889 20-05-2020 02:00:00 13.1 C 9.7 g/m*3 13.1 C 0 km/h
890 20-05-2020 02:05:00 13 C 9.75 g/m*3 13 C 0 km/h
891 20-05-2020 02:10:00 12.9 C 9.69 g/m*3 12.9 C 0 km/h
892 20-05-2020 02:15:00 12.9 C 9.81 g/m*3 12.9 C 0 km/h
893 20-05-2020 02:20:00 12.8 C 9.74 g/m*3 12.8 C 0 km/h
894 20-05-2020 02:25:00 12.8 C 9.74 g/m*3 12.8 C 0 km/h
895 20-05-2020 02:30:00 12.8 C 9.74 g/m*3 12.8 C 0 km/h
896 20-05-2020 02:35:00 12.8 C 9.74 g/m*3 12.8 C 1.6 km/h
897 20-05-2020 02:40:00 12.8 C 9.74 g/m*3 12.8 C 0 km/h
898 20-05-2020 02:45:00 12.7 C 9.68 g/m*3 12.7 C 0 km/h
899 20-05-2020 02:50:00 12.7 C 9.68 g/m*3 12.7 C 3.2 km/h
900 20-05-2020 02:55:00 12.6 C 9.74 g/m*3 12.6 C 0 km/h
Sensor: Nr:Datum:Temp:Abs-Feuchte:Windchill:Wind:
Aussen-T/F 901 20-05-2020 03:00:00 12.6 C 9.74 g/m*3 12.6 C 0 km/h
902 20-05-2020 03:05:00 12.5 C 9.68 g/m*3 12.5 C 0 km/h
903 20-05-2020 03:10:00 12.4 C 9.62 g/m*3 12.4 C 0 km/h
904 20-05-2020 03:15:00 12.3 C 9.56 g/m*3 12.3 C 0 km/h
905 20-05-2020 03:20:00 12.3 C 9.56 g/m*3 12.3 C 0 km/h
906 20-05-2020 03:25:00 12.2 C 9.6 g/m*3 12.2 C 0 km/h
907 20-05-2020 03:30:00 12.2 C 9.6 g/m*3 12.2 C 4.8 km/h
908 20-05-2020 03:35:00 12.2 C 9.6 g/m*3 12.2 C 1.6 km/h
909 20-05-2020 03:40:00 12.1 C 9.54 g/m*3 12.1 C 0 km/h
910 20-05-2020 03:45:00 12.1 C 9.54 g/m*3 12.1 C 1.6 km/h
911 20-05-2020 03:50:00 12.1 C 9.65 g/m*3 12.1 C 3.2 km/h
912 20-05-2020 03:55:00 12.1 C 9.65 g/m*3 12.1 C 8.1 km/h
913 20-05-2020 04:00:00 12.1 C 9.65 g/m*3 12.1 C 3.2 km/h
914 20-05-2020 04:05:00 12.1 C 9.65 g/m*3 12.1 C 0 km/h
915 20-05-2020 04:10:00 12.1 C 9.65 g/m*3 12.1 C 0 km/h
916 20-05-2020 04:15:00 12 C 9.59 g/m*3 12 C 0 km/h
917 20-05-2020 04:20:00 11.9 C 9.53 g/m*3 11.9 C 0 km/h
918 20-05-2020 04:25:00 11.8 C 9.47 g/m*3 11.8 C 1.6 km/h
919 20-05-2020 04:30:00 11.8 C 9.58 g/m*3 11.8 C 8.1 km/h
920 20-05-2020 04:35:00 11.9 C 9.64 g/m*3 11.9 C 8.1 km/h
921 20-05-2020 04:40:00 11.9 C 9.64 g/m*3 11.9 C 3.2 km/h
922 20-05-2020 04:45:00 11.9 C 9.64 g/m*3 11.9 C 3.2 km/h
923 20-05-2020 04:50:00 11.8 C 9.47 g/m*3 11.8 C 0 km/h
924 20-05-2020 04:55:00 11.7 C 9.41 g/m*3 11.7 C 0 km/h
925 20-05-2020 05:00:00 11.6 C 9.35 g/m*3 11.6 C 0 km/h
Sensor: Nr:Datum:Temp:Abs-Feuchte:Windchill:Wind:
Aussen-T/F 926 20-05-2020 05:05:00 11.4 C 9.24 g/m*3 11.4 C 0 km/h
927 20-05-2020 05:10:00 11.3 C 9.28 g/m*3 11.3 C 0 km/h
928 20-05-2020 05:15:00 11.3 C 9.28 g/m*3 11.3 C 1.6 km/h
929 20-05-2020 05:20:00 11.3 C 9.28 g/m*3 11.3 C 0 km/h
930 20-05-2020 05:25:00 11.2 C 9.22 g/m*3 11.2 C 0 km/h
931 20-05-2020 05:30:00 11.2 C 9.22 g/m*3 11.2 C 0 km/h
932 20-05-2020 05:35:00 11.2 C 9.33 g/m*3 11.2 C 0 km/h
933 20-05-2020 05:40:00 11.2 C 9.33 g/m*3 11.2 C 0 km/h
934 20-05-2020 05:45:00 11.3 C 9.38 g/m*3 11.3 C 0 km/h
935 20-05-2020 05:50:00 11.3 C 9.38 g/m*3 11.3 C 0 km/h
936 20-05-2020 05:55:00 11.3 C 9.38 g/m*3 11.3 C 1.6 km/h
937 20-05-2020 06:00:00 11.3 C 9.38 g/m*3 11.3 C 1.6 km/h
938 20-05-2020 06:05:00 11.4 C 9.44 g/m*3 11.4 C 0 km/h
939 20-05-2020 06:10:00 11.4 C 9.44 g/m*3 11.4 C 0 km/h
940 20-05-2020 06:15:00 11.4 C 9.44 g/m*3 11.4 C 0 km/h
941 20-05-2020 06:20:00 11.4 C 9.44 g/m*3 11.4 C 0 km/h
942 20-05-2020 06:25:00 11.4 C 9.44 g/m*3 11.4 C 0 km/h
943 20-05-2020 06:30:00 11.4 C 9.44 g/m*3 11.4 C 0 km/h
944 20-05-2020 06:35:00 11.4 C 9.44 g/m*3 11.4 C 0 km/h
945 20-05-2020 06:40:00 11.5 C 9.61 g/m*3 11.5 C 0 km/h
946 20-05-2020 06:45:00 11.6 C 9.67 g/m*3 11.6 C 0 km/h
947 20-05-2020 06:50:00 11.6 C 9.56 g/m*3 11.6 C 0 km/h
948 20-05-2020 06:55:00 11.6 C 9.56 g/m*3 11.6 C 0 km/h
949 20-05-2020 07:00:00 11.6 C 9.56 g/m*3 11.6 C 0 km/h
950 20-05-2020 07:05:00 11.6 C 9.56 g/m*3 11.6 C 0 km/h
Sensor: Nr:Datum:Temp:Abs-Feuchte:Windchill:Wind:
Aussen-T/F 951 20-05-2020 07:10:00 11.6 C 9.56 g/m*3 11.6 C 1.6 km/h
952 20-05-2020 07:15:00 11.7 C 9.73 g/m*3 11.7 C 0 km/h
953 20-05-2020 07:20:00 11.7 C 9.73 g/m*3 11.7 C 4.8 km/h
954 20-05-2020 07:25:00 11.8 C 9.79 g/m*3 11.8 C 0 km/h
955 20-05-2020 07:30:00 11.8 C 9.79 g/m*3 11.8 C 4.8 km/h
956 20-05-2020 07:35:00 12 C 9.91 g/m*3 12 C 3.2 km/h
957 20-05-2020 07:40:00 12.2 C 10.04 g/m*3 12.2 C 3.2 km/h
958 20-05-2020 07:45:00 12.3 C 10.21 g/m*3 12.3 C 1.6 km/h
959 20-05-2020 07:50:00 12.6 C 10.4 g/m*3 12.6 C 1.6 km/h
960 20-05-2020 07:55:00 12.8 C 10.42 g/m*3 12.8 C 6.4 km/h
961 20-05-2020 08:00:00 13.1 C 10.61 g/m*3 13.1 C 3.2 km/h
962 20-05-2020 08:05:00 13.2 C 10.68 g/m*3 13.2 C 0 km/h
963 20-05-2020 08:10:00 13.4 C 10.81 g/m*3 13.4 C 9.7 km/h
964 20-05-2020 08:15:00 13.8 C 10.84 g/m*3 13.8 C 9.7 km/h
965 20-05-2020 08:20:00 14.3 C 10.93 g/m*3 14.3 C 6.4 km/h
966 20-05-2020 08:25:00 14.7 C 10.95 g/m*3 14.7 C 6.4 km/h
967 20-05-2020 08:30:00 15.2 C 11.03 g/m*3 15.2 C 9.7 km/h
968 20-05-2020 08:35:00 15.6 C 11.17 g/m*3 15.6 C 9.7 km/h
969 20-05-2020 08:40:00 15.8 C 11.17 g/m*3 15.8 C 6.4 km/h
970 20-05-2020 08:45:00 15.9 C 11.1 g/m*3 15.9 C 9.7 km/h
971 20-05-2020 08:50:00 16.1 C 11.1 g/m*3 16.1 C 6.4 km/h
972 20-05-2020 08:55:00 16.3 C 11.24 g/m*3 16.3 C 9.7 km/h
973 20-05-2020 09:00:00 16.4 C 11.17 g/m*3 16.4 C 8.1 km/h
974 20-05-2020 09:05:00 16.5 C 11.23 g/m*3 16.5 C 9.7 km/h
975 20-05-2020 09:10:00 16.6 C 11.16 g/m*3 16.6 C 8.1 km/h
Sensor: Nr:Datum:Temp:Abs-Feuchte:Windchill:Wind:
Aussen-T/F 976 20-05-2020 09:15:00 16.7 C 11.23 g/m*3 16.7 C 6.4 km/h
977 20-05-2020 09:20:00 16.8 C 11.29 g/m*3 16.8 C 9.7 km/h
978 20-05-2020 09:25:00 16.9 C 11.22 g/m*3 16.9 C 12.9 km/h
979 20-05-2020 09:30:00 17.1 C 11.35 g/m*3 17.1 C 6.4 km/h
980 20-05-2020 09:35:00 17.1 C 11.21 g/m*3 17.1 C 8.1 km/h
981 20-05-2020 09:40:00 17.2 C 11.28 g/m*3 17.2 C 4.8 km/h
982 20-05-2020 09:45:00 17.3 C 11.34 g/m*3 17.3 C 4.8 km/h
983 20-05-2020 09:50:00 17.4 C 11.26 g/m*3 17.4 C 11.3 km/h
984 20-05-2020 09:55:00 17.6 C 11.25 g/m*3 17.6 C 9.7 km/h
985 20-05-2020 10:00:00 17.7 C 11.32 g/m*3 17.7 C 9.7 km/h
986 20-05-2020 10:05:00 17.8 C 11.23 g/m*3 17.8 C 14.5 km/h
987 20-05-2020 10:10:00 18 C 11.37 g/m*3 18 C 8.1 km/h
988 20-05-2020 10:15:00 18.3 C 11.57 g/m*3 18.3 C 8.1 km/h
989 20-05-2020 10:20:00 18.5 C 11.39 g/m*3 18.5 C 8.1 km/h
990 20-05-2020 10:25:00 18.6 C 11.3 g/m*3 18.6 C 8.1 km/h
991 20-05-2020 10:30:00 18.8 C 11.43 g/m*3 18.8 C 8.1 km/h
992 20-05-2020 10:35:00 18.9 C 11.5 g/m*3 18.9 C 8.1 km/h
993 20-05-2020 10:40:00 19 C 11.57 g/m*3 19 C 9.7 km/h
994 20-05-2020 10:45:00 19.2 C 11.71 g/m*3 19.2 C 6.4 km/h
995 20-05-2020 10:50:00 19.2 C 11.54 g/m*3 19.2 C 6.4 km/h
996 20-05-2020 10:55:00 19.3 C 11.61 g/m*3 19.3 C 11.3 km/h
997 20-05-2020 11:00:00 19.4 C 11.51 g/m*3 19.4 C 9.7 km/h
998 20-05-2020 11:05:00 19.4 C 11.35 g/m*3 19.4 C 6.4 km/h
999 20-05-2020 11:10:00 19.6 C 11.48 g/m*3 19.6 C 9.7 km/h
1000 20-05-2020 11:15:00 19.7 C 11.55 g/m*3 19.7 C 12.9 km/h
Sensor: Nr:Datum:Temp:Abs-Feuchte:Windchill:Wind:
Aussen-T/F 1001 20-05-2020 11:20:00 19.7 C 11.55 g/m*3 19.7 C 9.7 km/h
1002 20-05-2020 11:25:00 19.7 C 11.38 g/m*3 19.7 C 9.7 km/h
1003 20-05-2020 11:30:00 19.7 C 11.55 g/m*3 19.7 C 8.1 km/h
1004 20-05-2020 11:35:00 19.6 C 11.48 g/m*3 19.6 C 14.5 km/h
1005 20-05-2020 11:40:00 19.6 C 11.48 g/m*3 19.6 C 11.3 km/h
1006 20-05-2020 11:45:00 19.6 C 11.48 g/m*3 19.6 C 11.3 km/h
1007 20-05-2020 11:50:00 19.6 C 11.65 g/m*3 19.6 C 9.7 km/h
1008 20-05-2020 11:55:00 19.7 C 11.55 g/m*3 19.7 C 9.7 km/h
1009 20-05-2020 12:00:00 19.8 C 11.44 g/m*3 19.8 C 9.7 km/h
1010 20-05-2020 12:05:00 19.9 C 11.51 g/m*3 19.9 C 4.8 km/h
1011 20-05-2020 12:10:00 20.1 C 11.47 g/m*3 20.1 C 8.1 km/h
1012 20-05-2020 12:15:00 20.1 C 11.65 g/m*3 20.1 C 11.3 km/h
1013 20-05-2020 12:20:00 20.2 C 11.71 g/m*3 20.2 C 4.8 km/h
1014 20-05-2020 12:25:00 20.3 C 11.43 g/m*3 20.3 C 14.5 km/h
1015 20-05-2020 12:30:00 20.3 C 11.61 g/m*3 20.3 C 9.7 km/h
1016 20-05-2020 12:35:00 20.2 C 11.54 g/m*3 20.2 C 6.4 km/h
1017 20-05-2020 12:40:00 20.3 C 11.43 g/m*3 20.3 C 9.7 km/h
1018 20-05-2020 12:45:00 20.5 C 11.57 g/m*3 20.5 C 12.9 km/h
1019 20-05-2020 12:50:00 20.6 C 11.45 g/m*3 20.6 C 11.3 km/h
1020 20-05-2020 12:55:00 20.7 C 11.52 g/m*3 20.7 C 14.5 km/h
1021 20-05-2020 13:00:00 20.8 C 11.59 g/m*3 20.8 C 9.7 km/h
1022 20-05-2020 13:05:00 21.1 C 11.79 g/m*3 21.1 C 12.9 km/h
1023 20-05-2020 13:10:00 21 C 11.36 g/m*3 21 C 11.3 km/h
1024 20-05-2020 13:15:00 20.9 C 11.47 g/m*3 20.9 C 8.1 km/h
1025 20-05-2020 13:20:00 21.1 C 11.42 g/m*3 21.1 C 14.5 km/h
Sensor: Nr:Datum:Temp:Abs-Feuchte:Windchill:Wind:
Aussen-T/F 1026 20-05-2020 13:25:00 21.2 C 11.49 g/m*3 21.2 C 6.4 km/h
1027 20-05-2020 13:30:00 21.3 C 11.56 g/m*3 21.3 C 9.7 km/h
1028 20-05-2020 13:35:00 21.3 C 11.37 g/m*3 21.3 C 12.9 km/h
1029 20-05-2020 13:40:00 21.2 C 11.3 g/m*3 21.2 C 9.7 km/h
1030 20-05-2020 13:45:00 21.2 C 11.12 g/m*3 21.2 C 14.5 km/h
1031 20-05-2020 13:50:00 21.3 C 11.37 g/m*3 21.3 C 14.5 km/h
1032 20-05-2020 13:55:00 21.4 C 11.25 g/m*3 21.4 C 11.3 km/h
1033 20-05-2020 14:00:00 21.3 C 11.37 g/m*3 21.3 C 12.9 km/h
1034 20-05-2020 14:05:00 21.4 C 11.44 g/m*3 21.4 C 12.9 km/h
1035 20-05-2020 14:10:00 21.4 C 11.25 g/m*3 21.4 C 16.1 km/h
1036 20-05-2020 14:15:00 21.6 C 11.38 g/m*3 21.6 C 8.1 km/h
1037 20-05-2020 14:20:00 21.7 C 11.25 g/m*3 21.7 C 12.9 km/h
1038 20-05-2020 14:25:00 21.7 C 11.45 g/m*3 21.7 C 11.3 km/h
1039 20-05-2020 14:30:00 21.8 C 11.51 g/m*3 21.8 C 14.5 km/h
1040 20-05-2020 14:35:00 22.1 C 11.52 g/m*3 22.1 C 12.9 km/h
1041 20-05-2020 14:40:00 22.3 C 11.65 g/m*3 22.3 C 12.9 km/h
1042 20-05-2020 14:45:00 22.6 C 11.65 g/m*3 22.6 C 8.1 km/h
1043 20-05-2020 14:50:00 22.5 C 11.39 g/m*3 22.5 C 14.5 km/h
1044 20-05-2020 14:55:00 22.3 C 11.45 g/m*3 22.3 C 9.7 km/h
1045 20-05-2020 15:00:00 22.3 C 11.85 g/m*3 22.3 C 12.9 km/h
1046 20-05-2020 15:05:00 22.4 C 11.52 g/m*3 22.4 C 9.7 km/h
1047 20-05-2020 15:10:00 22.5 C 11.58 g/m*3 22.5 C 4.8 km/h
1048 20-05-2020 15:15:00 22.6 C 11.45 g/m*3 22.6 C 12.9 km/h
1049 20-05-2020 15:20:00 22.8 C 11.38 g/m*3 22.8 C 8.1 km/h
1050 20-05-2020 15:25:00 22.9 C 11.65 g/m*3 22.9 C 11.3 km/h
Sensor: Nr:Datum:Temp:Abs-Feuchte:Windchill:Wind:
Aussen-T/F 1051 20-05-2020 15:30:00 23.3 C 11.71 g/m*3 23.3 C 9.7 km/h
1052 20-05-2020 15:35:00 23.7 C 11.34 g/m*3 23.7 C 12.9 km/h
1053 20-05-2020 15:40:00 23.8 C 11.19 g/m*3 23.8 C 4.8 km/h
1054 20-05-2020 15:45:00 23.9 C 11.25 g/m*3 23.9 C 9.7 km/h
1055 20-05-2020 15:50:00 24.2 C 11.44 g/m*3 24.2 C 9.7 km/h
1056 20-05-2020 15:55:00 24.3 C 11.51 g/m*3 24.3 C 11.3 km/h
1057 20-05-2020 16:00:00 24.4 C 11.35 g/m*3 24.4 C 11.3 km/h
1058 20-05-2020 16:05:00 24.5 C 11.41 g/m*3 24.5 C 12.9 km/h
1059 20-05-2020 16:10:00 24.6 C 11.48 g/m*3 24.6 C 8.1 km/h
1060 20-05-2020 16:15:00 24.7 C 11.09 g/m*3 24.7 C 12.9 km/h
1061 20-05-2020 16:20:00 24.4 C 10.9 g/m*3 24.4 C 12.9 km/h
1062 20-05-2020 16:25:00 24.1 C 10.94 g/m*3 24.1 C 14.5 km/h
1063 20-05-2020 16:30:00 23.7 C 11.12 g/m*3 23.7 C 16.1 km/h
1064 20-05-2020 16:35:00 23.8 C 11.19 g/m*3 23.8 C 11.3 km/h
1065 20-05-2020 16:40:00 24.3 C 11.06 g/m*3 24.3 C 6.4 km/h
1066 20-05-2020 16:45:00 24.2 C 11 g/m*3 24.2 C 14.5 km/h
1067 20-05-2020 16:50:00 24.1 C 10.94 g/m*3 24.1 C 9.7 km/h
1068 20-05-2020 16:55:00 24.2 C 11 g/m*3 24.2 C 12.9 km/h
1069 20-05-2020 17:00:00 24.4 C 11.13 g/m*3 24.4 C 6.4 km/h
1070 20-05-2020 17:05:00 24.8 C 11.15 g/m*3 24.8 C 19.3 km/h
1071 20-05-2020 17:10:00 25.1 C 11.34 g/m*3 25.1 C 19.3 km/h
1072 20-05-2020 17:15:00 24.9 C 10.99 g/m*3 24.9 C 16.1 km/h
1073 20-05-2020 17:20:00 24.4 C 11.13 g/m*3 24.4 C 11.3 km/h
1074 20-05-2020 17:25:00 24.3 C 11.29 g/m*3 24.3 C 8.1 km/h
1075 20-05-2020 17:30:00 24.2 C 11 g/m*3 24.2 C 6.4 km/h
Sensor: Nr:Datum:Temp:Abs-Feuchte:Windchill:Wind:
Aussen-T/F 1076 20-05-2020 17:35:00 24.4 C 10.9 g/m*3 24.4 C 9.7 km/h
1077 20-05-2020 17:40:00 24.6 C 10.8 g/m*3 24.6 C 12.9 km/h
1078 20-05-2020 17:45:00 24.4 C 10.9 g/m*3 24.4 C 9.7 km/h
1079 20-05-2020 17:50:00 24.5 C 11.19 g/m*3 24.5 C 8.1 km/h
1080 20-05-2020 17:55:00 24.3 C 10.62 g/m*3 24.3 C 12.9 km/h
1081 20-05-2020 18:00:00 24.2 C 10.56 g/m*3 24.2 C 9.7 km/h
1082 20-05-2020 18:05:00 24.3 C 11.06 g/m*3 24.3 C 8.1 km/h
1083 20-05-2020 18:10:00 24.6 C 10.8 g/m*3 24.6 C 9.7 km/h
1084 20-05-2020 18:15:00 24.4 C 10.9 g/m*3 24.4 C 9.7 km/h
1085 20-05-2020 18:20:00 24.4 C 10.9 g/m*3 24.4 C 8.1 km/h
1086 20-05-2020 18:25:00 24.5 C 10.97 g/m*3 24.5 C 8.1 km/h
1087 20-05-2020 18:30:00 24.6 C 11.03 g/m*3 24.6 C 9.7 km/h
1088 20-05-2020 18:35:00 24.6 C 10.8 g/m*3 24.6 C 8.1 km/h
1089 20-05-2020 18:40:00 24.6 C 10.8 g/m*3 24.6 C 4.8 km/h
1090 20-05-2020 18:45:00 24.8 C 10.7 g/m*3 24.8 C 8.1 km/h
1091 20-05-2020 18:50:00 24.8 C 10.93 g/m*3 24.8 C 6.4 km/h
1092 20-05-2020 18:55:00 24.4 C 10.68 g/m*3 24.4 C 14.5 km/h
1093 20-05-2020 19:00:00 24.1 C 10.72 g/m*3 24.1 C 9.7 km/h
1094 20-05-2020 19:05:00 24.2 C 11 g/m*3 24.2 C 8.1 km/h
1095 20-05-2020 19:10:00 24.1 C 10.94 g/m*3 24.1 C 6.4 km/h
1096 20-05-2020 19:15:00 24 C 10.88 g/m*3 24 C 9.7 km/h
1097 20-05-2020 19:20:00 23.8 C 10.76 g/m*3 23.8 C 8.1 km/h
1098 20-05-2020 19:25:00 23.7 C 10.69 g/m*3 23.7 C 8.1 km/h
1099 20-05-2020 19:30:00 23.5 C 10.79 g/m*3 23.5 C 11.3 km/h
1100 20-05-2020 19:35:00 23.3 C 10.66 g/m*3 23.3 C 11.3 km/h
Sensor: Nr:Datum:Temp:Abs-Feuchte:Windchill:Wind:
Aussen-T/F 1101 20-05-2020 19:40:00 23.2 C 10.81 g/m*3 23.2 C 8.1 km/h
1102 20-05-2020 19:45:00 23 C 10.89 g/m*3 23 C 9.7 km/h
1103 20-05-2020 19:50:00 22.9 C 10.83 g/m*3 22.9 C 9.7 km/h
1104 20-05-2020 19:55:00 22.8 C 10.77 g/m*3 22.8 C 6.4 km/h
1105 20-05-2020 20:00:00 22.8 C 10.77 g/m*3 22.8 C 6.4 km/h
1106 20-05-2020 20:05:00 22.7 C 10.71 g/m*3 22.7 C 6.4 km/h
1107 20-05-2020 20:10:00 22.4 C 10.72 g/m*3 22.4 C 4.8 km/h
1108 20-05-2020 20:15:00 22.3 C 10.86 g/m*3 22.3 C 6.4 km/h
1109 20-05-2020 20:20:00 22.2 C 10.8 g/m*3 22.2 C 6.4 km/h
1110 20-05-2020 20:25:00 22 C 10.67 g/m*3 22 C 3.2 km/h
1111 20-05-2020 20:30:00 21.9 C 10.61 g/m*3 21.9 C 4.8 km/h
1112 20-05-2020 20:35:00 21.7 C 10.68 g/m*3 21.7 C 4.8 km/h
1113 20-05-2020 20:40:00 21.6 C 10.62 g/m*3 21.6 C 4.8 km/h
1114 20-05-2020 20:45:00 21.4 C 10.87 g/m*3 21.4 C 3.2 km/h
1115 20-05-2020 20:50:00 21.2 C 10.93 g/m*3 21.2 C 4.8 km/h
1116 20-05-2020 20:55:00 21 C 10.99 g/m*3 21 C 1.6 km/h
1117 20-05-2020 21:00:00 20.6 C 10.74 g/m*3 20.6 C 6.4 km/h
1118 20-05-2020 21:05:00 20.3 C 10.73 g/m*3 20.3 C 6.4 km/h
1119 20-05-2020 21:10:00 20.1 C 10.6 g/m*3 20.1 C 8.1 km/h
1120 20-05-2020 21:15:00 20 C 10.54 g/m*3 20 C 4.8 km/h
1121 20-05-2020 21:20:00 20 C 10.71 g/m*3 20 C 6.4 km/h
1122 20-05-2020 21:25:00 19.9 C 11 g/m*3 19.9 C 3.2 km/h
1123 20-05-2020 21:30:00 19.6 C 10.97 g/m*3 19.6 C 4.8 km/h
1124 20-05-2020 21:35:00 19.1 C 10.82 g/m*3 19.1 C 1.6 km/h
1125 20-05-2020 21:40:00 18.6 C 10.66 g/m*3 18.6 C 3.2 km/h
Sensor: Nr:Datum:Temp:Abs-Feuchte:Windchill:Wind:
Aussen-T/F 1126 20-05-2020 21:45:00 18.2 C 10.57 g/m*3 18.2 C 3.2 km/h
1127 20-05-2020 21:50:00 17.8 C 10.62 g/m*3 17.8 C 4.8 km/h
1128 20-05-2020 21:55:00 17.5 C 10.59 g/m*3 17.5 C 0 km/h
1129 20-05-2020 22:00:00 17.3 C 10.61 g/m*3 17.3 C 1.6 km/h
1130 20-05-2020 22:05:00 17.1 C 10.48 g/m*3 17.1 C 4.8 km/h
1131 20-05-2020 22:10:00 16.9 C 10.5 g/m*3 16.9 C 3.2 km/h
1132 20-05-2020 22:15:00 16.8 C 10.58 g/m*3 16.8 C 4.8 km/h
1133 20-05-2020 22:20:00 16.6 C 10.45 g/m*3 16.6 C 4.8 km/h
1134 20-05-2020 22:25:00 16.4 C 10.47 g/m*3 16.4 C 4.8 km/h
1135 20-05-2020 22:30:00 16.3 C 10.54 g/m*3 16.3 C 1.6 km/h
1136 20-05-2020 22:35:00 16.2 C 10.48 g/m*3 16.2 C 3.2 km/h
1137 20-05-2020 22:40:00 16.2 C 10.48 g/m*3 16.2 C 3.2 km/h
1138 20-05-2020 22:45:00 16.1 C 10.42 g/m*3 16.1 C 1.6 km/h
1139 20-05-2020 22:50:00 16.1 C 10.55 g/m*3 16.1 C 0 km/h
1140 20-05-2020 22:55:00 15.9 C 10.43 g/m*3 15.9 C 1.6 km/h
1141 20-05-2020 23:00:00 15.8 C 10.36 g/m*3 15.8 C 1.6 km/h
1142 20-05-2020 23:05:00 15.8 C 10.36 g/m*3 15.8 C 3.2 km/h
1143 20-05-2020 23:10:00 15.7 C 10.3 g/m*3 15.7 C 0 km/h
1144 20-05-2020 23:15:00 15.6 C 10.37 g/m*3 15.6 C 0 km/h
1145 20-05-2020 23:20:00 15.5 C 10.31 g/m*3 15.5 C 0 km/h
1146 20-05-2020 23:25:00 15.4 C 10.25 g/m*3 15.4 C 0 km/h
1147 20-05-2020 23:30:00 15.3 C 10.19 g/m*3 15.3 C 0 km/h
1148 20-05-2020 23:35:00 15.2 C 10.25 g/m*3 15.2 C 0 km/h
1149 20-05-2020 23:40:00 15.1 C 10.19 g/m*3 15.1 C 4.8 km/h
1150 20-05-2020 23:45:00 15 C 10.13 g/m*3 15 C 1.6 km/h
Sensor: Nr:Datum:Temp:Abs-Feuchte:Windchill:Wind:
Aussen-T/F 1151 20-05-2020 23:50:00 14.9 C 10.07 g/m*3 14.9 C 0 km/h
1152 20-05-2020 23:55:00 14.9 C 10.2 g/m*3 14.9 C 0 km/h
1153 21-05-2020 00:00:00 14.8 C 10.13 g/m*3 14.8 C 0 km/h
1154 21-05-2020 00:05:00 14.7 C 10.07 g/m*3 14.7 C 0 km/h
1155 21-05-2020 00:10:00 14.7 C 10.07 g/m*3 14.7 C 3.2 km/h
1156 21-05-2020 00:15:00 14.6 C 10.01 g/m*3 14.6 C 0 km/h
1157 21-05-2020 00:20:00 14.5 C 10.07 g/m*3 14.5 C 1.6 km/h
1158 21-05-2020 00:25:00 14.4 C 9.89 g/m*3 14.4 C 3.2 km/h
1159 21-05-2020 00:30:00 14.4 C 9.89 g/m*3 14.4 C 1.6 km/h
1160 21-05-2020 00:35:00 14.4 C 9.89 g/m*3 14.4 C 3.2 km/h
1161 21-05-2020 00:40:00 14.4 C 9.89 g/m*3 14.4 C 4.8 km/h
1162 21-05-2020 00:45:00 14.5 C 9.95 g/m*3 14.5 C 0 km/h
1163 21-05-2020 00:50:00 14.6 C 10.01 g/m*3 14.6 C 4.8 km/h
1164 21-05-2020 00:55:00 14.6 C 9.89 g/m*3 14.6 C 0 km/h
1165 21-05-2020 01:00:00 14.6 C 9.89 g/m*3 14.6 C 0 km/h
1166 21-05-2020 01:05:00 14.6 C 9.89 g/m*3 14.6 C 0 km/h
1167 21-05-2020 01:10:00 14.7 C 9.95 g/m*3 14.7 C 4.8 km/h
1168 21-05-2020 01:15:00 14.9 C 10.07 g/m*3 14.9 C 4.8 km/h
1169 21-05-2020 01:20:00 14.9 C 9.94 g/m*3 14.9 C 4.8 km/h
1170 21-05-2020 01:25:00 15 C 10 g/m*3 15 C 1.6 km/h
1171 21-05-2020 01:30:00 14.9 C 9.94 g/m*3 14.9 C 0 km/h
1172 21-05-2020 01:35:00 14.8 C 9.88 g/m*3 14.8 C 1.6 km/h
1173 21-05-2020 01:40:00 14.5 C 9.83 g/m*3 14.5 C 4.8 km/h
1174 21-05-2020 01:45:00 14.3 C 9.83 g/m*3 14.3 C 3.2 km/h
1175 21-05-2020 01:50:00 14.1 C 9.71 g/m*3 14.1 C 3.2 km/h
Sensor: Nr:Datum:Temp:Abs-Feuchte:Windchill:Wind:
Aussen-T/F 1176 21-05-2020 01:55:00 13.9 C 9.71 g/m*3 13.9 C 3.2 km/h
1177 21-05-2020 02:00:00 13.7 C 9.71 g/m*3 13.7 C 3.2 km/h
1178 21-05-2020 02:05:00 13.6 C 9.65 g/m*3 13.6 C 3.2 km/h
1179 21-05-2020 02:10:00 13.4 C 9.65 g/m*3 13.4 C 4.8 km/h
1180 21-05-2020 02:15:00 13.3 C 9.59 g/m*3 13.3 C 3.2 km/h
1181 21-05-2020 02:20:00 13.3 C 9.7 g/m*3 13.3 C 3.2 km/h
1182 21-05-2020 02:25:00 13.2 C 9.64 g/m*3 13.2 C 3.2 km/h
1183 21-05-2020 02:30:00 13.1 C 9.59 g/m*3 13.1 C 3.2 km/h
1184 21-05-2020 02:35:00 13 C 9.64 g/m*3 13 C 3.2 km/h
1185 21-05-2020 02:40:00 12.9 C 9.58 g/m*3 12.9 C 4.8 km/h
1186 21-05-2020 02:45:00 12.9 C 9.58 g/m*3 12.9 C 4.8 km/h
1187 21-05-2020 02:50:00 12.8 C 9.63 g/m*3 12.8 C 6.4 km/h
1188 21-05-2020 02:55:00 12.8 C 9.63 g/m*3 12.8 C 4.8 km/h
1189 21-05-2020 03:00:00 12.7 C 9.57 g/m*3 12.7 C 4.8 km/h
1190 21-05-2020 03:05:00 12.7 C 9.57 g/m*3 12.7 C 4.8 km/h
1191 21-05-2020 03:10:00 12.7 C 9.57 g/m*3 12.7 C 4.8 km/h
1192 21-05-2020 03:15:00 12.6 C 9.62 g/m*3 12.6 C 6.4 km/h
1193 21-05-2020 03:20:00 12.6 C 9.62 g/m*3 12.6 C 4.8 km/h
1194 21-05-2020 03:25:00 12.5 C 9.57 g/m*3 12.5 C 3.2 km/h
1195 21-05-2020 03:30:00 12.4 C 9.51 g/m*3 12.4 C 4.8 km/h
1196 21-05-2020 03:35:00 12.4 C 9.51 g/m*3 12.4 C 1.6 km/h
1197 21-05-2020 03:40:00 12.3 C 9.45 g/m*3 12.3 C 0 km/h
1198 21-05-2020 03:45:00 12.2 C 9.39 g/m*3 12.2 C 0 km/h
1199 21-05-2020 03:50:00 12.1 C 9.33 g/m*3 12.1 C 0 km/h
1200 21-05-2020 03:55:00 12 C 9.38 g/m*3 12 C 0 km/h
Sensor: Nr:Datum:Temp:Abs-Feuchte:Windchill:Wind:
Aussen-T/F 1201 21-05-2020 04:00:00 11.9 C 9.32 g/m*3 11.9 C 0 km/h
1202 21-05-2020 04:05:00 11.8 C 9.26 g/m*3 11.8 C 0 km/h
1203 21-05-2020 04:10:00 11.8 C 9.37 g/m*3 11.8 C 0 km/h
1204 21-05-2020 04:15:00 11.7 C 9.2 g/m*3 11.7 C 0 km/h
1205 21-05-2020 04:20:00 11.6 C 9.25 g/m*3 11.6 C 3.2 km/h
1206 21-05-2020 04:25:00 11.4 C 9.14 g/m*3 11.4 C 0 km/h
1207 21-05-2020 04:30:00 11.3 C 9.08 g/m*3 11.3 C 0 km/h
1208 21-05-2020 04:35:00 11.2 C 9.02 g/m*3 11.2 C 0 km/h
1209 21-05-2020 04:40:00 11.2 C 9.12 g/m*3 11.2 C 0 km/h
1210 21-05-2020 04:45:00 11.1 C 9.07 g/m*3 11.1 C 0 km/h
1211 21-05-2020 04:50:00 11.1 C 9.07 g/m*3 11.1 C 0 km/h
1212 21-05-2020 04:55:00 10.9 C 8.95 g/m*3 10.9 C 0 km/h
1213 21-05-2020 05:00:00 10.9 C 8.95 g/m*3 10.9 C 0 km/h
1214 21-05-2020 05:05:00 10.8 C 8.99 g/m*3 10.8 C 0 km/h
1215 21-05-2020 05:10:00 10.7 C 8.94 g/m*3 10.7 C 0 km/h
1216 21-05-2020 05:15:00 10.7 C 8.94 g/m*3 10.7 C 0 km/h
1217 21-05-2020 05:20:00 10.7 C 8.94 g/m*3 10.7 C 0 km/h
1218 21-05-2020 05:25:00 10.6 C 8.88 g/m*3 10.6 C 0 km/h
1219 21-05-2020 05:30:00 10.6 C 8.98 g/m*3 10.6 C 0 km/h
1220 21-05-2020 05:35:00 10.5 C 8.92 g/m*3 10.5 C 0 km/h
1221 21-05-2020 05:40:00 10.4 C 8.87 g/m*3 10.4 C 0 km/h
1222 21-05-2020 05:45:00 10.4 C 8.87 g/m*3 10.4 C 0 km/h
1223 21-05-2020 05:50:00 10.3 C 8.81 g/m*3 10.3 C 0 km/h
1224 21-05-2020 05:55:00 10.3 C 8.81 g/m*3 10.3 C 0 km/h
1225 21-05-2020 06:00:00 10.3 C 8.81 g/m*3 10.3 C 0 km/h
Sensor: Nr:Datum:Temp:Abs-Feuchte:Windchill:Wind:
Aussen-T/F 1226 21-05-2020 06:05:00 10.3 C 8.91 g/m*3 10.3 C 0 km/h
1227 21-05-2020 06:10:00 10.3 C 8.91 g/m*3 10.3 C 0 km/h
1228 21-05-2020 06:15:00 10.2 C 8.85 g/m*3 10.2 C 0 km/h
1229 21-05-2020 06:20:00 10.2 C 8.85 g/m*3 10.2 C 0 km/h
1230 21-05-2020 06:25:00 10.2 C 8.85 g/m*3 10.2 C 0 km/h
1231 21-05-2020 06:30:00 10.2 C 8.85 g/m*3 10.2 C 0 km/h
1232 21-05-2020 06:35:00 10.2 C 8.85 g/m*3 10.2 C 0 km/h
1233 21-05-2020 06:40:00 10.3 C 8.91 g/m*3 10.3 C 0 km/h
1234 21-05-2020 06:45:00 10.3 C 8.91 g/m*3 10.3 C 0 km/h
1235 21-05-2020 06:50:00 10.3 C 8.91 g/m*3 10.3 C 0 km/h
1236 21-05-2020 06:55:00 10.3 C 8.91 g/m*3 10.3 C 0 km/h
1237 21-05-2020 07:00:00 10.3 C 9 g/m*3 10.3 C 0 km/h
1238 21-05-2020 07:05:00 10.3 C 9 g/m*3 10.3 C 0 km/h
1239 21-05-2020 07:10:00 10.4 C 9.06 g/m*3 10.4 C 0 km/h
1240 21-05-2020 07:15:00 10.5 C 9.12 g/m*3 10.5 C 0 km/h
1241 21-05-2020 07:20:00 10.6 C 9.17 g/m*3 10.6 C 0 km/h
1242 21-05-2020 07:25:00 10.7 C 9.23 g/m*3 10.7 C 0 km/h
1243 21-05-2020 07:30:00 10.7 C 9.23 g/m*3 10.7 C 0 km/h
1244 21-05-2020 07:35:00 10.8 C 9.29 g/m*3 10.8 C 0 km/h
1245 21-05-2020 07:40:00 10.8 C 9.29 g/m*3 10.8 C 0 km/h
1246 21-05-2020 07:45:00 10.9 C 9.35 g/m*3 10.9 C 0 km/h
1247 21-05-2020 07:50:00 11 C 9.51 g/m*3 11 C 0 km/h
1248 21-05-2020 07:55:00 11.1 C 9.57 g/m*3 11.1 C 0 km/h
1249 21-05-2020 08:00:00 11.2 C 9.63 g/m*3 11.2 C 0 km/h
1250 21-05-2020 08:05:00 11.3 C 9.69 g/m*3 11.3 C 0 km/h
Sensor: Nr:Datum:Temp:Abs-Feuchte:Windchill:Wind:
Aussen-T/F 1251 21-05-2020 08:10:00 11.4 C 9.75 g/m*3 11.4 C 0 km/h
1252 21-05-2020 08:15:00 11.4 C 9.75 g/m*3 11.4 C 0 km/h
1253 21-05-2020 08:20:00 11.6 C 9.87 g/m*3 11.6 C 0 km/h
1254 21-05-2020 08:25:00 11.7 C 9.94 g/m*3 11.7 C 0 km/h
1255 21-05-2020 08:30:00 11.8 C 10 g/m*3 11.8 C 0 km/h
1256 21-05-2020 08:35:00 11.9 C 10.06 g/m*3 11.9 C 0 km/h
1257 21-05-2020 08:40:00 12.1 C 10.19 g/m*3 12.1 C 0 km/h
1258 21-05-2020 08:45:00 12.2 C 10.25 g/m*3 12.2 C 1.6 km/h
1259 21-05-2020 08:50:00 12.3 C 10.32 g/m*3 12.3 C 1.6 km/h
1260 21-05-2020 08:55:00 12.5 C 10.44 g/m*3 12.5 C 1.6 km/h
1261 21-05-2020 09:00:00 12.7 C 10.58 g/m*3 12.7 C 0 km/h
1262 21-05-2020 09:05:00 12.9 C 10.71 g/m*3 12.9 C 1.6 km/h
1263 21-05-2020 09:10:00 13.1 C 10.73 g/m*3 13.1 C 0 km/h
1264 21-05-2020 09:15:00 13.3 C 10.86 g/m*3 13.3 C 1.6 km/h
1265 21-05-2020 09:20:00 13.6 C 11.06 g/m*3 13.6 C 0 km/h
1266 21-05-2020 09:25:00 13.8 C 11.08 g/m*3 13.8 C 0 km/h
1267 21-05-2020 09:30:00 14 C 11.22 g/m*3 14 C 1.6 km/h
1268 21-05-2020 09:35:00 14.2 C 11.11 g/m*3 14.2 C 1.6 km/h
1269 21-05-2020 09:40:00 14.4 C 11.25 g/m*3 14.4 C 0 km/h
1270 21-05-2020 09:45:00 14.7 C 11.33 g/m*3 14.7 C 0 km/h
1271 21-05-2020 09:50:00 14.9 C 11.34 g/m*3 14.9 C 0 km/h
1272 21-05-2020 09:55:00 15.1 C 11.35 g/m*3 15.1 C 1.6 km/h
1273 21-05-2020 10:00:00 15.3 C 11.36 g/m*3 15.3 C 0 km/h
1274 21-05-2020 10:05:00 15.7 C 11.51 g/m*3 15.7 C 0 km/h
1275 21-05-2020 10:10:00 16 C 11.58 g/m*3 16 C 0 km/h
Sensor: Nr:Datum:Temp:Abs-Feuchte:Windchill:Wind:
Aussen-T/F 1276 21-05-2020 10:15:00 16.3 C 11.65 g/m*3 16.3 C 1.6 km/h
1277 21-05-2020 10:20:00 16.7 C 11.94 g/m*3 16.7 C 1.6 km/h
1278 21-05-2020 10:25:00 17.1 C 11.94 g/m*3 17.1 C 3.2 km/h
1279 21-05-2020 10:30:00 17.8 C 11.84 g/m*3 17.8 C 6.4 km/h
1280 21-05-2020 10:35:00 18.6 C 11.78 g/m*3 18.6 C 6.4 km/h
1281 21-05-2020 10:40:00 19.3 C 11.61 g/m*3 19.3 C 9.7 km/h
1282 21-05-2020 10:45:00 19.7 C 11.72 g/m*3 19.7 C 9.7 km/h
1283 21-05-2020 10:50:00 19.9 C 11.68 g/m*3 19.9 C 8.1 km/h
1284 21-05-2020 10:55:00 20.1 C 11.65 g/m*3 20.1 C 11.3 km/h
1285 21-05-2020 11:00:00 20.3 C 11.78 g/m*3 20.3 C 9.7 km/h
1286 21-05-2020 11:05:00 20.6 C 11.99 g/m*3 20.6 C 9.7 km/h
1287 21-05-2020 11:10:00 20.8 C 12.13 g/m*3 20.8 C 9.7 km/h
1288 21-05-2020 11:15:00 21 C 11.72 g/m*3 21 C 12.9 km/h
1289 21-05-2020 11:20:00 21.2 C 11.49 g/m*3 21.2 C 12.9 km/h
1290 21-05-2020 11:25:00 21.3 C 11.74 g/m*3 21.3 C 12.9 km/h
1291 21-05-2020 11:30:00 21.4 C 11.62 g/m*3 21.4 C 9.7 km/h
1292 21-05-2020 11:35:00 21.4 C 11.62 g/m*3 21.4 C 9.7 km/h
1293 21-05-2020 11:40:00 21.5 C 11.5 g/m*3 21.5 C 11.3 km/h
1294 21-05-2020 11:45:00 21.7 C 11.45 g/m*3 21.7 C 12.9 km/h
1295 21-05-2020 11:50:00 21.8 C 11.51 g/m*3 21.8 C 11.3 km/h
1296 21-05-2020 11:55:00 21.8 C 11.7 g/m*3 21.8 C 6.4 km/h
1297 21-05-2020 12:00:00 21.7 C 11.64 g/m*3 21.7 C 8.1 km/h
1298 21-05-2020 12:05:00 21.7 C 11.45 g/m*3 21.7 C 6.4 km/h
1299 21-05-2020 12:10:00 21.8 C 11.51 g/m*3 21.8 C 8.1 km/h
1300 21-05-2020 12:15:00 21.8 C 11.51 g/m*3 21.8 C 6.4 km/h
Sensor: Nr:Datum:Temp:Abs-Feuchte:Windchill:Wind:
Aussen-T/F 1301 21-05-2020 12:20:00 22 C 11.84 g/m*3 22 C 9.7 km/h
1302 21-05-2020 12:25:00 22.1 C 11.32 g/m*3 22.1 C 4.8 km/h
1303 21-05-2020 12:30:00 22.1 C 11.32 g/m*3 22.1 C 9.7 km/h
1304 21-05-2020 12:35:00 22.3 C 11.45 g/m*3 22.3 C 8.1 km/h
1305 21-05-2020 12:40:00 22.4 C 11.32 g/m*3 22.4 C 6.4 km/h
1306 21-05-2020 12:45:00 22.5 C 11.58 g/m*3 22.5 C 9.7 km/h
1307 21-05-2020 12:50:00 22.7 C 11.52 g/m*3 22.7 C 11.3 km/h
1308 21-05-2020 12:55:00 22.8 C 11.18 g/m*3 22.8 C 8.1 km/h
1309 21-05-2020 13:00:00 22.8 C 10.97 g/m*3 22.8 C 12.9 km/h
1310 21-05-2020 13:05:00 22.8 C 11.38 g/m*3 22.8 C 11.3 km/h
1311 21-05-2020 13:10:00 22.9 C 11.44 g/m*3 22.9 C 12.9 km/h
1312 21-05-2020 13:15:00 23.1 C 11.37 g/m*3 23.1 C 9.7 km/h
1313 21-05-2020 13:20:00 23.1 C 11.78 g/m*3 23.1 C 6.4 km/h
1314 21-05-2020 13:25:00 23.2 C 11.85 g/m*3 23.2 C 6.4 km/h
1315 21-05-2020 13:30:00 23.3 C 11.29 g/m*3 23.3 C 4.8 km/h
1316 21-05-2020 13:35:00 23.4 C 11.35 g/m*3 23.4 C 8.1 km/h
1317 21-05-2020 13:40:00 23.6 C 11.48 g/m*3 23.6 C 6.4 km/h
1318 21-05-2020 13:45:00 23.6 C 11.7 g/m*3 23.6 C 4.8 km/h
1319 21-05-2020 13:50:00 23.5 C 11.42 g/m*3 23.5 C 4.8 km/h
1320 21-05-2020 13:55:00 23.6 C 11.7 g/m*3 23.6 C 6.4 km/h
1321 21-05-2020 14:00:00 23.7 C 11.76 g/m*3 23.7 C 6.4 km/h
1322 21-05-2020 14:05:00 23.9 C 11.9 g/m*3 23.9 C 9.7 km/h
1323 21-05-2020 14:10:00 24.1 C 11.82 g/m*3 24.1 C 6.4 km/h
1324 21-05-2020 14:15:00 24.3 C 11.73 g/m*3 24.3 C 8.1 km/h
1325 21-05-2020 14:20:00 24.4 C 11.57 g/m*3 24.4 C 9.7 km/h
Sensor: Nr:Datum:Temp:Abs-Feuchte:Windchill:Wind:
Aussen-T/F 1326 21-05-2020 14:25:00 24.5 C 11.86 g/m*3 24.5 C 8.1 km/h
1327 21-05-2020 14:30:00 24.8 C 12.06 g/m*3 24.8 C 8.1 km/h
1328 21-05-2020 14:35:00 25.1 C 11.81 g/m*3 25.1 C 4.8 km/h
1329 21-05-2020 14:40:00 25.2 C 11.64 g/m*3 25.2 C 4.8 km/h
1330 21-05-2020 14:45:00 25.2 C 11.64 g/m*3 25.2 C 6.4 km/h
1331 21-05-2020 14:50:00 25.1 C 11.57 g/m*3 25.1 C 8.1 km/h
1332 21-05-2020 14:55:00 25.2 C 11.64 g/m*3 25.2 C 9.7 km/h
1333 21-05-2020 15:00:00 25.5 C 11.6 g/m*3 25.5 C 4.8 km/h
1334 21-05-2020 15:05:00 25.6 C 11.43 g/m*3 25.6 C 8.1 km/h
1335 21-05-2020 15:10:00 25.7 C 11.97 g/m*3 25.7 C 4.8 km/h
1336 21-05-2020 15:15:00 26.2 C 11.32 g/m*3 26.2 C 8.1 km/h
1337 21-05-2020 15:20:00 26.6 C 11.58 g/m*3 26.6 C 6.4 km/h
1338 21-05-2020 15:25:00 26.9 C 11.77 g/m*3 26.9 C 9.7 km/h
1339 21-05-2020 15:30:00 27.1 C 11.9 g/m*3 27.1 C 6.4 km/h
1340 21-05-2020 15:35:00 27.5 C 12.43 g/m*3 27.5 C 4.8 km/h
1341 21-05-2020 15:40:00 27.7 C 11.77 g/m*3 27.7 C 8.1 km/h
1342 21-05-2020 15:45:00 27.8 C 11.3 g/m*3 27.8 C 8.1 km/h
1343 21-05-2020 15:50:00 27.8 C 11.3 g/m*3 27.8 C 9.7 km/h
1344 21-05-2020 15:55:00 27.9 C 11.36 g/m*3 27.9 C 8.1 km/h
1345 21-05-2020 16:00:00 27.9 C 11.09 g/m*3 27.9 C 9.7 km/h
1346 21-05-2020 16:05:00 27.8 C 11.3 g/m*3 27.8 C 8.1 km/h
1347 21-05-2020 16:10:00 27.8 C 11.57 g/m*3 27.8 C 11.3 km/h
1348 21-05-2020 16:15:00 27.8 C 11.3 g/m*3 27.8 C 9.7 km/h
1349 21-05-2020 16:20:00 27.8 C 12.1 g/m*3 27.8 C 8.1 km/h
1350 21-05-2020 16:25:00 28.1 C 11.76 g/m*3 28.1 C 4.8 km/h
Sensor: Nr:Datum:Temp:Abs-Feuchte:Windchill:Wind:
Aussen-T/F 1351 21-05-2020 16:30:00 28.1 C 11.21 g/m*3 28.1 C 6.4 km/h
1352 21-05-2020 16:35:00 28.2 C 11.27 g/m*3 28.2 C 4.8 km/h
1353 21-05-2020 16:40:00 28.4 C 10.84 g/m*3 28.4 C 9.7 km/h
1354 21-05-2020 16:45:00 28.2 C 10.45 g/m*3 28.2 C 8.1 km/h
1355 21-05-2020 16:50:00 28.3 C 11.06 g/m*3 28.3 C 8.1 km/h
1356 21-05-2020 16:55:00 28.4 C 11.67 g/m*3 28.4 C 6.4 km/h
1357 21-05-2020 17:00:00 28.5 C 10.9 g/m*3 28.5 C 8.1 km/h
1358 21-05-2020 17:05:00 28.5 C 11.18 g/m*3 28.5 C 4.8 km/h
1359 21-05-2020 17:10:00 28.9 C 10.86 g/m*3 28.9 C 4.8 km/h
1360 21-05-2020 17:15:00 29.2 C 11.32 g/m*3 29.2 C 3.2 km/h
1361 21-05-2020 17:20:00 28.9 C 10.57 g/m*3 28.9 C 9.7 km/h
1362 21-05-2020 17:25:00 28.9 C 10.86 g/m*3 28.9 C 9.7 km/h
1363 21-05-2020 17:30:00 29 C 10.91 g/m*3 29 C 8.1 km/h
1364 21-05-2020 17:35:00 28.8 C 10.8 g/m*3 28.8 C 9.7 km/h
1365 21-05-2020 17:40:00 28.7 C 11.02 g/m*3 28.7 C 6.4 km/h
1366 21-05-2020 17:45:00 28.6 C 10.68 g/m*3 28.6 C 9.7 km/h
1367 21-05-2020 17:50:00 28.3 C 10.51 g/m*3 28.3 C 11.3 km/h
1368 21-05-2020 17:55:00 28.1 C 10.39 g/m*3 28.1 C 9.7 km/h
1369 21-05-2020 18:00:00 27.9 C 10.82 g/m*3 27.9 C 6.4 km/h
1370 21-05-2020 18:05:00 28.3 C 11.06 g/m*3 28.3 C 9.7 km/h
1371 21-05-2020 18:10:00 28.9 C 10.86 g/m*3 28.9 C 8.1 km/h
1372 21-05-2020 18:15:00 28.7 C 10.17 g/m*3 28.7 C 12.9 km/h
1373 21-05-2020 18:20:00 28.1 C 10.12 g/m*3 28.1 C 9.7 km/h
1374 21-05-2020 18:25:00 27.9 C 10.28 g/m*3 27.9 C 9.7 km/h
1375 21-05-2020 18:30:00 27.8 C 10.22 g/m*3 27.8 C 9.7 km/h
Sensor: Nr:Datum:Temp:Abs-Feuchte:Windchill:Wind:
Aussen-T/F 1376 21-05-2020 18:35:00 27.7 C 10.43 g/m*3 27.7 C 4.8 km/h
1377 21-05-2020 18:40:00 27.5 C 10.58 g/m*3 27.5 C 4.8 km/h
1378 21-05-2020 18:45:00 27.7 C 10.7 g/m*3 27.7 C 6.4 km/h
1379 21-05-2020 18:50:00 28 C 11.42 g/m*3 28 C 6.4 km/h
1380 21-05-2020 18:55:00 28.3 C 10.78 g/m*3 28.3 C 3.2 km/h
1381 21-05-2020 19:00:00 28.4 C 10.84 g/m*3 28.4 C 6.4 km/h
1382 21-05-2020 19:05:00 28.6 C 11.24 g/m*3 28.6 C 4.8 km/h
1383 21-05-2020 19:10:00 28.5 C 10.9 g/m*3 28.5 C 4.8 km/h
1384 21-05-2020 19:15:00 28.6 C 10.68 g/m*3 28.6 C 4.8 km/h
1385 21-05-2020 19:20:00 28.4 C 11.12 g/m*3 28.4 C 6.4 km/h
1386 21-05-2020 19:25:00 28.2 C 10.72 g/m*3 28.2 C 4.8 km/h
1387 21-05-2020 19:30:00 27.9 C 10.82 g/m*3 27.9 C 4.8 km/h
1388 21-05-2020 19:35:00 27.7 C 10.97 g/m*3 27.7 C 3.2 km/h
1389 21-05-2020 19:40:00 27.7 C 11.5 g/m*3 27.7 C 3.2 km/h
1390 21-05-2020 19:45:00 27.7 C 12.84 g/m*3 27.7 C 3.2 km/h
1391 21-05-2020 19:50:00 27.7 C 12.84 g/m*3 27.7 C 3.2 km/h
1392 21-05-2020 19:55:00 27.6 C 12.77 g/m*3 27.6 C 1.6 km/h
1393 21-05-2020 20:00:00 27.6 C 12.77 g/m*3 27.6 C 1.6 km/h
1394 21-05-2020 20:05:00 27.3 C 12.82 g/m*3 27.3 C 4.8 km/h
1395 21-05-2020 20:10:00 26.9 C 12.54 g/m*3 26.9 C 4.8 km/h
1396 21-05-2020 20:15:00 26.3 C 12.38 g/m*3 26.3 C 3.2 km/h
1397 21-05-2020 20:20:00 25.7 C 12.45 g/m*3 25.7 C 4.8 km/h
1398 21-05-2020 20:25:00 25.1 C 12.5 g/m*3 25.1 C 3.2 km/h
1399 21-05-2020 20:30:00 24.7 C 12.45 g/m*3 24.7 C 0 km/h
1400 21-05-2020 20:35:00 24.5 C 12.53 g/m*3 24.5 C 1.6 km/h
Sensor: Nr:Datum:Temp:Abs-Feuchte:Windchill:Wind:
Aussen-T/F 1401 21-05-2020 20:40:00 24.3 C 12.61 g/m*3 24.3 C 1.6 km/h
1402 21-05-2020 20:45:00 24.1 C 12.47 g/m*3 24.1 C 1.6 km/h
1403 21-05-2020 20:50:00 23.8 C 12.48 g/m*3 23.8 C 1.6 km/h
1404 21-05-2020 20:55:00 23.4 C 12.41 g/m*3 23.4 C 0 km/h
1405 21-05-2020 21:00:00 23.1 C 12.4 g/m*3 23.1 C 1.6 km/h
1406 21-05-2020 21:05:00 22.6 C 12.25 g/m*3 22.6 C 4.8 km/h
1407 21-05-2020 21:10:00 22.2 C 12.17 g/m*3 22.2 C 3.2 km/h
1408 21-05-2020 21:15:00 21.8 C 12.09 g/m*3 21.8 C 3.2 km/h
1409 21-05-2020 21:20:00 21.5 C 12.07 g/m*3 21.5 C 6.4 km/h
1410 21-05-2020 21:25:00 21.2 C 12.05 g/m*3 21.2 C 6.4 km/h
1411 21-05-2020 21:30:00 20.9 C 12.02 g/m*3 20.9 C 4.8 km/h
1412 21-05-2020 21:35:00 20.7 C 12.06 g/m*3 20.7 C 4.8 km/h
1413 21-05-2020 21:40:00 20.4 C 11.85 g/m*3 20.4 C 4.8 km/h
1414 21-05-2020 21:45:00 20.2 C 11.89 g/m*3 20.2 C 4.8 km/h
1415 21-05-2020 21:50:00 20 C 11.92 g/m*3 20 C 8.1 km/h
1416 21-05-2020 21:55:00 19.8 C 11.79 g/m*3 19.8 C 8.1 km/h
1417 21-05-2020 22:00:00 19.7 C 11.89 g/m*3 19.7 C 6.4 km/h
1418 21-05-2020 22:05:00 19.6 C 11.82 g/m*3 19.6 C 4.8 km/h
1419 21-05-2020 22:10:00 19.5 C 11.92 g/m*3 19.5 C 4.8 km/h
1420 21-05-2020 22:15:00 19.4 C 11.85 g/m*3 19.4 C 4.8 km/h
1421 21-05-2020 22:20:00 19.3 C 11.94 g/m*3 19.3 C 4.8 km/h
1422 21-05-2020 22:25:00 19.1 C 11.8 g/m*3 19.1 C 4.8 km/h
1423 21-05-2020 22:30:00 18.9 C 11.83 g/m*3 18.9 C 4.8 km/h
1424 21-05-2020 22:35:00 18.8 C 11.92 g/m*3 18.8 C 4.8 km/h
1425 21-05-2020 22:40:00 18.8 C 11.92 g/m*3 18.8 C 4.8 km/h
Sensor: Nr:Datum:Temp:Abs-Feuchte:Windchill:Wind:
Aussen-T/F 1426 21-05-2020 22:45:00 18.7 C 11.85 g/m*3 18.7 C 4.8 km/h
1427 21-05-2020 22:50:00 18.7 C 11.85 g/m*3 18.7 C 8.1 km/h
1428 21-05-2020 22:55:00 18.7 C 11.85 g/m*3 18.7 C 3.2 km/h
1429 21-05-2020 23:00:00 18.7 C 11.69 g/m*3 18.7 C 6.4 km/h
1430 21-05-2020 23:05:00 18.8 C 11.76 g/m*3 18.8 C 3.2 km/h
1431 21-05-2020 23:10:00 18.9 C 11.83 g/m*3 18.9 C 3.2 km/h
1432 21-05-2020 23:15:00 18.9 C 11.83 g/m*3 18.9 C 0 km/h
1433 21-05-2020 23:20:00 18.9 C 11.83 g/m*3 18.9 C 1.6 km/h
1434 21-05-2020 23:25:00 18.9 C 11.83 g/m*3 18.9 C 3.2 km/h
1435 21-05-2020 23:30:00 18.8 C 11.76 g/m*3 18.8 C 3.2 km/h
1436 21-05-2020 23:35:00 18.7 C 11.69 g/m*3 18.7 C 3.2 km/h
1437 21-05-2020 23:40:00 18.6 C 11.62 g/m*3 18.6 C 1.6 km/h
1438 21-05-2020 23:45:00 18.4 C 11.64 g/m*3 18.4 C 3.2 km/h
1439 21-05-2020 23:50:00 18.3 C 11.57 g/m*3 18.3 C 1.6 km/h
1440 21-05-2020 23:55:00 18.2 C 11.5 g/m*3 18.2 C 3.2 km/h
1441 22-05-2020 00:00:00 18.1 C 11.59 g/m*3 18.1 C 3.2 km/h
1442 22-05-2020 00:05:00 17.9 C 11.45 g/m*3 17.9 C 3.2 km/h
1443 22-05-2020 00:10:00 17.9 C 11.45 g/m*3 17.9 C 3.2 km/h
1444 22-05-2020 00:15:00 17.8 C 11.38 g/m*3 17.8 C 0 km/h
1445 22-05-2020 00:20:00 17.7 C 11.47 g/m*3 17.7 C 0 km/h
1446 22-05-2020 00:25:00 17.6 C 11.4 g/m*3 17.6 C 1.6 km/h
1447 22-05-2020 00:30:00 17.5 C 11.33 g/m*3 17.5 C 0 km/h
1448 22-05-2020 00:35:00 17.4 C 11.26 g/m*3 17.4 C 1.6 km/h
1449 22-05-2020 00:40:00 17.4 C 11.41 g/m*3 17.4 C 1.6 km/h
1450 22-05-2020 00:45:00 17.3 C 11.34 g/m*3 17.3 C 0 km/h
Sensor: Nr:Datum:Temp:Abs-Feuchte:Windchill:Wind:
Aussen-T/F 1451 22-05-2020 00:50:00 17.2 C 11.28 g/m*3 17.2 C 0 km/h
1452 22-05-2020 00:55:00 16.9 C 11.08 g/m*3 16.9 C 0 km/h
1453 22-05-2020 01:00:00 16.8 C 11.15 g/m*3 16.8 C 0 km/h
1454 22-05-2020 01:05:00 16.7 C 11.08 g/m*3 16.7 C 0 km/h
1455 22-05-2020 01:10:00 16.6 C 11.16 g/m*3 16.6 C 0 km/h
1456 22-05-2020 01:15:00 16.4 C 11.03 g/m*3 16.4 C 0 km/h
1457 22-05-2020 01:20:00 16.3 C 10.96 g/m*3 16.3 C 0 km/h
1458 22-05-2020 01:25:00 16.3 C 11.1 g/m*3 16.3 C 0 km/h
1459 22-05-2020 01:30:00 16.2 C 11.03 g/m*3 16.2 C 0 km/h
1460 22-05-2020 01:35:00 16.1 C 10.97 g/m*3 16.1 C 0 km/h
1461 22-05-2020 01:40:00 15.9 C 10.97 g/m*3 15.9 C 0 km/h
1462 22-05-2020 01:45:00 15.9 C 10.97 g/m*3 15.9 C 0 km/h
1463 22-05-2020 01:50:00 15.8 C 10.9 g/m*3 15.8 C 0 km/h
1464 22-05-2020 01:55:00 15.7 C 10.97 g/m*3 15.7 C 0 km/h
1465 22-05-2020 02:00:00 15.6 C 11.04 g/m*3 15.6 C 0 km/h
1466 22-05-2020 02:05:00 15.6 C 11.04 g/m*3 15.6 C 0 km/h
1467 22-05-2020 02:10:00 15.5 C 10.97 g/m*3 15.5 C 0 km/h
1468 22-05-2020 02:15:00 15.4 C 10.9 g/m*3 15.4 C 0 km/h
1469 22-05-2020 02:20:00 15.3 C 10.97 g/m*3 15.3 C 0 km/h
1470 22-05-2020 02:25:00 15.3 C 10.97 g/m*3 15.3 C 0 km/h
1471 22-05-2020 02:30:00 15.3 C 11.1 g/m*3 15.3 C 0 km/h
1472 22-05-2020 02:35:00 15.2 C 11.03 g/m*3 15.2 C 0 km/h
1473 22-05-2020 02:40:00 15.2 C 11.03 g/m*3 15.2 C 0 km/h
1474 22-05-2020 02:45:00 15.1 C 10.97 g/m*3 15.1 C 0 km/h
1475 22-05-2020 02:50:00 15.1 C 10.97 g/m*3 15.1 C 0 km/h
Sensor: Nr:Datum:Temp:Abs-Feuchte:Windchill:Wind:
Aussen-T/F 1476 22-05-2020 02:55:00 15 C 10.9 g/m*3 15 C 0 km/h
1477 22-05-2020 03:00:00 14.9 C 10.83 g/m*3 14.9 C 0 km/h
1478 22-05-2020 03:05:00 14.9 C 10.96 g/m*3 14.9 C 0 km/h
1479 22-05-2020 03:10:00 14.8 C 10.89 g/m*3 14.8 C 0 km/h
1480 22-05-2020 03:15:00 14.8 C 10.89 g/m*3 14.8 C 0 km/h
1481 22-05-2020 03:20:00 14.8 C 10.89 g/m*3 14.8 C 0 km/h
1482 22-05-2020 03:25:00 14.7 C 10.83 g/m*3 14.7 C 0 km/h
1483 22-05-2020 03:30:00 14.6 C 10.76 g/m*3 14.6 C 0 km/h
1484 22-05-2020 03:35:00 14.5 C 10.7 g/m*3 14.5 C 0 km/h
1485 22-05-2020 03:40:00 14.4 C 10.63 g/m*3 14.4 C 0 km/h
1486 22-05-2020 03:45:00 14.4 C 10.63 g/m*3 14.4 C 0 km/h
1487 22-05-2020 03:50:00 14.3 C 10.57 g/m*3 14.3 C 0 km/h
1488 22-05-2020 03:55:00 14.2 C 10.5 g/m*3 14.2 C 0 km/h
1489 22-05-2020 04:00:00 14.1 C 10.56 g/m*3 14.1 C 0 km/h
1490 22-05-2020 04:05:00 13.9 C 10.43 g/m*3 13.9 C 0 km/h
1491 22-05-2020 04:10:00 13.8 C 10.37 g/m*3 13.8 C 0 km/h
1492 22-05-2020 04:15:00 13.7 C 10.42 g/m*3 13.7 C 0 km/h
1493 22-05-2020 04:20:00 13.7 C 10.54 g/m*3 13.7 C 0 km/h
1494 22-05-2020 04:25:00 13.6 C 10.47 g/m*3 13.6 C 0 km/h
1495 22-05-2020 04:30:00 13.6 C 10.47 g/m*3 13.6 C 0 km/h
1496 22-05-2020 04:35:00 13.4 C 10.35 g/m*3 13.4 C 0 km/h
1497 22-05-2020 04:40:00 13.4 C 10.35 g/m*3 13.4 C 0 km/h
1498 22-05-2020 04:45:00 13.3 C 10.28 g/m*3 13.3 C 0 km/h
1499 22-05-2020 04:50:00 13.3 C 10.4 g/m*3 13.3 C 0 km/h
1500 22-05-2020 04:55:00 13.2 C 10.33 g/m*3 13.2 C 0 km/h
Sensor: Nr:Datum:Temp:Abs-Feuchte:Windchill:Wind:
Aussen-T/F 1501 22-05-2020 05:00:00 13.2 C 10.33 g/m*3 13.2 C 0 km/h
1502 22-05-2020 05:05:00 13.2 C 10.33 g/m*3 13.2 C 0 km/h
1503 22-05-2020 05:10:00 13.1 C 10.38 g/m*3 13.1 C 0 km/h
1504 22-05-2020 05:15:00 13.1 C 10.38 g/m*3 13.1 C 0 km/h
1505 22-05-2020 05:20:00 13 C 10.32 g/m*3 13 C 0 km/h
1506 22-05-2020 05:25:00 13 C 10.32 g/m*3 13 C 0 km/h
1507 22-05-2020 05:30:00 12.9 C 10.26 g/m*3 12.9 C 0 km/h
1508 22-05-2020 05:35:00 12.8 C 10.19 g/m*3 12.8 C 0 km/h
1509 22-05-2020 05:40:00 12.8 C 10.19 g/m*3 12.8 C 0 km/h
1510 22-05-2020 05:45:00 12.8 C 10.3 g/m*3 12.8 C 0 km/h
1511 22-05-2020 05:50:00 12.7 C 10.24 g/m*3 12.7 C 0 km/h
1512 22-05-2020 05:55:00 12.8 C 10.3 g/m*3 12.8 C 0 km/h
1513 22-05-2020 06:00:00 12.8 C 10.3 g/m*3 12.8 C 0 km/h
1514 22-05-2020 06:05:00 12.8 C 10.3 g/m*3 12.8 C 0 km/h
1515 22-05-2020 06:10:00 12.8 C 10.42 g/m*3 12.8 C 0 km/h
1516 22-05-2020 06:15:00 12.9 C 10.48 g/m*3 12.9 C 0 km/h
1517 22-05-2020 06:20:00 13.1 C 10.61 g/m*3 13.1 C 0 km/h
1518 22-05-2020 06:25:00 13.1 C 10.61 g/m*3 13.1 C 0 km/h
1519 22-05-2020 06:30:00 13.2 C 10.68 g/m*3 13.2 C 0 km/h
1520 22-05-2020 06:35:00 13.3 C 10.74 g/m*3 13.3 C 0 km/h
1521 22-05-2020 06:40:00 13.5 C 10.99 g/m*3 13.5 C 0 km/h
1522 22-05-2020 06:45:00 13.7 C 11.13 g/m*3 13.7 C 0 km/h
1523 22-05-2020 06:50:00 13.8 C 11.2 g/m*3 13.8 C 0 km/h
1524 22-05-2020 06:55:00 14 C 11.34 g/m*3 14 C 0 km/h
1525 22-05-2020 07:00:00 14.2 C 11.48 g/m*3 14.2 C 0 km/h
Sensor: Nr:Datum:Temp:Abs-Feuchte:Windchill:Wind:
Aussen-T/F 1526 22-05-2020 07:05:00 14.3 C 11.55 g/m*3 14.3 C 0 km/h
1527 22-05-2020 07:10:00 14.4 C 11.5 g/m*3 14.4 C 0 km/h
1528 22-05-2020 07:15:00 14.6 C 11.64 g/m*3 14.6 C 0 km/h
1529 22-05-2020 07:20:00 14.7 C 11.71 g/m*3 14.7 C 0 km/h
1530 22-05-2020 07:25:00 14.9 C 11.85 g/m*3 14.9 C 0 km/h
1531 22-05-2020 07:30:00 15 C 11.93 g/m*3 15 C 0 km/h
1532 22-05-2020 07:35:00 15.2 C 11.94 g/m*3 15.2 C 0 km/h
1533 22-05-2020 07:40:00 15.3 C 12.01 g/m*3 15.3 C 0 km/h
1534 22-05-2020 07:45:00 15.4 C 11.96 g/m*3 15.4 C 0 km/h
1535 22-05-2020 07:50:00 15.6 C 12.1 g/m*3 15.6 C 0 km/h
1536 22-05-2020 07:55:00 15.8 C 12.11 g/m*3 15.8 C 0 km/h
1537 22-05-2020 08:00:00 16 C 12.26 g/m*3 16 C 0 km/h
1538 22-05-2020 08:05:00 16.2 C 12.27 g/m*3 16.2 C 1.6 km/h
1539 22-05-2020 08:10:00 16.4 C 12.28 g/m*3 16.4 C 0 km/h
1540 22-05-2020 08:15:00 16.7 C 12.22 g/m*3 16.7 C 4.8 km/h
1541 22-05-2020 08:20:00 17.1 C 12.37 g/m*3 17.1 C 4.8 km/h
1542 22-05-2020 08:25:00 17.4 C 12.45 g/m*3 17.4 C 3.2 km/h
1543 22-05-2020 08:30:00 17.7 C 12.67 g/m*3 17.7 C 6.4 km/h
1544 22-05-2020 08:35:00 18.1 C 12.52 g/m*3 18.1 C 6.4 km/h
1545 22-05-2020 08:40:00 18.4 C 12.58 g/m*3 18.4 C 4.8 km/h
1546 22-05-2020 08:45:00 18.7 C 12.65 g/m*3 18.7 C 6.4 km/h
1547 22-05-2020 08:50:00 18.9 C 12.8 g/m*3 18.9 C 1.6 km/h
1548 22-05-2020 08:55:00 19.1 C 12.79 g/m*3 19.1 C 6.4 km/h
1549 22-05-2020 09:00:00 19.3 C 12.77 g/m*3 19.3 C 8.1 km/h
1550 22-05-2020 09:05:00 19.3 C 12.77 g/m*3 19.3 C 8.1 km/h
Sensor: Nr:Datum:Temp:Abs-Feuchte:Windchill:Wind:
Aussen-T/F 1551 22-05-2020 09:10:00 19.4 C 12.68 g/m*3 19.4 C 8.1 km/h
1552 22-05-2020 09:15:00 19.6 C 12.83 g/m*3 19.6 C 6.4 km/h
1553 22-05-2020 09:20:00 19.8 C 12.98 g/m*3 19.8 C 8.1 km/h
1554 22-05-2020 09:25:00 19.9 C 12.89 g/m*3 19.9 C 6.4 km/h
1555 22-05-2020 09:30:00 20.1 C 12.86 g/m*3 20.1 C 8.1 km/h
1556 22-05-2020 09:35:00 20.1 C 12.86 g/m*3 20.1 C 6.4 km/h
1557 22-05-2020 09:40:00 20.2 C 13.11 g/m*3 20.2 C 4.8 km/h
1558 22-05-2020 09:45:00 20.3 C 13.19 g/m*3 20.3 C 3.2 km/h
1559 22-05-2020 09:50:00 20.4 C 13.27 g/m*3 20.4 C 3.2 km/h
1560 22-05-2020 09:55:00 20.6 C 13.24 g/m*3 20.6 C 3.2 km/h
1561 22-05-2020 10:00:00 20.7 C 13.32 g/m*3 20.7 C 1.6 km/h
1562 22-05-2020 10:05:00 20.9 C 13.48 g/m*3 20.9 C 1.6 km/h
1563 22-05-2020 10:10:00 21.1 C 13.45 g/m*3 21.1 C 0 km/h
1564 22-05-2020 10:15:00 21.3 C 13.61 g/m*3 21.3 C 0 km/h
1565 22-05-2020 10:20:00 21.5 C 13.58 g/m*3 21.5 C 0 km/h
1566 22-05-2020 10:25:00 21.7 C 13.73 g/m*3 21.7 C 0 km/h
1567 22-05-2020 10:30:00 21.8 C 13.62 g/m*3 21.8 C 0 km/h
1568 22-05-2020 10:35:00 21.9 C 13.7 g/m*3 21.9 C 0 km/h
1569 22-05-2020 10:40:00 21.9 C 13.7 g/m*3 21.9 C 1.6 km/h
1570 22-05-2020 10:45:00 22.1 C 13.86 g/m*3 22.1 C 1.6 km/h
1571 22-05-2020 10:50:00 22.3 C 13.82 g/m*3 22.3 C 4.8 km/h
1572 22-05-2020 10:55:00 22.6 C 14.06 g/m*3 22.6 C 1.6 km/h
1573 22-05-2020 11:00:00 22.8 C 14.02 g/m*3 22.8 C 4.8 km/h
1574 22-05-2020 11:05:00 23 C 14.18 g/m*3 23 C 3.2 km/h
1575 22-05-2020 11:10:00 23.2 C 13.93 g/m*3 23.2 C 3.2 km/h
Sensor: Nr:Datum:Temp:Abs-Feuchte:Windchill:Wind:
Aussen-T/F 1576 22-05-2020 11:15:00 23.4 C 13.88 g/m*3 23.4 C 6.4 km/h
1577 22-05-2020 11:20:00 23.5 C 13.96 g/m*3 23.5 C 8.1 km/h
1578 22-05-2020 11:25:00 23.7 C 14.33 g/m*3 23.7 C 8.1 km/h
1579 22-05-2020 11:30:00 23.8 C 13.77 g/m*3 23.8 C 11.3 km/h
1580 22-05-2020 11:35:00 23.9 C 13.63 g/m*3 23.9 C 9.7 km/h
1581 22-05-2020 11:40:00 24 C 13.71 g/m*3 24 C 9.7 km/h
1582 22-05-2020 11:45:00 24.1 C 13.78 g/m*3 24.1 C 3.2 km/h
1583 22-05-2020 11:50:00 24.3 C 13.72 g/m*3 24.3 C 6.4 km/h
1584 22-05-2020 11:55:00 24.4 C 13.58 g/m*3 24.4 C 8.1 km/h
1585 22-05-2020 12:00:00 24.4 C 13.35 g/m*3 24.4 C 9.7 km/h
1586 22-05-2020 12:05:00 24.4 C 13.35 g/m*3 24.4 C 9.7 km/h
1587 22-05-2020 12:10:00 24.5 C 13.65 g/m*3 24.5 C 9.7 km/h
1588 22-05-2020 12:15:00 24.4 C 13.35 g/m*3 24.4 C 16.1 km/h
1589 22-05-2020 12:20:00 24.4 C 13.8 g/m*3 24.4 C 3.2 km/h
1590 22-05-2020 12:25:00 24.5 C 13.43 g/m*3 24.5 C 8.1 km/h
1591 22-05-2020 12:30:00 24.6 C 13.73 g/m*3 24.6 C 6.4 km/h
1592 22-05-2020 12:35:00 24.5 C 13.65 g/m*3 24.5 C 6.4 km/h
1593 22-05-2020 12:40:00 24.6 C 13.73 g/m*3 24.6 C 4.8 km/h
1594 22-05-2020 12:45:00 24.6 C 13.73 g/m*3 24.6 C 6.4 km/h
1595 22-05-2020 12:50:00 24.6 C 14.18 g/m*3 24.6 C 4.8 km/h
1596 22-05-2020 12:55:00 24.7 C 13.81 g/m*3 24.7 C 6.4 km/h
1597 22-05-2020 13:00:00 24.7 C 14.49 g/m*3 24.7 C 1.6 km/h
1598 22-05-2020 13:05:00 24.7 C 14.26 g/m*3 24.7 C 4.8 km/h
1599 22-05-2020 13:10:00 24.7 C 14.03 g/m*3 24.7 C 3.2 km/h
1600 22-05-2020 13:15:00 24.8 C 14.11 g/m*3 24.8 C 3.2 km/h
Sensor: Nr:Datum:Temp:Abs-Feuchte:Windchill:Wind:
Aussen-T/F 1601 22-05-2020 13:20:00 24.9 C 13.96 g/m*3 24.9 C 11.3 km/h
1602 22-05-2020 13:25:00 24.9 C 13.73 g/m*3 24.9 C 8.1 km/h
1603 22-05-2020 13:30:00 25.1 C 15.28 g/m*3 25.1 C 1.6 km/h
1604 22-05-2020 13:35:00 25.3 C 13.81 g/m*3 25.3 C 8.1 km/h
1605 22-05-2020 13:40:00 25.4 C 13.89 g/m*3 25.4 C 8.1 km/h
1606 22-05-2020 13:45:00 25.6 C 14.76 g/m*3 25.6 C 4.8 km/h
1607 22-05-2020 13:50:00 25.8 C 13.96 g/m*3 25.8 C 9.7 km/h
1608 22-05-2020 13:55:00 26 C 13.88 g/m*3 26 C 8.1 km/h
1609 22-05-2020 14:00:00 26.1 C 14.44 g/m*3 26.1 C 11.3 km/h
1610 22-05-2020 14:05:00 26.2 C 14.77 g/m*3 26.2 C 8.1 km/h
1611 22-05-2020 14:10:00 26.2 C 14.28 g/m*3 26.2 C 4.8 km/h
1612 22-05-2020 14:15:00 26.2 C 14.52 g/m*3 26.2 C 4.8 km/h
1613 22-05-2020 14:20:00 26.3 C 14.36 g/m*3 26.3 C 4.8 km/h
1614 22-05-2020 14:25:00 26.3 C 14.61 g/m*3 26.3 C 6.4 km/h
1615 22-05-2020 14:30:00 26.4 C 14.19 g/m*3 26.4 C 6.4 km/h
1616 22-05-2020 14:35:00 26.3 C 14.11 g/m*3 26.3 C 11.3 km/h
1617 22-05-2020 14:40:00 26.2 C 14.03 g/m*3 26.2 C 11.3 km/h
1618 22-05-2020 14:45:00 26.2 C 13.79 g/m*3 26.2 C 9.7 km/h
1619 22-05-2020 14:50:00 26.3 C 13.86 g/m*3 26.3 C 4.8 km/h
1620 22-05-2020 14:55:00 26.4 C 13.69 g/m*3 26.4 C 12.9 km/h
1621 22-05-2020 15:00:00 26.3 C 13.62 g/m*3 26.3 C 11.3 km/h
1622 22-05-2020 15:05:00 26.3 C 13.37 g/m*3 26.3 C 14.5 km/h
1623 22-05-2020 15:10:00 26.5 C 13.52 g/m*3 26.5 C 9.7 km/h
1624 22-05-2020 15:15:00 26.6 C 13.59 g/m*3 26.6 C 14.5 km/h
1625 22-05-2020 15:20:00 26.8 C 13.74 g/m*3 26.8 C 9.7 km/h
Sensor: Nr:Datum:Temp:Abs-Feuchte:Windchill:Wind:
Aussen-T/F 1626 22-05-2020 15:25:00 26.8 C 13.49 g/m*3 26.8 C 16.1 km/h
1627 22-05-2020 15:30:00 26.6 C 13.34 g/m*3 26.6 C 12.9 km/h
1628 22-05-2020 15:35:00 26.4 C 13.44 g/m*3 26.4 C 8.1 km/h
1629 22-05-2020 15:40:00 26.2 C 13.54 g/m*3 26.2 C 14.5 km/h
1630 22-05-2020 15:45:00 26.1 C 13.46 g/m*3 26.1 C 11.3 km/h
1631 22-05-2020 15:50:00 25.9 C 13.32 g/m*3 25.9 C 9.7 km/h
1632 22-05-2020 15:55:00 25.9 C 13.56 g/m*3 25.9 C 11.3 km/h
1633 22-05-2020 16:00:00 25.9 C 13.56 g/m*3 25.9 C 9.7 km/h
1634 22-05-2020 16:05:00 25.9 C 13.8 g/m*3 25.9 C 12.9 km/h
1635 22-05-2020 16:10:00 25.9 C 13.32 g/m*3 25.9 C 12.9 km/h
1636 22-05-2020 16:15:00 25.9 C 13.32 g/m*3 25.9 C 11.3 km/h
1637 22-05-2020 16:20:00 25.9 C 13.32 g/m*3 25.9 C 17.7 km/h
1638 22-05-2020 16:25:00 26.1 C 13.46 g/m*3 26.1 C 12.9 km/h
1639 22-05-2020 16:30:00 26.2 C 13.79 g/m*3 26.2 C 12.9 km/h
1640 22-05-2020 16:35:00 26.2 C 13.29 g/m*3 26.2 C 8.1 km/h
1641 22-05-2020 16:40:00 26.2 C 13.79 g/m*3 26.2 C 12.9 km/h
1642 22-05-2020 16:45:00 26.3 C 13.62 g/m*3 26.3 C 12.9 km/h
1643 22-05-2020 16:50:00 26.3 C 13.86 g/m*3 26.3 C 12.9 km/h
1644 22-05-2020 16:55:00 26.2 C 13.54 g/m*3 26.2 C 9.7 km/h
1645 22-05-2020 17:00:00 26.2 C 13.79 g/m*3 26.2 C 12.9 km/h
1646 22-05-2020 17:05:00 26.1 C 13.46 g/m*3 26.1 C 9.7 km/h
1647 22-05-2020 17:10:00 26.1 C 13.46 g/m*3 26.1 C 11.3 km/h
1648 22-05-2020 17:15:00 26.1 C 13.71 g/m*3 26.1 C 6.4 km/h
1649 22-05-2020 17:20:00 26.2 C 13.79 g/m*3 26.2 C 6.4 km/h
1650 22-05-2020 17:25:00 26.3 C 14.11 g/m*3 26.3 C 6.4 km/h
Sensor: Nr:Datum:Temp:Abs-Feuchte:Windchill:Wind:
Aussen-T/F 1651 22-05-2020 17:30:00 26.4 C 14.44 g/m*3 26.4 C 4.8 km/h
1652 22-05-2020 17:35:00 26.4 C 13.69 g/m*3 26.4 C 8.1 km/h
1653 22-05-2020 17:40:00 26.4 C 14.19 g/m*3 26.4 C 3.2 km/h
1654 22-05-2020 17:45:00 26.3 C 14.36 g/m*3 26.3 C 6.4 km/h
1655 22-05-2020 17:50:00 26.2 C 14.03 g/m*3 26.2 C 4.8 km/h
1656 22-05-2020 17:55:00 26.1 C 13.71 g/m*3 26.1 C 8.1 km/h
1657 22-05-2020 18:00:00 25.9 C 13.8 g/m*3 25.9 C 9.7 km/h
1658 22-05-2020 18:05:00 25.9 C 14.04 g/m*3 25.9 C 8.1 km/h
1659 22-05-2020 18:10:00 25.8 C 14.2 g/m*3 25.8 C 9.7 km/h
1660 22-05-2020 18:15:00 25.7 C 13.65 g/m*3 25.7 C 11.3 km/h
1661 22-05-2020 18:20:00 25.6 C 14.52 g/m*3 25.6 C 11.3 km/h
1662 22-05-2020 18:25:00 25.3 C 14.51 g/m*3 25.3 C 12.9 km/h
1663 22-05-2020 18:30:00 25 C 14.73 g/m*3 25 C 4.8 km/h
1664 22-05-2020 18:35:00 24.8 C 14.8 g/m*3 24.8 C 8.1 km/h
1665 22-05-2020 18:40:00 24.7 C 14.94 g/m*3 24.7 C 3.2 km/h
1666 22-05-2020 18:45:00 24.4 C 14.91 g/m*3 24.4 C 4.8 km/h
1667 22-05-2020 18:50:00 24.2 C 14.74 g/m*3 24.2 C 3.2 km/h
1668 22-05-2020 18:55:00 24.1 C 14.66 g/m*3 24.1 C 6.4 km/h
1669 22-05-2020 19:00:00 24 C 14.36 g/m*3 24 C 9.7 km/h
1670 22-05-2020 19:05:00 24 C 14.14 g/m*3 24 C 4.8 km/h
1671 22-05-2020 19:10:00 24.1 C 14 g/m*3 24.1 C 8.1 km/h
1672 22-05-2020 19:15:00 24.4 C 13.8 g/m*3 24.4 C 12.9 km/h
1673 22-05-2020 19:20:00 24.6 C 14.18 g/m*3 24.6 C 6.4 km/h
1674 22-05-2020 19:25:00 24.7 C 14.26 g/m*3 24.7 C 4.8 km/h
1675 22-05-2020 19:30:00 24.7 C 14.49 g/m*3 24.7 C 0 km/h
Sensor: Nr:Datum:Temp:Abs-Feuchte:Windchill:Wind:
Aussen-T/F 1676 22-05-2020 19:35:00 24.6 C 14.18 g/m*3 24.6 C 4.8 km/h
1677 22-05-2020 19:40:00 24.4 C 14.47 g/m*3 24.4 C 11.3 km/h
1678 22-05-2020 19:45:00 24.2 C 14.08 g/m*3 24.2 C 11.3 km/h
1679 22-05-2020 19:50:00 23.9 C 14.06 g/m*3 23.9 C 8.1 km/h
1680 22-05-2020 19:55:00 23.7 C 13.9 g/m*3 23.7 C 9.7 km/h
1681 22-05-2020 20:00:00 23.5 C 13.96 g/m*3 23.5 C 9.7 km/h
1682 22-05-2020 20:05:00 23.2 C 14.14 g/m*3 23.2 C 8.1 km/h
1683 22-05-2020 20:10:00 22.7 C 14.14 g/m*3 22.7 C 12.9 km/h
1684 22-05-2020 20:15:00 22.2 C 13.94 g/m*3 22.2 C 22.5 km/h
1685 22-05-2020 20:20:00 21.7 C 13.93 g/m*3 21.7 C 16.1 km/h
1686 22-05-2020 20:25:00 21.2 C 13.71 g/m*3 21.2 C 14.5 km/h
1687 22-05-2020 20:30:00 20.8 C 13.76 g/m*3 20.8 C 11.3 km/h
1688 22-05-2020 20:35:00 20.5 C 13.7 g/m*3 20.5 C 12.9 km/h
1689 22-05-2020 20:40:00 20.2 C 13.81 g/m*3 20.2 C 6.4 km/h
1690 22-05-2020 20:45:00 19.9 C 13.57 g/m*3 19.9 C 12.9 km/h
1691 22-05-2020 20:50:00 19.7 C 13.41 g/m*3 19.7 C 11.3 km/h
1692 22-05-2020 20:55:00 19.5 C 13.59 g/m*3 19.5 C 19.3 km/h
1693 22-05-2020 21:00:00 19.3 C 13.6 g/m*3 19.3 C 8.1 km/h
1694 22-05-2020 21:05:00 19 C 13.53 g/m*3 19 C 9.7 km/h
1695 22-05-2020 21:10:00 18.8 C 13.53 g/m*3 18.8 C 6.4 km/h
1696 22-05-2020 21:15:00 18.6 C 13.69 g/m*3 18.6 C 1.6 km/h
1697 22-05-2020 21:20:00 18.4 C 13.53 g/m*3 18.4 C 3.2 km/h
1698 22-05-2020 21:25:00 18.3 C 13.6 g/m*3 18.3 C 4.8 km/h
1699 22-05-2020 21:30:00 18.2 C 13.52 g/m*3 18.2 C 3.2 km/h
1700 22-05-2020 21:35:00 18.1 C 13.6 g/m*3 18.1 C 0 km/h
Sensor: Nr:Datum:Temp:Abs-Feuchte:Windchill:Wind:
Aussen-T/F 1701 22-05-2020 21:40:00 18 C 13.67 g/m*3 18 C 0 km/h
1702 22-05-2020 21:45:00 17.9 C 13.59 g/m*3 17.9 C 0 km/h
1703 22-05-2020 21:50:00 17.8 C 13.66 g/m*3 17.8 C 0 km/h
1704 22-05-2020 21:55:00 17.8 C 13.66 g/m*3 17.8 C 0 km/h
1705 22-05-2020 22:00:00 17.7 C 13.58 g/m*3 17.7 C 1.6 km/h
1706 22-05-2020 22:05:00 17.7 C 13.73 g/m*3 17.7 C 0 km/h
1707 22-05-2020 22:10:00 17.6 C 13.65 g/m*3 17.6 C 0 km/h
1708 22-05-2020 22:15:00 17.6 C 13.8 g/m*3 17.6 C 0 km/h
1709 22-05-2020 22:20:00 17.6 C 13.8 g/m*3 17.6 C 0 km/h
1710 22-05-2020 22:25:00 17.6 C 13.8 g/m*3 17.6 C 3.2 km/h
1711 22-05-2020 22:30:00 17.5 C 13.72 g/m*3 17.5 C 4.8 km/h
1712 22-05-2020 22:35:00 17.4 C 13.78 g/m*3 17.4 C 4.8 km/h
1713 22-05-2020 22:40:00 17.4 C 13.78 g/m*3 17.4 C 3.2 km/h
1714 22-05-2020 22:45:00 17.3 C 13.7 g/m*3 17.3 C 0 km/h
1715 22-05-2020 22:50:00 17.3 C 13.7 g/m*3 17.3 C 1.6 km/h
1716 22-05-2020 22:55:00 17.3 C 13.7 g/m*3 17.3 C 3.2 km/h
1717 22-05-2020 23:00:00 17.3 C 13.7 g/m*3 17.3 C 6.4 km/h
1718 22-05-2020 23:05:00 17.2 C 13.62 g/m*3 17.2 C 4.8 km/h
1719 22-05-2020 23:10:00 17.2 C 13.62 g/m*3 17.2 C 3.2 km/h
1720 22-05-2020 23:15:00 17.2 C 13.62 g/m*3 17.2 C 1.6 km/h
1721 22-05-2020 23:20:00 17.2 C 13.77 g/m*3 17.2 C 1.6 km/h
1722 22-05-2020 23:25:00 17.1 C 13.68 g/m*3 17.1 C 3.2 km/h
1723 22-05-2020 23:30:00 17.1 C 13.68 g/m*3 17.1 C 0 km/h
1724 22-05-2020 23:35:00 17.1 C 13.68 g/m*3 17.1 C 0 km/h
1725 22-05-2020 23:40:00 17.1 C 13.68 g/m*3 17.1 C 0 km/h
Sensor: Nr:Datum:Temp:Abs-Feuchte:Windchill:Wind:
Aussen-T/F 1726 22-05-2020 23:45:00 16.9 C 13.52 g/m*3 16.9 C 4.8 km/h
1727 22-05-2020 23:50:00 16.9 C 13.52 g/m*3 16.9 C 3.2 km/h
1728 22-05-2020 23:55:00 16.8 C 13.44 g/m*3 16.8 C 0 km/h
1729 23-05-2020 00:00:00 16.8 C 13.44 g/m*3 16.8 C 1.6 km/h
1730 23-05-2020 00:05:00 16.8 C 13.44 g/m*3 16.8 C 3.2 km/h
1731 23-05-2020 00:10:00 16.8 C 13.44 g/m*3 16.8 C 3.2 km/h
1732 23-05-2020 00:15:00 16.8 C 13.58 g/m*3 16.8 C 3.2 km/h
1733 23-05-2020 00:20:00 16.7 C 13.5 g/m*3 16.7 C 1.6 km/h
1734 23-05-2020 00:25:00 16.7 C 13.5 g/m*3 16.7 C 0 km/h
1735 23-05-2020 00:30:00 16.7 C 13.36 g/m*3 16.7 C 3.2 km/h
1736 23-05-2020 00:35:00 16.7 C 13.5 g/m*3 16.7 C 1.6 km/h
1737 23-05-2020 00:40:00 16.6 C 13.42 g/m*3 16.6 C 3.2 km/h
1738 23-05-2020 00:45:00 16.6 C 13.42 g/m*3 16.6 C 0 km/h
1739 23-05-2020 00:50:00 16.6 C 13.42 g/m*3 16.6 C 0 km/h
1740 23-05-2020 00:55:00 16.6 C 13.42 g/m*3 16.6 C 1.6 km/h
1741 23-05-2020 01:00:00 16.6 C 13.42 g/m*3 16.6 C 0 km/h
1742 23-05-2020 01:05:00 16.6 C 13.42 g/m*3 16.6 C 1.6 km/h
1743 23-05-2020 01:10:00 16.5 C 13.34 g/m*3 16.5 C 0 km/h
1744 23-05-2020 01:15:00 16.6 C 13.42 g/m*3 16.6 C 0 km/h
1745 23-05-2020 01:20:00 16.6 C 13.56 g/m*3 16.6 C 0 km/h
1746 23-05-2020 01:25:00 16.6 C 13.42 g/m*3 16.6 C 3.2 km/h
1747 23-05-2020 01:30:00 16.5 C 13.34 g/m*3 16.5 C 0 km/h
1748 23-05-2020 01:35:00 16.3 C 13.18 g/m*3 16.3 C 1.6 km/h
1749 23-05-2020 01:40:00 15.9 C 12.73 g/m*3 15.9 C 3.2 km/h
1750 23-05-2020 01:45:00 15.4 C 12.09 g/m*3 15.4 C 6.4 km/h
Sensor: Nr:Datum:Temp:Abs-Feuchte:Windchill:Wind:
Aussen-T/F 1751 23-05-2020 01:50:00 15.1 C 11.87 g/m*3 15.1 C 3.2 km/h
1752 23-05-2020 01:55:00 14.8 C 11.78 g/m*3 14.8 C 3.2 km/h
1753 23-05-2020 02:00:00 14.7 C 11.71 g/m*3 14.7 C 3.2 km/h
1754 23-05-2020 02:05:00 14.5 C 11.57 g/m*3 14.5 C 4.8 km/h
1755 23-05-2020 02:10:00 14.3 C 11.43 g/m*3 14.3 C 8.1 km/h
1756 23-05-2020 02:15:00 14.3 C 11.55 g/m*3 14.3 C 6.4 km/h
1757 23-05-2020 02:20:00 14.2 C 11.48 g/m*3 14.2 C 6.4 km/h
1758 23-05-2020 02:25:00 14.2 C 11.48 g/m*3 14.2 C 6.4 km/h
1759 23-05-2020 02:30:00 14.2 C 11.48 g/m*3 14.2 C 6.4 km/h
1760 23-05-2020 02:35:00 14.1 C 11.41 g/m*3 14.1 C 3.2 km/h
1761 23-05-2020 02:40:00 14.1 C 11.41 g/m*3 14.1 C 1.6 km/h
1762 23-05-2020 02:45:00 14 C 11.34 g/m*3 14 C 0 km/h
1763 23-05-2020 02:50:00 13.9 C 11.39 g/m*3 13.9 C 4.8 km/h
1764 23-05-2020 02:55:00 13.9 C 11.39 g/m*3 13.9 C 6.4 km/h
1765 23-05-2020 03:00:00 13.9 C 11.39 g/m*3 13.9 C 4.8 km/h
1766 23-05-2020 03:05:00 13.8 C 11.32 g/m*3 13.8 C 3.2 km/h
1767 23-05-2020 03:10:00 13.8 C 11.32 g/m*3 13.8 C 4.8 km/h
1768 23-05-2020 03:15:00 13.7 C 11.25 g/m*3 13.7 C 6.4 km/h
1769 23-05-2020 03:20:00 13.7 C 11.25 g/m*3 13.7 C 8.1 km/h
1770 23-05-2020 03:25:00 13.6 C 11.18 g/m*3 13.6 C 8.1 km/h
1771 23-05-2020 03:30:00 13.6 C 11.18 g/m*3 13.6 C 0 km/h
1772 23-05-2020 03:35:00 13.5 C 11.11 g/m*3 13.5 C 0 km/h
1773 23-05-2020 03:40:00 13.5 C 11.11 g/m*3 13.5 C 4.8 km/h
1774 23-05-2020 03:45:00 13.6 C 11.18 g/m*3 13.6 C 6.4 km/h
1775 23-05-2020 03:50:00 13.6 C 11.18 g/m*3 13.6 C 4.8 km/h
Sensor: Nr:Datum:Temp:Abs-Feuchte:Windchill:Wind:
Aussen-T/F 1776 23-05-2020 03:55:00 13.6 C 11.18 g/m*3 13.6 C 4.8 km/h
1777 23-05-2020 04:00:00 13.6 C 11.3 g/m*3 13.6 C 4.8 km/h
1778 23-05-2020 04:05:00 13.7 C 11.37 g/m*3 13.7 C 1.6 km/h
1779 23-05-2020 04:10:00 13.7 C 11.37 g/m*3 13.7 C 3.2 km/h
1780 23-05-2020 04:15:00 13.8 C 11.44 g/m*3 13.8 C 4.8 km/h
1781 23-05-2020 04:20:00 13.8 C 11.44 g/m*3 13.8 C 1.6 km/h
1782 23-05-2020 04:25:00 13.8 C 11.44 g/m*3 13.8 C 3.2 km/h
1783 23-05-2020 04:30:00 13.8 C 11.44 g/m*3 13.8 C 4.8 km/h
1784 23-05-2020 04:35:00 13.8 C 11.44 g/m*3 13.8 C 1.6 km/h
1785 23-05-2020 04:40:00 13.8 C 11.44 g/m*3 13.8 C 4.8 km/h
1786 23-05-2020 04:45:00 13.7 C 11.37 g/m*3 13.7 C 6.4 km/h
1787 23-05-2020 04:50:00 13.4 C 11.04 g/m*3 13.4 C 11.3 km/h
1788 23-05-2020 04:55:00 13.1 C 10.73 g/m*3 13.1 C 11.3 km/h
1789 23-05-2020 05:00:00 12.7 C 10.46 g/m*3 12.7 C 12.9 km/h
1790 23-05-2020 05:05:00 12.5 C 10.33 g/m*3 12.5 C 9.7 km/h
1791 23-05-2020 05:10:00 12.3 C 10.21 g/m*3 12.3 C 8.1 km/h
1792 23-05-2020 05:15:00 12.2 C 10.25 g/m*3 12.2 C 8.1 km/h
1793 23-05-2020 05:20:00 12.1 C 10.19 g/m*3 12.1 C 8.1 km/h
1794 23-05-2020 05:25:00 12 C 10.12 g/m*3 12 C 8.1 km/h
1795 23-05-2020 05:30:00 11.9 C 10.06 g/m*3 11.9 C 9.7 km/h
1796 23-05-2020 05:35:00 11.8 C 10 g/m*3 11.8 C 8.1 km/h
1797 23-05-2020 05:40:00 11.8 C 10 g/m*3 11.8 C 8.1 km/h
1798 23-05-2020 05:45:00 11.7 C 9.94 g/m*3 11.7 C 9.7 km/h
1799 23-05-2020 05:50:00 11.6 C 9.87 g/m*3 11.6 C 6.4 km/h
1800 23-05-2020 05:55:00 11.6 C 9.87 g/m*3 11.6 C 8.1 km/h
Sensor: Nr:Datum:Temp:Abs-Feuchte:Windchill:Wind:
Aussen-T/F 1801 23-05-2020 06:00:00 11.4 C 9.75 g/m*3 11.4 C 8.1 km/h
1802 23-05-2020 06:05:00 11.4 C 9.75 g/m*3 11.4 C 8.1 km/h
1803 23-05-2020 06:10:00 11.4 C 9.75 g/m*3 11.4 C 8.1 km/h
1804 23-05-2020 06:15:00 11.5 C 9.81 g/m*3 11.5 C 8.1 km/h
1805 23-05-2020 06:20:00 11.6 C 9.98 g/m*3 11.6 C 6.4 km/h
1806 23-05-2020 06:25:00 11.6 C 9.98 g/m*3 11.6 C 6.4 km/h
1807 23-05-2020 06:30:00 11.6 C 9.98 g/m*3 11.6 C 4.8 km/h
1808 23-05-2020 06:35:00 11.6 C 9.98 g/m*3 11.6 C 4.8 km/h
1809 23-05-2020 06:40:00 11.7 C 10.04 g/m*3 11.7 C 4.8 km/h
1810 23-05-2020 06:45:00 11.7 C 10.04 g/m*3 11.7 C 0 km/h
1811 23-05-2020 06:50:00 11.8 C 10.1 g/m*3 11.8 C 1.6 km/h
1812 23-05-2020 06:55:00 11.9 C 10.17 g/m*3 11.9 C 1.6 km/h
1813 23-05-2020 07:00:00 12 C 10.23 g/m*3 12 C 3.2 km/h
1814 23-05-2020 07:05:00 12 C 10.23 g/m*3 12 C 1.6 km/h
1815 23-05-2020 07:10:00 12 C 10.23 g/m*3 12 C 4.8 km/h
1816 23-05-2020 07:15:00 12.1 C 10.29 g/m*3 12.1 C 4.8 km/h
1817 23-05-2020 07:20:00 12.2 C 10.36 g/m*3 12.2 C 3.2 km/h
1818 23-05-2020 07:25:00 12.2 C 10.36 g/m*3 12.2 C 3.2 km/h
1819 23-05-2020 07:30:00 12.3 C 10.42 g/m*3 12.3 C 4.8 km/h
1820 23-05-2020 07:35:00 12.4 C 10.49 g/m*3 12.4 C 3.2 km/h
1821 23-05-2020 07:40:00 12.6 C 10.62 g/m*3 12.6 C 1.6 km/h
1822 23-05-2020 07:45:00 12.7 C 10.8 g/m*3 12.7 C 0 km/h
1823 23-05-2020 07:50:00 12.8 C 10.87 g/m*3 12.8 C 0 km/h
1824 23-05-2020 07:55:00 12.9 C 10.93 g/m*3 12.9 C 0 km/h
1825 23-05-2020 08:00:00 12.9 C 10.82 g/m*3 12.9 C 3.2 km/h
Sensor: Nr:Datum:Temp:Abs-Feuchte:Windchill:Wind:
Aussen-T/F 1826 23-05-2020 08:05:00 12.9 C 10.82 g/m*3 12.9 C 1.6 km/h
1827 23-05-2020 08:10:00 12.9 C 10.82 g/m*3 12.9 C 1.6 km/h
1828 23-05-2020 08:15:00 12.9 C 10.82 g/m*3 12.9 C 1.6 km/h
1829 23-05-2020 08:20:00 12.9 C 10.82 g/m*3 12.9 C 0 km/h
1830 23-05-2020 08:25:00 13.1 C 10.95 g/m*3 13.1 C 0 km/h
1831 23-05-2020 08:30:00 13.2 C 11.14 g/m*3 13.2 C 1.6 km/h
1832 23-05-2020 08:35:00 13.2 C 11.02 g/m*3 13.2 C 3.2 km/h
1833 23-05-2020 08:40:00 13.2 C 11.02 g/m*3 13.2 C 1.6 km/h
1834 23-05-2020 08:45:00 13.2 C 11.02 g/m*3 13.2 C 1.6 km/h
1835 23-05-2020 08:50:00 13.2 C 11.02 g/m*3 13.2 C 0 km/h
1836 23-05-2020 08:55:00 13.2 C 11.02 g/m*3 13.2 C 3.2 km/h
1837 23-05-2020 09:00:00 13.3 C 11.09 g/m*3 13.3 C 3.2 km/h
1838 23-05-2020 09:05:00 13.2 C 10.91 g/m*3 13.2 C 6.4 km/h
1839 23-05-2020 09:10:00 13.1 C 10.84 g/m*3 13.1 C 1.6 km/h
1840 23-05-2020 09:15:00 13.1 C 10.84 g/m*3 13.1 C 3.2 km/h
1841 23-05-2020 09:20:00 12.9 C 10.71 g/m*3 12.9 C 4.8 km/h
1842 23-05-2020 09:25:00 12.8 C 10.64 g/m*3 12.8 C 1.6 km/h
1843 23-05-2020 09:30:00 12.8 C 10.64 g/m*3 12.8 C 3.2 km/h
1844 23-05-2020 09:35:00 12.8 C 10.64 g/m*3 12.8 C 1.6 km/h
1845 23-05-2020 09:40:00 12.9 C 10.71 g/m*3 12.9 C 11.3 km/h
1846 23-05-2020 09:45:00 12.9 C 10.71 g/m*3 12.9 C 3.2 km/h
1847 23-05-2020 09:50:00 13 C 10.77 g/m*3 13 C 4.8 km/h
1848 23-05-2020 09:55:00 12.9 C 10.59 g/m*3 12.9 C 1.6 km/h
1849 23-05-2020 10:00:00 12.9 C 10.59 g/m*3 12.9 C 4.8 km/h
1850 23-05-2020 10:05:00 12.9 C 10.59 g/m*3 12.9 C 4.8 km/h
Sensor: Nr:Datum:Temp:Abs-Feuchte:Windchill:Wind:
Aussen-T/F 1851 23-05-2020 10:10:00 12.9 C 10.71 g/m*3 12.9 C 3.2 km/h
1852 23-05-2020 10:15:00 13 C 10.77 g/m*3 13 C 1.6 km/h
1853 23-05-2020 10:20:00 13.1 C 10.84 g/m*3 13.1 C 1.6 km/h
1854 23-05-2020 10:25:00 13 C 10.66 g/m*3 13 C 4.8 km/h
1855 23-05-2020 10:30:00 12.7 C 10.35 g/m*3 12.7 C 9.7 km/h
1856 23-05-2020 10:35:00 12.3 C 9.77 g/m*3 12.3 C 6.4 km/h
1857 23-05-2020 10:40:00 12.1 C 9.54 g/m*3 12.1 C 20.9 km/h
1858 23-05-2020 10:45:00 11.8 C 8.84 g/m*3 11.8 C 20.9 km/h
1859 23-05-2020 10:50:00 11.7 C 8.89 g/m*3 11.7 C 16.1 km/h
1860 23-05-2020 10:55:00 11.6 C 9.15 g/m*3 11.6 C 3.2 km/h
1861 23-05-2020 11:00:00 11.6 C 9.35 g/m*3 11.6 C 9.7 km/h
1862 23-05-2020 11:05:00 11.6 C 9.46 g/m*3 11.6 C 8.1 km/h
1863 23-05-2020 11:10:00 11.5 C 9.4 g/m*3 11.5 C 11.3 km/h
1864 23-05-2020 11:15:00 11.5 C 9.5 g/m*3 11.5 C 9.7 km/h
1865 23-05-2020 11:20:00 11.6 C 9.56 g/m*3 11.6 C 8.1 km/h
1866 23-05-2020 11:25:00 11.8 C 9.79 g/m*3 11.8 C 6.4 km/h
1867 23-05-2020 11:30:00 11.9 C 9.85 g/m*3 11.9 C 6.4 km/h
1868 23-05-2020 11:35:00 12.1 C 9.87 g/m*3 12.1 C 11.3 km/h
1869 23-05-2020 11:40:00 12.1 C 9.97 g/m*3 12.1 C 6.4 km/h
1870 23-05-2020 11:45:00 12.3 C 10.1 g/m*3 12.3 C 4.8 km/h
1871 23-05-2020 11:50:00 12.4 C 10.16 g/m*3 12.4 C 4.8 km/h
1872 23-05-2020 11:55:00 12.3 C 9.88 g/m*3 12.3 C 3.2 km/h
1873 23-05-2020 12:00:00 12.4 C 9.94 g/m*3 12.4 C 3.2 km/h
1874 23-05-2020 12:05:00 12.4 C 9.83 g/m*3 12.4 C 6.4 km/h
1875 23-05-2020 12:10:00 12.3 C 9.66 g/m*3 12.3 C 8.1 km/h
Sensor: Nr:Datum:Temp:Abs-Feuchte:Windchill:Wind:
Aussen-T/F 1876 23-05-2020 12:15:00 12.3 C 9.77 g/m*3 12.3 C 8.1 km/h
1877 23-05-2020 12:20:00 12.3 C 9.77 g/m*3 12.3 C 6.4 km/h
1878 23-05-2020 12:25:00 12.3 C 9.66 g/m*3 12.3 C 4.8 km/h
1879 23-05-2020 12:30:00 12.3 C 9.66 g/m*3 12.3 C 9.7 km/h
1880 23-05-2020 12:35:00 12.3 C 9.56 g/m*3 12.3 C 11.3 km/h
1881 23-05-2020 12:40:00 12.3 C 9.56 g/m*3 12.3 C 11.3 km/h
1882 23-05-2020 12:45:00 12.3 C 9.66 g/m*3 12.3 C 8.1 km/h
1883 23-05-2020 12:50:00 12.3 C 9.77 g/m*3 12.3 C 6.4 km/h
1884 23-05-2020 12:55:00 12.4 C 9.83 g/m*3 12.4 C 6.4 km/h
1885 23-05-2020 13:00:00 12.4 C 9.83 g/m*3 12.4 C 6.4 km/h
1886 23-05-2020 13:05:00 12.5 C 9.89 g/m*3 12.5 C 3.2 km/h
1887 23-05-2020 13:10:00 12.6 C 9.85 g/m*3 12.6 C 9.7 km/h
1888 23-05-2020 13:15:00 12.7 C 9.91 g/m*3 12.7 C 9.7 km/h
1889 23-05-2020 13:20:00 12.8 C 9.86 g/m*3 12.8 C 12.9 km/h
1890 23-05-2020 13:25:00 12.9 C 9.81 g/m*3 12.9 C 8.1 km/h
1891 23-05-2020 13:30:00 13 C 9.87 g/m*3 13 C 8.1 km/h
1892 23-05-2020 13:35:00 12.9 C 9.58 g/m*3 12.9 C 14.5 km/h
1893 23-05-2020 13:40:00 13.1 C 9.81 g/m*3 13.1 C 6.4 km/h
1894 23-05-2020 13:45:00 13.3 C 10.05 g/m*3 13.3 C 4.8 km/h
1895 23-05-2020 13:50:00 13.4 C 10.11 g/m*3 13.4 C 8.1 km/h
1896 23-05-2020 13:55:00 13.4 C 10 g/m*3 13.4 C 11.3 km/h
1897 23-05-2020 14:00:00 13.3 C 9.7 g/m*3 13.3 C 11.3 km/h
1898 23-05-2020 14:05:00 13.3 C 9.82 g/m*3 13.3 C 9.7 km/h
1899 23-05-2020 14:10:00 13.3 C 9.7 g/m*3 13.3 C 12.9 km/h
1900 23-05-2020 14:15:00 13.3 C 9.82 g/m*3 13.3 C 8.1 km/h
Sensor: Nr:Datum:Temp:Abs-Feuchte:Windchill:Wind:
Aussen-T/F 1901 23-05-2020 14:20:00 13.4 C 9.65 g/m*3 13.4 C 12.9 km/h
1902 23-05-2020 14:25:00 13.5 C 9.83 g/m*3 13.5 C 12.9 km/h
1903 23-05-2020 14:30:00 13.7 C 10.07 g/m*3 13.7 C 6.4 km/h
1904 23-05-2020 14:35:00 14 C 10.13 g/m*3 14 C 11.3 km/h
1905 23-05-2020 14:40:00 14.1 C 9.95 g/m*3 14.1 C 12.9 km/h
1906 23-05-2020 14:45:00 14.2 C 10.01 g/m*3 14.2 C 12.9 km/h
1907 23-05-2020 14:50:00 14.2 C 10.01 g/m*3 14.2 C 17.7 km/h
1908 23-05-2020 14:55:00 14.3 C 10.07 g/m*3 14.3 C 12.9 km/h
1909 23-05-2020 15:00:00 14.4 C 10.14 g/m*3 14.4 C 11.3 km/h
1910 23-05-2020 15:05:00 14.6 C 10.14 g/m*3 14.6 C 11.3 km/h
1911 23-05-2020 15:10:00 14.7 C 10.07 g/m*3 14.7 C 14.5 km/h
1912 23-05-2020 15:15:00 14.7 C 9.95 g/m*3 14.7 C 14.5 km/h
1913 23-05-2020 15:20:00 14.9 C 10.07 g/m*3 14.9 C 20.9 km/h
1914 23-05-2020 15:25:00 15 C 10 g/m*3 15 C 12.9 km/h
1915 23-05-2020 15:30:00 15 C 10 g/m*3 15 C 17.7 km/h
1916 23-05-2020 15:35:00 15 C 10.13 g/m*3 15 C 12.9 km/h
1917 23-05-2020 15:40:00 15.1 C 9.93 g/m*3 15.1 C 12.9 km/h
1918 23-05-2020 15:45:00 15.1 C 9.8 g/m*3 15.1 C 14.5 km/h
1919 23-05-2020 15:50:00 15.3 C 10.06 g/m*3 15.3 C 12.9 km/h
1920 23-05-2020 15:55:00 15.3 C 9.92 g/m*3 15.3 C 14.5 km/h
1921 23-05-2020 16:00:00 15.4 C 9.85 g/m*3 15.4 C 11.3 km/h
1922 23-05-2020 16:05:00 15.7 C 10.03 g/m*3 15.7 C 11.3 km/h
1923 23-05-2020 16:10:00 15.8 C 9.96 g/m*3 15.8 C 14.5 km/h
1924 23-05-2020 16:15:00 15.8 C 9.96 g/m*3 15.8 C 9.7 km/h
1925 23-05-2020 16:20:00 15.8 C 9.69 g/m*3 15.8 C 17.7 km/h
Sensor: Nr:Datum:Temp:Abs-Feuchte:Windchill:Wind:
Aussen-T/F 1926 23-05-2020 16:25:00 15.9 C 10.02 g/m*3 15.9 C 9.7 km/h
1927 23-05-2020 16:30:00 16 C 9.54 g/m*3 16 C 12.9 km/h
1928 23-05-2020 16:35:00 16.1 C 9.46 g/m*3 16.1 C 6.4 km/h
1929 23-05-2020 16:40:00 16.2 C 9.79 g/m*3 16.2 C 11.3 km/h
1930 23-05-2020 16:45:00 16.3 C 9.85 g/m*3 16.3 C 9.7 km/h
1931 23-05-2020 16:50:00 16.3 C 9.99 g/m*3 16.3 C 11.3 km/h
1932 23-05-2020 16:55:00 16.2 C 9.79 g/m*3 16.2 C 11.3 km/h
1933 23-05-2020 17:00:00 16.2 C 9.65 g/m*3 16.2 C 14.5 km/h
1934 23-05-2020 17:05:00 16.1 C 9.87 g/m*3 16.1 C 12.9 km/h
1935 23-05-2020 17:10:00 15.8 C 9.83 g/m*3 15.8 C 12.9 km/h
1936 23-05-2020 17:15:00 15.8 C 9.83 g/m*3 15.8 C 8.1 km/h
1937 23-05-2020 17:20:00 15.8 C 9.83 g/m*3 15.8 C 14.5 km/h
1938 23-05-2020 17:25:00 15.7 C 9.9 g/m*3 15.7 C 11.3 km/h
1939 23-05-2020 17:30:00 15.4 C 9.72 g/m*3 15.4 C 9.7 km/h
1940 23-05-2020 17:35:00 15.4 C 10.12 g/m*3 15.4 C 17.7 km/h
1941 23-05-2020 17:40:00 15.4 C 10.38 g/m*3 15.4 C 16.1 km/h
1942 23-05-2020 17:45:00 15.6 C 10.24 g/m*3 15.6 C 11.3 km/h
1943 23-05-2020 17:50:00 16 C 10.49 g/m*3 16 C 11.3 km/h
1944 23-05-2020 17:55:00 16.6 C 10.74 g/m*3 16.6 C 11.3 km/h
1945 23-05-2020 18:00:00 16.7 C 10.23 g/m*3 16.7 C 9.7 km/h
1946 23-05-2020 18:05:00 16.8 C 10.44 g/m*3 16.8 C 11.3 km/h
1947 23-05-2020 18:10:00 16.9 C 10.36 g/m*3 16.9 C 9.7 km/h
1948 23-05-2020 18:15:00 16.9 C 10.36 g/m*3 16.9 C 14.5 km/h
1949 23-05-2020 18:20:00 16.4 C 9.91 g/m*3 16.4 C 16.1 km/h
1950 23-05-2020 18:25:00 15.9 C 9.75 g/m*3 15.9 C 16.1 km/h
Sensor: Nr:Datum:Temp:Abs-Feuchte:Windchill:Wind:
Aussen-T/F 1951 23-05-2020 18:30:00 15.6 C 9.84 g/m*3 15.6 C 16.1 km/h
1952 23-05-2020 18:35:00 15.3 C 9.92 g/m*3 15.3 C 9.7 km/h
1953 23-05-2020 18:40:00 15.2 C 10.38 g/m*3 15.2 C 12.9 km/h
1954 23-05-2020 18:45:00 15.2 C 10.64 g/m*3 15.2 C 4.8 km/h
1955 23-05-2020 18:50:00 15.1 C 10.19 g/m*3 15.1 C 11.3 km/h
1956 23-05-2020 18:55:00 15.1 C 10.06 g/m*3 15.1 C 8.1 km/h
1957 23-05-2020 19:00:00 15.7 C 10.17 g/m*3 15.7 C 8.1 km/h
1958 23-05-2020 19:05:00 15.9 C 10.02 g/m*3 15.9 C 16.1 km/h
1959 23-05-2020 19:10:00 16.2 C 10.2 g/m*3 16.2 C 12.9 km/h
1960 23-05-2020 19:15:00 16.1 C 10.14 g/m*3 16.1 C 14.5 km/h
1961 23-05-2020 19:20:00 15.6 C 9.71 g/m*3 15.6 C 14.5 km/h
1962 23-05-2020 19:25:00 15.2 C 9.86 g/m*3 15.2 C 11.3 km/h
1963 23-05-2020 19:30:00 15 C 9.75 g/m*3 15 C 9.7 km/h
1964 23-05-2020 19:35:00 15 C 10 g/m*3 15 C 8.1 km/h
1965 23-05-2020 19:40:00 15 C 9.87 g/m*3 15 C 8.1 km/h
1966 23-05-2020 19:45:00 14.9 C 9.81 g/m*3 14.9 C 9.7 km/h
1967 23-05-2020 19:50:00 15.1 C 9.93 g/m*3 15.1 C 11.3 km/h
1968 23-05-2020 19:55:00 15.2 C 9.99 g/m*3 15.2 C 8.1 km/h
1969 23-05-2020 20:00:00 15.3 C 9.92 g/m*3 15.3 C 9.7 km/h
1970 23-05-2020 20:05:00 15.2 C 9.86 g/m*3 15.2 C 9.7 km/h
1971 23-05-2020 20:10:00 15 C 9.75 g/m*3 15 C 11.3 km/h
1972 23-05-2020 20:15:00 14.8 C 9.75 g/m*3 14.8 C 12.9 km/h
1973 23-05-2020 20:20:00 14.8 C 10.01 g/m*3 14.8 C 6.4 km/h
1974 23-05-2020 20:25:00 14.7 C 9.82 g/m*3 14.7 C 9.7 km/h
1975 23-05-2020 20:30:00 14.6 C 9.89 g/m*3 14.6 C 4.8 km/h
Sensor: Nr:Datum:Temp:Abs-Feuchte:Windchill:Wind:
Aussen-T/F 1976 23-05-2020 20:35:00 14.6 C 9.89 g/m*3 14.6 C 9.7 km/h
1977 23-05-2020 20:40:00 14.4 C 9.77 g/m*3 14.4 C 11.3 km/h
1978 23-05-2020 20:45:00 14.3 C 9.71 g/m*3 14.3 C 12.9 km/h
1979 23-05-2020 20:50:00 14.2 C 9.65 g/m*3 14.2 C 11.3 km/h
1980 23-05-2020 20:55:00 14.1 C 9.71 g/m*3 14.1 C 14.5 km/h
1981 23-05-2020 21:00:00 13.9 C 9.59 g/m*3 13.9 C 8.1 km/h
1982 23-05-2020 21:05:00 13.8 C 9.53 g/m*3 13.8 C 9.7 km/h
1983 23-05-2020 21:10:00 13.7 C 9.59 g/m*3 13.7 C 4.8 km/h
1984 23-05-2020 21:15:00 13.5 C 9.59 g/m*3 13.5 C 4.8 km/h
1985 23-05-2020 21:20:00 13.3 C 9.36 g/m*3 13.3 C 8.1 km/h
1986 23-05-2020 21:25:00 13.2 C 9.3 g/m*3 13.2 C 14.5 km/h
1987 23-05-2020 21:30:00 13.2 C 9.3 g/m*3 13.2 C 12.9 km/h
1988 23-05-2020 21:35:00 13.1 C 9.24 g/m*3 13.1 C 11.3 km/h
1989 23-05-2020 21:40:00 13 C 9.19 g/m*3 13 C 12.9 km/h
1990 23-05-2020 21:45:00 12.9 C 9.24 g/m*3 12.9 C 6.4 km/h
1991 23-05-2020 21:50:00 12.7 C 9.13 g/m*3 12.7 C 6.4 km/h
1992 23-05-2020 21:55:00 12.6 C 9.18 g/m*3 12.6 C 1.6 km/h
1993 23-05-2020 22:00:00 12.3 C 9.01 g/m*3 12.3 C 9.7 km/h
1994 23-05-2020 22:05:00 12.3 C 9.01 g/m*3 12.3 C 8.1 km/h
1995 23-05-2020 22:10:00 12.2 C 9.06 g/m*3 12.2 C 9.7 km/h
1996 23-05-2020 22:15:00 12.2 C 9.06 g/m*3 12.2 C 9.7 km/h
1997 23-05-2020 22:20:00 12.1 C 9.01 g/m*3 12.1 C 4.8 km/h
1998 23-05-2020 22:25:00 12 C 8.95 g/m*3 12 C 6.4 km/h
1999 23-05-2020 22:30:00 11.9 C 9 g/m*3 11.9 C 3.2 km/h
2000 23-05-2020 22:35:00 11.8 C 8.95 g/m*3 11.8 C 8.1 km/h
Sensor: Nr:Datum:Temp:Abs-Feuchte:Windchill:Wind:
Aussen-T/F 2001 23-05-2020 22:40:00 11.7 C 8.89 g/m*3 11.7 C 6.4 km/h
2002 23-05-2020 22:45:00 11.6 C 8.94 g/m*3 11.6 C 3.2 km/h
2003 23-05-2020 22:50:00 11.5 C 8.88 g/m*3 11.5 C 6.4 km/h
2004 23-05-2020 22:55:00 11.4 C 8.83 g/m*3 11.4 C 6.4 km/h
2005 23-05-2020 23:00:00 11.3 C 8.77 g/m*3 11.3 C 6.4 km/h
2006 23-05-2020 23:05:00 11.3 C 8.77 g/m*3 11.3 C 8.1 km/h
2007 23-05-2020 23:10:00 11.3 C 8.87 g/m*3 11.3 C 9.7 km/h
2008 23-05-2020 23:15:00 11.2 C 8.82 g/m*3 11.2 C 3.2 km/h
2009 23-05-2020 23:20:00 11.2 C 8.82 g/m*3 11.2 C 1.6 km/h
2010 23-05-2020 23:25:00 11.1 C 8.76 g/m*3 11.1 C 1.6 km/h
2011 23-05-2020 23:30:00 10.9 C 8.75 g/m*3 10.41 C 6.4 km/h
2012 23-05-2020 23:35:00 10.9 C 8.75 g/m*3 10.04 C 8.1 km/h
2013 23-05-2020 23:40:00 10.9 C 8.75 g/m*3 10.04 C 8.1 km/h
2014 23-05-2020 23:45:00 10.9 C 8.75 g/m*3 10.9 C 3.2 km/h
2015 23-05-2020 23:50:00 10.8 C 8.7 g/m*3 10.8 C 3.2 km/h
2016 23-05-2020 23:55:00 10.8 C 8.8 g/m*3 10.8 C 3.2 km/h

Legende:
   Min
   Max


Maximal/Minimal-Werte vom 17.05.2020 - 23.05.2020

Sensor Min Max Avg
Temp
(Aussen-T/F)
5.8 °C
18-05-2020  06:15:00
29.2 °C
21-05-2020  17:15:00
16.55 °C
Abs-Feuchte
(Aussen-T/F)
5.98 g/m*3
17-05-2020  17:05:00
15.28 g/m*3
22-05-2020  13:30:00
9.75 g/m*3
Windchill
(Aussen-T/F)
5.56 C
17-05-2020  06:20:00
29.2 C
21-05-2020  17:15:00
16.53 C

Die Daten stammen von einer Davis Vantage Pro 2 Wetter-Station und werden unter Linux mit der Software wview2wettercgi und aufbereitet. Alle Angaben erfolgen ohne Gewähr für ihre Vollständigkeit oder Richtigkeit.
Kontakt: Rainer Krienke krienke@uni-koblenz.de . Meine Webseiten an der Uni Koblenz oder privat.
Version: $Revision: 0.78 $